[[{"header":{"parameterUnit":"m.s-1","parameterCategory":1,"la1":30.6,"la2":29.2853,"lo1":-89.7004,"lo2":-87.6739,"dy":0.0162,"dx":0.0183,"nx":112,"ny":82,"refTime":"2025-03-11T06:00:00:Z","depth":0,"parameterNumber":2,"parameterNumberName":"U-component_of_WINDS"},"data":[0.0,0.0,0.0,0.0,0.0,0.0,0.0,0.0,0.0,0.0,0.0,0.0,0.0,0.0,0.0,0.0,0.0,0.0,0.0,0.0,0.0,0.0,0.0,0.0,0.0,0.0,0.0,0.0,0.0,0.0,0.0,0.0,0.0,0.0,0.0,0.0,0.0,0.0,0.0,0.0,0.0,0.0,0.0,0.0,0.0,0.0,0.0,0.0,0.0,0.0,0.0,0.0,0.0,0.0,0.0,0.0,0.0,0.0,0.0,0.0,0.0,0.0,0.0,0.0,0.0,0.0,0.0,0.0,0.0,0.0,0.0,0.0,0.0,0.0,0.0,0.0,0.0,0.0,0.0,0.0,0.0,0.0,0.0,0.0,0.0,0.0,0.0,0.0,0.0,0.0,-4.5978,-4.6113,-4.7777,-4.9187,-4.9856,-4.9299,-4.7578,-4.4518,0.0,0.0,0.0,0.0,0.0,0.0,0.0,0.0,0.0,0.0,0.0,0.0,0.0,0.0,0.0,0.0,0.0,0.0,0.0,0.0,0.0,0.0,0.0,0.0,0.0,0.0,0.0,0.0,0.0,0.0,0.0,0.0,0.0,0.0,0.0,0.0,0.0,0.0,0.0,0.0,0.0,0.0,0.0,0.0,0.0,0.0,0.0,0.0,0.0,0.0,0.0,0.0,0.0,0.0,0.0,0.0,0.0,0.0,0.0,0.0,0.0,0.0,0.0,0.0,0.0,0.0,0.0,0.0,0.0,0.0,0.0,0.0,0.0,0.0,0.0,0.0,0.0,0.0,0.0,0.0,0.0,0.0,0.0,0.0,0.0,0.0,0.0,0.0,0.0,0.0,0.0,0.0,0.0,0.0,0.0,0.0,0.0,0.0,0.0,0.0,0.0,0.0,0.0,0.0,-4.4671,-4.8029,-4.8684,-4.8964,-4.9076,-4.8964,-4.7532,-4.4271,0.0,0.0,0.0,0.0,0.0,0.0,0.0,0.0,0.0,0.0,0.0,0.0,0.0,0.0,0.0,0.0,0.0,0.0,0.0,0.0,0.0,0.0,0.0,0.0,0.0,0.0,0.0,0.0,0.0,0.0,0.0,0.0,0.0,0.0,0.0,0.0,0.0,0.0,0.0,0.0,0.0,0.0,0.0,0.0,0.0,0.0,0.0,0.0,0.0,0.0,0.0,0.0,0.0,0.0,0.0,0.0,0.0,0.0,0.0,0.0,0.0,0.0,0.0,0.0,0.0,0.0,0.0,0.0,0.0,0.0,0.0,0.0,0.0,0.0,0.0,0.0,0.0,0.0,0.0,0.0,0.0,0.0,0.0,0.0,0.0,0.0,0.0,0.0,0.0,0.0,0.0,0.0,0.0,0.0,0.0,0.0,0.0,0.0,0.0,0.0,0.0,0.0,0.0,-4.3949,-4.5361,-4.8556,-4.889,-4.889,-4.889,-4.889,-4.7516,-4.4209,-4.3578,0.0,0.0,0.0,0.0,0.0,0.0,0.0,0.0,0.0,0.0,0.0,0.0,0.0,0.0,0.0,0.0,0.0,0.0,0.0,0.0,0.0,0.0,0.0,0.0,0.0,0.0,0.0,0.0,0.0,0.0,0.0,0.0,0.0,0.0,0.0,0.0,0.0,0.0,0.0,0.0,0.0,0.0,0.0,0.0,0.0,0.0,0.0,0.0,0.0,0.0,0.0,0.0,0.0,0.0,0.0,0.0,0.0,0.0,0.0,0.0,0.0,0.0,0.0,0.0,0.0,0.0,0.0,0.0,0.0,0.0,0.0,0.0,0.0,0.0,0.0,0.0,0.0,0.0,0.0,0.0,0.0,0.0,0.0,0.0,0.0,0.0,0.0,0.0,0.0,0.0,0.0,0.0,0.0,0.0,0.0,0.0,0.0,0.0,0.0,0.0,0.0,0.0,-4.603,-4.6847,-4.8704,-4.889,-4.889,-4.889,-4.8556,-4.7107,-4.4172,-4.2686,0.0,0.0,0.0,0.0,0.0,0.0,0.0,0.0,0.0,0.0,0.0,0.0,0.0,0.0,0.0,0.0,0.0,0.0,0.0,0.0,0.0,0.0,0.0,0.0,0.0,0.0,0.0,0.0,0.0,0.0,0.0,0.0,0.0,0.0,0.0,0.0,0.0,0.0,0.0,0.0,0.0,0.0,0.0,0.0,0.0,0.0,0.0,0.0,0.0,0.0,0.0,0.0,0.0,0.0,0.0,0.0,0.0,0.0,0.0,0.0,0.0,0.0,0.0,0.0,0.0,0.0,0.0,0.0,0.0,0.0,0.0,0.0,0.0,0.0,0.0,0.0,0.0,0.0,0.0,0.0,0.0,0.0,0.0,0.0,0.0,0.0,0.0,0.0,0.0,0.0,0.0,0.0,0.0,0.0,0.0,0.0,0.0,0.0,0.0,0.0,0.0,0.0,-4.681,-4.8704,-4.889,-4.889,-4.889,-4.889,-4.7516,-4.5918,-4.4098,-4.1089,0.0,0.0,0.0,0.0,0.0,0.0,0.0,0.0,0.0,0.0,0.0,0.0,0.0,0.0,0.0,0.0,0.0,0.0,0.0,0.0,0.0,0.0,0.0,0.0,0.0,0.0,0.0,0.0,0.0,0.0,0.0,0.0,0.0,0.0,0.0,0.0,0.0,0.0,0.0,0.0,0.0,0.0,0.0,0.0,0.0,0.0,0.0,0.0,0.0,0.0,0.0,0.0,0.0,0.0,0.0,0.0,0.0,0.0,0.0,0.0,0.0,0.0,0.0,0.0,0.0,0.0,0.0,0.0,0.0,0.0,0.0,0.0,0.0,0.0,0.0,0.0,0.0,0.0,0.0,0.0,0.0,0.0,0.0,0.0,0.0,0.0,0.0,0.0,0.0,0.0,0.0,0.0,0.0,0.0,0.0,0.0,0.0,0.0,0.0,0.0,0.0,0.0,-4.5843,-4.7621,0.0,-4.884,-4.8857,-4.889,-4.7887,-4.6104,-4.3429,0.0,0.0,0.0,0.0,0.0,0.0,0.0,0.0,0.0,0.0,0.0,0.0,0.0,0.0,0.0,0.0,0.0,0.0,0.0,0.0,0.0,0.0,0.0,0.0,0.0,0.0,0.0,0.0,0.0,0.0,0.0,0.0,0.0,0.0,0.0,0.0,0.0,0.0,0.0,0.0,0.0,0.0,0.0,0.0,0.0,0.0,0.0,0.0,0.0,0.0,0.0,0.0,0.0,0.0,0.0,0.0,0.0,0.0,0.0,0.0,0.0,0.0,0.0,0.0,0.0,0.0,0.0,0.0,0.0,0.0,0.0,0.0,0.0,0.0,0.0,0.0,0.0,0.0,0.0,0.0,0.0,0.0,0.0,0.0,0.0,0.0,0.0,0.0,0.0,0.0,0.0,0.0,0.0,0.0,0.0,0.0,0.0,0.0,0.0,0.0,0.0,0.0,-4.3627,-4.589,-4.77,0.0,-4.8769,-4.8822,-4.8838,-4.7684,-4.5732,-4.2983,0.0,0.0,0.0,0.0,0.0,0.0,0.0,0.0,0.0,0.0,0.0,0.0,0.0,0.0,0.0,0.0,0.0,0.0,0.0,0.0,0.0,0.0,0.0,0.0,0.0,0.0,0.0,0.0,0.0,0.0,0.0,0.0,0.0,0.0,0.0,0.0,0.0,0.0,0.0,0.0,0.0,0.0,0.0,0.0,0.0,0.0,0.0,0.0,0.0,0.0,0.0,0.0,0.0,0.0,0.0,0.0,0.0,0.0,0.0,0.0,0.0,0.0,0.0,0.0,0.0,0.0,0.0,0.0,0.0,0.0,0.0,0.0,0.0,0.0,0.0,0.0,0.0,0.0,0.0,0.0,0.0,0.0,0.0,0.0,0.0,0.0,0.0,0.0,0.0,0.0,0.0,0.0,0.0,0.0,0.0,0.0,0.0,0.0,0.0,0.0,0.0,0.0,-4.3677,-4.7295,-4.9473,-4.8679,-4.8733,-4.8787,-4.8787,-4.6648,-4.4581,0.0,0.0,0.0,0.0,0.0,0.0,0.0,0.0,0.0,0.0,0.0,0.0,0.0,0.0,0.0,0.0,0.0,0.0,0.0,0.0,0.0,0.0,0.0,0.0,0.0,0.0,0.0,0.0,0.0,0.0,0.0,0.0,0.0,0.0,0.0,0.0,0.0,0.0,0.0,0.0,0.0,0.0,0.0,0.0,0.0,0.0,0.0,0.0,0.0,0.0,0.0,0.0,0.0,0.0,0.0,0.0,0.0,0.0,0.0,0.0,0.0,0.0,0.0,0.0,0.0,0.0,0.0,0.0,0.0,0.0,0.0,0.0,0.0,0.0,0.0,0.0,0.0,0.0,0.0,0.0,0.0,0.0,0.0,0.0,0.0,0.0,0.0,0.0,0.0,0.0,0.0,0.0,0.0,0.0,0.0,0.0,0.0,0.0,0.0,0.0,0.0,0.0,0.0,-4.3467,-4.6617,-4.8678,-4.8532,-4.8569,-4.8606,-4.866,-4.6977,-4.4753,-4.2001,0.0,0.0,0.0,0.0,0.0,0.0,0.0,0.0,0.0,0.0,0.0,0.0,0.0,0.0,0.0,0.0,0.0,0.0,0.0,0.0,0.0,0.0,0.0,0.0,0.0,0.0,0.0,0.0,0.0,0.0,0.0,0.0,0.0,0.0,0.0,0.0,0.0,0.0,0.0,0.0,0.0,0.0,0.0,0.0,0.0,0.0,0.0,0.0,0.0,0.0,0.0,0.0,0.0,0.0,0.0,0.0,0.0,0.0,0.0,0.0,0.0,0.0,0.0,0.0,0.0,0.0,0.0,0.0,0.0,0.0,0.0,0.0,0.0,0.0,0.0,0.0,0.0,0.0,0.0,0.0,0.0,0.0,0.0,0.0,0.0,0.0,0.0,0.0,0.0,0.0,0.0,0.0,0.0,0.0,0.0,0.0,0.0,0.0,0.0,0.0,0.0,0.0,-4.3345,-4.6654,-4.8729,-4.8456,-4.8457,-4.8513,-4.855,-4.711,-4.4818,-4.1576,0.0,0.0,0.0,0.0,0.0,0.0,0.0,0.0,0.0,0.0,0.0,0.0,0.0,0.0,0.0,0.0,0.0,0.0,0.0,0.0,0.0,0.0,0.0,0.0,0.0,0.0,0.0,0.0,0.0,0.0,0.0,0.0,0.0,0.0,0.0,0.0,0.0,0.0,0.0,0.0,0.0,0.0,0.0,0.0,0.0,0.0,0.0,0.0,0.0,0.0,0.0,0.0,0.0,0.0,0.0,0.0,0.0,0.0,0.0,0.0,0.0,0.0,0.0,0.0,0.0,0.0,0.0,0.0,0.0,0.0,0.0,0.0,0.0,0.0,0.0,0.0,0.0,0.0,0.0,0.0,0.0,0.0,0.0,0.0,0.0,0.0,0.0,0.0,0.0,0.0,0.0,0.0,0.0,0.0,0.0,0.0,0.0,0.0,0.0,0.0,0.0,0.0,-4.3277,-4.7003,-4.9187,-4.8379,-4.8419,-4.8476,-4.8476,-4.7057,-4.4821,-4.1609,0.0,0.0,0.0,0.0,0.0,0.0,0.0,0.0,0.0,0.0,0.0,0.0,0.0,0.0,0.0,0.0,0.0,0.0,0.0,0.0,0.0,0.0,0.0,0.0,0.0,0.0,0.0,0.0,0.0,0.0,0.0,0.0,0.0,0.0,0.0,0.0,0.0,0.0,0.0,0.0,0.0,0.0,0.0,0.0,0.0,0.0,0.0,0.0,0.0,0.0,0.0,0.0,0.0,0.0,0.0,0.0,0.0,0.0,0.0,0.0,-4.7131,-4.7257,0.0,0.0,0.0,0.0,0.0,0.0,0.0,0.0,0.0,0.0,0.0,0.0,0.0,0.0,0.0,0.0,0.0,0.0,0.0,0.0,0.0,0.0,0.0,0.0,0.0,0.0,0.0,0.0,0.0,0.0,0.0,0.0,0.0,0.0,0.0,0.0,0.0,0.0,0.0,0.0,-4.3221,-4.6471,-4.8526,-4.8343,-4.8325,-4.8325,-4.8325,-4.6893,-4.487,-4.2345,-3.9289,0.0,0.0,0.0,0.0,0.0,0.0,0.0,0.0,0.0,0.0,0.0,0.0,0.0,0.0,0.0,0.0,0.0,0.0,0.0,0.0,0.0,0.0,0.0,0.0,0.0,0.0,0.0,0.0,0.0,0.0,0.0,0.0,0.0,0.0,0.0,0.0,0.0,0.0,0.0,0.0,0.0,0.0,0.0,0.0,0.0,0.0,0.0,0.0,0.0,0.0,0.0,0.0,0.0,0.0,0.0,0.0,0.0,0.0,0.0,-4.7132,-4.6947,0.0,0.0,0.0,0.0,0.0,0.0,0.0,0.0,0.0,0.0,0.0,0.0,0.0,0.0,0.0,0.0,0.0,0.0,0.0,0.0,0.0,0.0,0.0,0.0,0.0,0.0,0.0,0.0,0.0,0.0,0.0,0.0,0.0,0.0,0.0,0.0,0.0,0.0,0.0,0.0,-4.3184,-4.6324,-4.8306,-4.8306,-4.8306,-4.8306,-4.8306,-4.6838,-4.5057,-4.3034,-3.9911,0.0,0.0,0.0,0.0,0.0,0.0,0.0,0.0,0.0,0.0,0.0,0.0,0.0,0.0,0.0,0.0,0.0,0.0,0.0,0.0,0.0,0.0,0.0,0.0,0.0,0.0,0.0,0.0,0.0,0.0,0.0,0.0,0.0,0.0,0.0,0.0,0.0,0.0,0.0,0.0,0.0,0.0,0.0,0.0,0.0,0.0,0.0,0.0,0.0,0.0,0.0,0.0,0.0,-4.7663,-4.8067,-4.8746,-4.8746,-4.9114,-4.9721,-4.7645,-4.7022,-4.7427,-4.6782,0.0,0.0,0.0,0.0,0.0,0.0,0.0,0.0,0.0,0.0,0.0,0.0,0.0,0.0,0.0,0.0,0.0,0.0,0.0,0.0,0.0,0.0,-4.3277,-4.3791,-4.4415,-4.3808,-3.9721,0.0,0.0,0.0,0.0,0.0,0.0,0.0,0.0,0.0,0.0,0.0,-4.3387,-4.6397,-4.8306,-4.8306,-4.8306,-4.8306,-4.8306,-4.6838,-4.5259,-4.3791,-4.0818,-3.8469,0.0,0.0,0.0,0.0,0.0,0.0,0.0,0.0,0.0,0.0,0.0,0.0,0.0,0.0,0.0,0.0,0.0,0.0,0.0,0.0,0.0,0.0,0.0,0.0,0.0,0.0,0.0,0.0,0.0,0.0,0.0,0.0,-5.1756,-5.1977,0.0,0.0,0.0,0.0,0.0,0.0,0.0,0.0,0.0,0.0,0.0,0.0,0.0,-4.7259,-4.7976,-4.871,-4.9133,-4.9187,-4.9958,-5.0362,-5.0472,-5.0472,-5.0545,-5.0618,-5.0288,0.0,-4.8178,-4.8068,0.0,0.0,0.0,0.0,0.0,0.0,0.0,0.0,0.0,0.0,0.0,0.0,0.0,0.0,0.0,0.0,0.0,0.0,0.0,0.0,0.0,0.0,-4.6305,-4.5736,-4.5663,-4.5369,-4.4048,-4.2927,-4.1385,-3.8726,-3.8469,-3.783,0.0,0.0,0.0,0.0,0.0,0.0,-4.4232,-4.6728,-4.8306,-4.8306,-4.8306,-4.8306,-4.8306,-4.6838,-4.5516,-4.4599,-4.2159,-4.0377,-3.946,-3.711,0.0,0.0,0.0,0.0,0.0,0.0,0.0,0.0,0.0,0.0,0.0,0.0,0.0,0.0,0.0,0.0,0.0,0.0,0.0,0.0,0.0,0.0,0.0,0.0,0.0,0.0,0.0,0.0,0.0,-5.205,-5.3004,-5.2087,-5.1683,-5.1132,0.0,0.0,0.0,0.0,0.0,0.0,0.0,0.0,0.0,-4.8526,-4.8489,-4.8857,-4.9701,-5.0068,-5.0472,-5.0912,-5.1279,-5.172,-5.216,-5.216,-5.216,-5.216,-5.216,-5.1499,-5.0251,-4.8857,-4.7406,-4.5938,0.0,0.0,0.0,0.0,-4.4359,-4.3936,-4.5644,-4.5883,-4.5333,-4.4048,0.0,0.0,0.0,0.0,0.0,0.0,0.0,-4.4268,-4.4709,-4.5993,-4.7113,-4.7241,-4.7241,-4.7168,-4.6801,-4.581,-4.4141,-4.1295,-4.1075,-4.0341,-3.6964,-3.6765,0.0,0.0,0.0,-4.3167,-4.5112,-4.7095,-4.8306,-4.8306,-4.8306,-4.8306,-4.8306,-4.6838,-4.5736,-4.5406,-4.313,-4.1625,-4.1258,-3.935,-3.7514,0.0,0.0,0.0,0.0,0.0,0.0,0.0,0.0,0.0,0.0,0.0,0.0,0.0,0.0,0.0,0.0,0.0,0.0,0.0,0.0,0.0,0.0,0.0,0.0,0.0,0.0,0.0,0.0,-5.2894,-5.3812,-5.2197,-5.2344,-5.1903,0.0,0.0,0.0,0.0,0.0,0.0,-4.9884,-5.0472,-5.0932,-5.1116,-5.0875,-5.1059,-5.172,-5.1536,-5.172,-5.2307,-5.2307,-5.2637,-5.3203,-5.3203,-5.3203,-5.3203,-5.3203,-5.2858,-5.216,-5.0105,-4.8636,-4.7645,-4.6397,-4.5443,-4.4892,-4.6324,-4.6471,-4.625,-4.8269,-4.8416,-4.7535,-4.6361,-4.5516,-4.4672,-4.2856,0.0,0.0,0.0,0.0,-4.5498,-4.6324,-4.6985,-4.7553,-4.8159,-4.8306,-4.8306,-4.8306,-4.781,-4.6562,-4.3791,-4.3534,-4.2727,-3.9328,-3.9203,0.0,-3.99,0.0,-4.4378,-4.5993,-4.7425,-4.8306,-4.8306,-4.8306,-4.8233,-4.8012,-4.6728,-4.581,-4.5626,-4.3718,-4.2616,-4.2616,-4.1258,-3.946,-3.7257,0.0,0.0,0.0,0.0,0.0,0.0,0.0,0.0,0.0,0.0,0.0,0.0,0.0,0.0,0.0,0.0,0.0,0.0,0.0,0.0,0.0,0.0,0.0,0.0,0.0,0.0,0.0,0.0,0.0,-5.2197,-5.3335,0.0,0.0,0.0,0.0,-5.1756,-5.183,-5.2527,-5.3995,-5.4142,-5.4509,-5.5265,-5.4546,-5.4179,-5.4216,-5.3482,-5.3093,-5.3151,-5.3151,-5.3188,-5.3203,-5.3203,-5.3203,-5.3203,-5.3203,-5.3167,-5.3057,-5.216,-5.0896,-4.9463,-4.9297,-4.8783,-4.8159,-4.9096,-4.939,-4.95,-5.0362,-5.0141,-4.9463,-4.939,-4.7774,-4.581,-4.57,-4.5149,0.0,0.0,-4.6324,-4.7149,-4.7957,-4.8233,-4.8269,-4.8306,-4.8306,-4.8306,-4.8306,-4.8269,-4.7755,-4.6067,-4.5149,-4.4085,-4.2359,0.0,-4.2396,-4.313,-4.4048,-4.5205,-4.6819,-4.7792,-4.8306,-4.8306,-4.8306,-4.7993,-4.7223,-4.6397,-4.5553,-4.4801,-4.3938,-4.3441,-4.3441,-4.2616,-4.1405,-3.9753,-3.7367,0.0,0.0,0.0,0.0,0.0,0.0,0.0,0.0,0.0,0.0,0.0,0.0,0.0,0.0,0.0,0.0,0.0,0.0,0.0,0.0,0.0,0.0,0.0,0.0,0.0,0.0,0.0,0.0,-5.4436,-5.5721,0.0,-5.3335,-5.3115,-5.3004,-5.2784,-5.3261,-5.3775,-5.4363,-5.539,-5.6088,-5.6345,-5.5574,-5.517,-5.517,-5.3849,-5.3203,-5.3203,-5.3203,-5.3203,-5.3203,-5.3203,-5.3203,-5.3203,-5.3203,-5.3203,-5.3167,-5.2894,-5.2123,-5.1116,-5.0545,-5.0178,-4.9958,-5.0251,-5.0362,-5.0398,-5.0692,-5.0251,-4.9444,-4.893,-4.8159,-4.7462,-4.7462,-4.7241,-4.7095,-4.7352,-4.7645,-4.792,-4.8233,-4.8306,-4.8306,-4.8306,-4.8306,-4.8306,-4.8306,-4.8306,-4.8122,-4.7572,-4.6782,-4.5718,-4.4121,-4.4268,-4.4525,-4.4305,-4.5406,-4.6636,-4.7736,-4.8122,-4.8306,-4.8306,-4.8306,-4.7957,-4.7186,-4.6361,-4.5553,-4.4728,-4.3938,-4.3515,-4.3515,-4.2727,-4.1552,-3.9937,-3.8043,-3.5605,0.0,0.0,0.0,0.0,0.0,0.0,0.0,0.0,0.0,0.0,0.0,0.0,0.0,0.0,0.0,0.0,0.0,0.0,0.0,0.0,0.0,0.0,0.0,0.0,0.0,0.0,-5.6895,-5.6088,-5.7666,-5.785,-5.5427,-5.5207,-5.5097,-5.484,-5.506,-5.5464,-5.6014,-5.7042,-5.7629,-5.7629,-5.6565,-5.5868,-5.5596,-5.3995,-5.3203,-5.3203,-5.3203,-5.3203,-5.3203,-5.3203,-5.3203,-5.3203,-5.3203,-5.3203,-5.3203,-5.3203,-5.2894,-5.2344,-5.183,-5.161,-5.161,-5.161,-5.161,-5.1536,-5.0986,-5.0435,-4.9774,-4.8673,-4.8306,-4.8306,-4.8306,-4.8306,-4.8306,-4.8306,-4.8306,-4.8306,-4.8306,-4.8306,-4.8306,-4.8306,-4.8306,-4.8306,-4.8306,-4.8306,-4.8306,-4.8306,-4.7846,-4.7149,-4.6085,-4.6361,-4.6544,-4.5975,-4.6819,-4.77,-4.8233,-4.8306,-4.8306,-4.8306,-4.8306,-4.7846,-4.6782,-4.5957,-4.5149,-4.4342,-4.3277,-4.28,-4.3057,-4.2323,-4.1148,-3.9533,-3.7624,-3.5605,-3.3426,0.0,0.0,0.0,0.0,0.0,0.0,0.0,0.0,0.0,0.0,0.0,0.0,0.0,0.0,0.0,0.0,0.0,0.0,0.0,0.0,0.0,0.0,0.0,-5.4473,-5.6565,-5.7813,-5.7042,-5.9061,-5.9538,-5.7189,-5.6932,-5.7226,-5.7997,-5.7299,-5.7519,-5.9074,-5.9184,-5.9184,-5.9184,-5.7666,-5.6455,-5.5669,-5.4032,-5.3203,-5.3203,-5.3203,-5.3203,-5.3203,-5.3203,-5.3203,-5.3203,-5.3203,-5.3203,-5.3203,-5.3203,-5.3203,-5.3203,-5.3203,-5.3203,-5.3203,-5.3203,-5.3203,-5.2968,-5.1353,-5.0802,-5.0508,-4.8857,-4.8306,-4.8306,-4.8306,-4.8306,-4.8306,-4.8306,-4.8306,-4.8306,-4.8306,-4.8306,-4.8306,-4.8306,-4.8306,-4.8306,-4.8306,-4.8306,-4.8306,-4.8306,-4.8306,-4.8306,-4.8306,-4.8306,-4.8306,-4.8306,-4.8306,0.0,-4.8306,-4.8306,-4.8306,-4.8306,-4.8306,-4.7645,-4.603,-4.5186,-4.4378,-4.3515,-4.1992,-4.1462,-4.2249,-4.1499,-4.0325,-3.8726,-3.6288,-3.5041,-3.5041,0.0,0.0,0.0,0.0,0.0,0.0,0.0,0.0,0.0,0.0,0.0,0.0,0.0,0.0,0.0,0.0,0.0,0.0,0.0,0.0,0.0,-5.4069,-5.5464,-5.6051,-5.8217,-5.9869,-6.0236,-6.1374,-6.1667,-6.0382,-5.9758,-5.9281,-5.8914,-5.8143,-5.785,-5.8327,-5.8854,-5.9184,-5.9184,-5.8217,-5.7262,-5.6492,-5.4876,-5.3775,-5.3203,-5.3203,-5.3203,-5.3203,-5.3203,-5.3203,-5.3203,-5.3203,-5.3203,-5.3203,-5.3203,-5.3203,-5.3203,-5.3203,-5.3203,-5.3203,-5.3203,-5.3203,-5.2968,-5.1353,-5.0802,-5.0508,-4.8857,-4.8306,-4.8306,-4.8306,-4.8306,-4.8306,-4.8306,-4.8306,-4.8306,-4.8306,-4.8306,-4.8306,-4.8306,-4.8306,-4.8306,-4.8306,-4.8306,-4.8306,-4.8306,-4.8306,-4.8306,-4.8306,-4.8306,-4.8306,-4.8306,-4.8306,0.0,-4.8306,-4.8306,-4.8306,-4.8306,-4.8306,-4.7645,-4.603,-4.57,-4.4745,-4.2763,-4.2213,-4.1809,-4.1425,-4.0671,-3.9753,-3.8726,-3.689,-3.5936,0.0,0.0,0.0,0.0,0.0,0.0,0.0,0.0,0.0,0.0,0.0,0.0,0.0,0.0,0.0,0.0,0.0,0.0,0.0,0.0,0.0,0.0,-5.6051,-5.7629,-5.9134,-6.0529,-6.1704,-6.2548,-6.3062,-6.3025,-6.2181,-6.108,-6.0236,-5.9758,-5.8657,-5.7997,-5.7997,-5.8437,-5.8694,-5.8694,-5.7923,-5.7116,-5.6308,-5.5023,-5.3995,-5.3203,-5.3203,-5.3203,-5.3203,-5.3203,-5.3203,-5.3203,-5.3203,-5.3203,-5.3203,-5.3203,-5.3203,-5.3203,0.0,0.0,0.0,0.0,-5.3004,-5.2527,-5.1242,-5.0582,-5.0068,-4.8746,-4.8306,-4.8306,-4.8306,-4.8306,-4.8306,-4.8306,-4.8306,-4.8306,-4.8306,-4.8306,-4.8306,-4.8306,-4.8306,-4.8306,-4.8306,-4.8306,-4.8306,-4.8306,-4.8306,0.0,-4.8306,-4.8306,-4.8306,-4.8306,-4.8306,-4.8306,-4.8306,-4.8306,-4.8306,-4.8306,-4.8306,-4.7645,-4.603,-4.559,0.0,0.0,0.0,-4.0928,-4.012,-3.9313,0.0,0.0,0.0,0.0,0.0,0.0,0.0,0.0,-3.7184,-3.7162,0.0,0.0,0.0,0.0,0.0,0.0,0.0,0.0,0.0,0.0,0.0,0.0,0.0,0.0,0.0,0.0,-5.8414,-6.0322,-6.2743,-6.3074,-6.3356,-6.4016,-6.4016,-6.3649,-6.2879,-6.1447,-6.0493,-6.0419,-5.8988,-5.8107,-5.7997,-5.7997,0.0,0.0,0.0,-5.6528,-5.5633,-5.4876,-5.4106,-5.3203,-5.3203,-5.3203,-5.3203,-5.3203,-5.3203,-5.3203,-5.3203,-5.3203,-5.3203,-5.3203,-5.3203,-5.3203,-5.3203,-5.3203,-5.3203,-5.3203,-5.2747,-5.2013,-5.1096,0.0,0.0,-4.86,-4.8306,-4.8306,-4.8306,-4.8306,-4.8306,-4.8306,-4.8306,-4.8306,-4.8306,-4.8306,-4.8306,-4.8306,-4.8306,-4.8306,-4.8306,-4.8306,-4.8306,-4.8306,-4.8306,-4.8306,-4.8306,-4.8306,-4.8306,-4.8306,-4.8306,-4.8306,-4.8306,-4.8306,-4.8306,-4.8306,0.0,0.0,-4.6177,-4.5296,-4.4452,-4.3551,-4.1332,-3.9717,-3.9019,-3.8285,-3.8594,-4.001,-3.9423,-3.9827,-4.1242,-4.2139,-4.258,-4.2506,-3.9549,-3.8998,0.0,0.0,0.0,0.0,0.0,0.0,0.0,0.0,0.0,0.0,0.0,0.0,0.0,0.0,0.0,-5.834,-6.0089,-6.1998,-6.4494,-6.4824,-6.464,-6.4163,-6.3466,-6.2989,-6.2817,-6.1924,-6.108,-6.0456,-5.9501,-5.8694,-5.8033,-5.7997,-5.7997,-5.7997,-5.785,-5.7079,-5.5611,-5.5427,-5.462,-5.3203,-5.3203,0.0,-5.3203,-5.3203,-5.3203,-5.3203,-5.3203,-5.3203,-5.3203,-5.3203,-5.3203,-5.3203,-5.3203,-5.3203,-5.3203,-5.3203,-5.3093,-5.2784,-5.1316,-5.0692,-5.0325,-4.8783,-4.8306,-4.8306,-4.8306,-4.8306,0.0,-4.8306,-4.8306,-4.8306,-4.8306,-4.8306,-4.8306,-4.8306,-4.8306,-4.8306,-4.8306,-4.8306,-4.8306,-4.8306,-4.8306,-4.8306,-4.8306,-4.8306,-4.8306,-4.8306,-4.8306,-4.8306,-4.8306,-4.8306,-4.8306,-4.8306,-4.8306,-4.7883,-4.6929,-4.614,-4.5039,-4.3588,-4.1846,-4.0802,-4.0618,-4.0487,-4.0561,-4.0838,-4.1368,-4.1772,-4.2066,-4.3534,-4.4214,-4.4232,-4.291,-4.2837,0.0,0.0,0.0,0.0,0.0,0.0,0.0,0.0,0.0,0.0,0.0,-5.4656,-5.5464,0.0,-5.8657,-6.0652,-6.2034,-6.3576,-6.5595,-6.5228,-6.4714,-6.4714,-6.3943,-6.3282,-6.2842,-6.2071,-6.1263,-6.0456,-5.9625,-5.8877,-5.8033,-5.7997,-5.7997,-5.7997,-5.7997,-5.7226,-5.5611,-5.5596,-5.4803,-5.3203,-5.3203,-5.3203,-5.3203,-5.3203,-5.3203,-5.3203,-5.3203,-5.3203,-5.3203,-5.3203,-5.3203,-5.3203,-5.3203,-5.3203,-5.3203,-5.3203,-5.2968,-5.2491,-5.1683,-5.1132,-5.0618,-4.9334,-4.893,-4.8857,-4.8416,-4.8306,-4.8306,-4.8306,-4.8306,-4.8306,-4.8306,-4.8306,-4.8306,-4.8306,-4.8306,-4.8306,-4.8306,-4.8306,-4.8306,-4.8306,-4.8306,-4.8306,-4.8306,-4.8306,-4.8306,-4.8306,-4.8306,-4.8306,-4.8306,-4.8306,-4.8306,-4.8306,-4.8306,-4.7957,-4.7186,-4.5975,-4.4782,-4.3588,-4.2359,-4.1499,-4.1132,-4.1095,-4.1279,-4.1682,-4.2506,-4.3094,-4.3497,-4.5131,-4.5902,-4.5902,-4.592,-4.592,0.0,0.0,0.0,0.0,0.0,0.0,0.0,0.0,-5.3628,-5.5244,-5.6198,-5.7189,-5.8657,-6.0126,-6.1594,-6.3037,-6.4016,-6.5007,-6.6329,-6.5375,-6.4751,-6.5264,-6.4457,-6.3649,-6.3099,-6.2181,-6.1337,-6.0676,-5.9758,-5.8877,-5.8033,-5.7997,-5.7997,-5.7997,-5.785,-5.7079,-5.5611,-5.5427,-5.462,-5.3203,-5.3203,-5.3203,-5.3203,-5.3203,-5.3203,-5.3203,-5.3203,-5.3203,-5.3203,-5.3203,-5.3203,-5.3203,-5.3203,-5.3203,-5.3203,-5.3203,-5.2784,-5.2197,-5.205,-5.1463,-5.0692,-5.0051,-4.961,-4.9243,-4.871,-4.8416,-4.8306,-4.8306,-4.8306,-4.8306,-4.8306,-4.8306,-4.8306,-4.8306,-4.8306,-4.8306,-4.8306,-4.8306,-4.8306,-4.8306,-4.8306,-4.8306,-4.8306,-4.8306,-4.8306,-4.8306,-4.8306,-4.8306,-4.8306,-4.8306,-4.8306,-4.8306,-4.8306,-4.7957,-4.7186,-4.5902,-4.4819,-4.4011,-4.3351,-4.2619,-4.1728,-4.1821,-4.2114,-4.266,-4.3576,-4.4454,-4.5168,-4.6636,-4.7333,-4.7333,-4.8012,-4.7976,-5.4216,-5.2491,-5.1389,-5.2637,-5.3004,-5.3974,0.0,0.0,-5.7776,-5.9391,-6.0382,-6.119,-6.2108,-6.3025,-6.398,-6.4897,-6.5705,-6.6292,-6.6476,-6.6329,-6.5999,-6.5375,-6.3906,-6.3209,-6.387,-6.2511,-6.1557,-6.1484,-6.0052,-5.8877,-5.8033,-5.7997,-5.7997,-5.7997,-5.7299,-5.6492,-5.5633,-5.4876,-5.4106,-5.3203,-5.3203,-5.3203,-5.3203,-5.3203,-5.3203,-5.3203,-5.3203,-5.3203,-5.3203,-5.3203,-5.3203,-5.3203,-5.3203,-5.3203,-5.3203,-5.3203,-5.313,-5.2968,-5.2234,-5.1463,-5.0802,-5.0692,-4.9664,-4.8563,-4.9243,-4.8893,-4.8306,-4.8306,-4.8306,-4.8306,-4.8306,-4.8306,-4.8306,-4.8306,-4.8306,-4.8306,-4.8306,-4.8306,-4.8306,-4.8306,-4.8306,-4.8306,-4.8306,-4.8306,-4.8306,-4.8306,-4.8306,-4.8306,-4.8306,-4.8306,-4.8306,-4.8306,-4.8306,-4.7957,-4.7186,-4.6929,-4.6489,-4.5663,-4.5553,-4.4967,-4.3792,-4.4406,-4.4479,-4.3901,-4.5332,-4.6345,-4.6819,-4.7736,-4.8196,-4.8196,-4.8269,-4.8269,-5.6014,-5.506,0.0,0.0,-5.6345,-5.796,-6.0126,-6.0346,-6.0566,-6.2218,-6.2805,-6.3282,-6.4127,-6.4934,-6.5595,0.0,-6.6659,-6.7173,-6.7173,-6.6402,-6.5521,-6.4714,-6.3135,-6.2438,-6.3282,-6.2732,-6.1924,-6.097,-5.9832,-5.8877,-5.8033,-5.7997,-5.7997,-5.7997,-5.7666,-5.6895,-5.5633,-5.5244,-5.4473,-5.3203,-5.3203,-5.3203,-5.3203,-5.3203,-5.3203,-5.3203,-5.3203,-5.3203,-5.3203,-5.3203,-5.3203,-5.3203,-5.3203,-5.3203,-5.3203,-5.3203,-5.3203,-5.3078,-5.227,-5.1756,-5.1353,-5.0398,-4.9627,-4.9003,-4.8893,-4.86,-4.8306,-4.8306,-4.8306,-4.8306,-4.8306,-4.8306,-4.8306,-4.8306,-4.8306,-4.8306,-4.8306,-4.8306,-4.8306,-4.8306,-4.8306,-4.8306,-4.8306,-4.8306,-4.8306,-4.8306,-4.8306,-4.8306,-4.8306,-4.8306,-4.8306,-4.8306,-4.8306,-4.8159,-4.781,-4.7369,-4.6835,-4.6239,-4.5763,-4.5131,-4.436,-4.4626,-4.4662,-4.4339,-4.5437,-4.6082,-4.6308,-4.7102,-4.7464,-4.7464,-4.7464,-4.7464,-5.6418,0.0,0.0,-5.735,-5.9281,-6.13,-6.2108,-6.2438,-6.3025,-6.4457,-6.4751,-6.4934,-6.5521,-6.6109,-6.6512,-6.6512,-6.699,-6.7357,-6.7357,-6.6182,-6.4934,-6.387,-6.2475,-6.1741,-6.2108,-6.1961,-6.1447,-6.0493,-5.9465,-5.8621,-5.8033,-5.7997,-5.7997,-5.7997,-5.7556,-5.6785,-5.5633,-5.5133,-5.4363,-5.3203,-5.3203,-5.3203,-5.3203,-5.3203,-5.3203,-5.3203,-5.3203,-5.3203,-5.3203,-5.3203,-5.3203,-5.3203,-5.3203,-5.3203,-5.3203,-5.3203,-5.3203,-5.3078,-5.227,-5.183,-5.1463,-5.0308,-4.9627,-4.915,-4.8783,-4.8489,-4.8306,-4.8306,-4.8306,-4.8306,-4.8306,-4.8306,-4.8306,-4.8306,-4.8306,-4.8306,-4.8306,-4.8306,-4.8306,-4.8306,-4.8306,-4.8306,-4.8306,-4.8306,-4.8306,-4.8306,-4.8306,-4.8306,-4.8306,-4.8306,-4.8306,-4.8306,-4.8306,-4.8306,-4.8306,-4.7773,-4.7292,-4.6941,-4.6255,-4.5616,-4.5065,-4.5128,-4.5128,-4.5043,-4.5686,-4.6145,-4.6406,-4.6851,-4.716,-4.727,-4.727,-4.727,0.0,0.0,-5.7189,-5.8744,-6.0946,-6.2952,-6.3833,-6.464,-6.5411,-6.6256,-6.6439,-6.6439,-6.6476,-6.6476,-6.6512,-6.6512,-6.6512,-6.6549,-6.6549,-6.5815,-6.4714,-6.3062,-6.2108,-6.13,0.0,-5.9795,-5.9588,-6.0346,-5.8914,-5.8033,-5.7997,-5.7997,-5.7997,-5.7997,-5.6492,-5.5669,-5.5596,-5.4069,-5.324,-5.3203,-5.3203,-5.3203,-5.3203,-5.3203,-5.3203,-5.3203,-5.3203,-5.3203,-5.3203,-5.3203,-5.3203,-5.3203,-5.3203,-5.3203,-5.3203,-5.3203,-5.3203,-5.3078,-5.227,-5.1499,-5.0839,-5.0765,-4.9664,-4.8489,-4.9317,-4.8967,-4.8306,-4.8306,-4.8306,-4.8306,-4.8306,-4.8306,-4.8306,-4.8306,-4.8306,-4.8306,-4.8306,-4.8306,-4.8306,-4.8306,-4.8306,-4.8306,-4.8306,-4.8306,-4.8306,-4.8306,-4.8306,-4.8306,-4.8306,-4.8306,-4.8306,-4.8306,-4.8306,-4.8306,-4.8306,-4.8269,-4.825,-4.825,-4.7802,-4.7213,-4.6472,-4.6693,-4.6685,-4.6436,-4.6707,-4.7299,-4.8231,-4.7777,-4.7797,-4.8267,-4.8267,-4.8267,0.0,0.0,-6.0382,-6.2034,-6.387,-6.5485,-6.6292,-6.6696,-6.6953,-6.7247,-6.688,-6.6512,-6.6512,-6.6072,-6.5705,-6.5705,-6.5705,-6.5705,-6.5705,-6.5007,-6.387,-6.2218,-6.1227,0.0,0.0,0.0,0.0,-5.9588,-5.8621,-5.7997,-5.7997,-5.7997,-5.7997,-5.7997,-5.6969,-5.6124,-5.5633,-5.4509,-5.3739,-5.3203,-5.3203,-5.3203,-5.3203,-5.3203,-5.3203,-5.3203,-5.3203,-5.3203,-5.3203,-5.3203,-5.3203,-5.3203,-5.3203,-5.3203,-5.3203,-5.3203,-5.2858,-5.2307,-5.1463,-5.0692,-4.9884,-4.9334,-4.8783,-4.8343,-4.8636,-4.8526,-4.8306,-4.8306,-4.8306,-4.8306,-4.8306,-4.8306,-4.8306,-4.8306,-4.8306,-4.8306,-4.8306,-4.8306,-4.8306,-4.8306,-4.8306,-4.8306,-4.8306,-4.8306,-4.8306,-4.8306,-4.8306,-4.8306,-4.8306,-4.8306,-4.8306,-4.8306,-4.8306,-4.8306,-4.8306,-4.8306,-4.819,-4.7875,-4.7674,-4.7355,-4.6801,-4.6838,-4.6851,-4.6779,-4.6874,-4.7049,-4.7356,-4.7204,-4.7204,-4.7356,-4.7356,-4.7356,-5.9061,-6.086,-6.2879,-6.453,-6.5962,-6.7063,-6.7577,-6.7687,-6.754,-6.6953,-6.6439,-6.5815,-6.4897,-6.409,-6.3759,-6.431,-6.4163,-6.42,-6.4787,-6.3906,-6.2695,-6.1337,-5.9822,-5.8615,0.0,0.0,0.0,-5.8697,-5.822,-5.795,-5.7997,-5.7997,-5.7997,-5.7997,-5.7226,-5.6418,-5.5633,-5.4803,-5.3995,-5.3203,-5.3203,-5.3203,-5.3203,-5.3203,-5.3203,-5.3203,-5.3203,-5.3203,-5.3203,-5.3203,-5.3203,-5.3203,-5.3203,-5.3203,-5.3203,-5.3203,-5.2711,-5.1867,-5.1096,-5.0251,-4.9463,-4.86,-4.8306,-4.8306,-4.8306,-4.8306,-4.8306,-4.8306,-4.8306,-4.8306,-4.8306,-4.8306,-4.8306,-4.8306,-4.8306,-4.8306,-4.8306,-4.8306,-4.8306,-4.8306,-4.8306,-4.8306,-4.8306,-4.8306,-4.8306,-4.8306,-4.8306,-4.8306,-4.8306,-4.8306,-4.8306,-4.8306,-4.8306,-4.8306,-4.8306,-4.8306,-4.8153,-4.7895,-4.7695,-4.7527,-4.7399,-4.7226,-4.7226,-4.7378,-4.7226,-4.7226,-4.7399,-4.7226,-4.7226,-4.7399,-4.7399,-4.7399,-6.108,-6.2952,-6.4604,-6.6182,-6.7136,-6.7687,-6.7687,-6.7614,-6.7136,-6.5558,-6.5154,-6.431,0.0,0.0,-6.0896,-6.234,-6.2071,-6.2218,-6.3796,-6.2658,-6.1374,0.0,0.0,0.0,0.0,0.0,0.0,-5.7713,0.0,-5.7857,-5.7973,-5.7997,-5.7997,-5.7997,-5.7226,-5.6418,-5.5633,-5.4766,-5.3959,-5.3203,-5.3203,-5.3203,-5.3203,-5.3203,-5.3203,-5.3203,-5.3203,-5.3203,-5.3203,-5.3203,-5.3203,-5.3203,-5.3203,-5.3203,-5.3203,-5.3203,-5.2711,-5.1867,-5.1096,-5.0251,-4.9463,-4.86,-4.8306,-4.8306,-4.8306,-4.8306,-4.8306,-4.8306,-4.8306,-4.8306,-4.8306,-4.8306,-4.8306,-4.8306,-4.8306,-4.8306,-4.8306,-4.8306,-4.8306,-4.8306,-4.8306,-4.8306,-4.8306,-4.8306,-4.8306,-4.8306,-4.8306,-4.8306,-4.8306,-4.8306,-4.8306,-4.8306,-4.8306,-4.8306,-4.8306,-4.8306,-4.8306,-4.8306,-4.7895,-4.7854,-4.8287,-4.7895,-4.7854,-4.8287,-4.7838,-4.7838,-4.8306,-4.7838,-4.7838,-4.8306,-4.8306,-4.8306,-6.2952,-6.464,-6.6109,-6.7136,-6.754,-6.7687,-6.7687,-6.6769,-6.5632,-6.4604,-6.2952,-6.108,0.0,0.0,0.0,-6.0138,-6.1447,0.0,-6.3062,-6.2768,0.0,-6.1374,0.0,-5.9638,-5.8653,-5.814,0.0,0.0,-5.7583,-5.7715,-5.7857,-5.7857,-5.7904,-5.7997,-5.7226,-5.6418,-5.5633,-5.4216,-5.3387,-5.3203,-5.3203,-5.3203,-5.3203,-5.3203,-5.3203,-5.3203,-5.3203,-5.3203,-5.3203,-5.3203,-5.3203,-5.3203,-5.3203,-5.3203,-5.3203,-5.3203,-5.2711,-5.1867,-5.1096,-5.0251,-4.9463,-4.86,-4.8306,-4.8306,-4.8306,-4.8306,-4.8306,-4.8306,-4.8306,-4.8306,-4.8306,-4.8306,-4.8306,-4.8306,-4.8306,-4.8306,-4.8306,-4.8306,-4.8306,-4.8306,-4.8306,-4.8306,-4.8306,-4.8306,-4.8306,-4.8306,-4.8306,-4.8306,-4.8306,-4.8306,-4.8306,-4.8306,-4.8306,-4.8306,-4.8306,-4.8306,-4.8306,-4.8306,-4.8209,-4.819,-4.8287,-4.8209,-4.819,-4.8287,-4.819,-4.819,-4.8306,-4.819,-4.819,-4.8306,-4.8306,-4.8306,-6.4714,-6.6072,-6.7136,-6.7577,-6.743,-6.699,-6.6256,-6.5118,-6.3576,-6.1337,-6.0052,0.0,0.0,0.0,0.0,0.0,0.0,0.0,-6.2633,-6.2511,-6.2108,0.0,-6.1042,0.0,-5.9406,-5.9158,-5.8693,0.0,-5.7729,-5.7655,-5.781,-5.7857,-5.7927,-5.7997,-5.7556,-5.6785,-5.5633,-5.3995,-5.3203,-5.3203,-5.3203,-5.3203,-5.3203,-5.3203,-5.3203,-5.3203,-5.3203,-5.3203,-5.3203,-5.3203,-5.3203,-5.3203,-5.3203,-5.3203,-5.3203,-5.3203,-5.2931,-5.2417,-5.161,-5.0802,-4.9921,-4.871,-4.8306,-4.8306,-4.8306,-4.8306,-4.8306,-4.8306,-4.8306,-4.8306,-4.8306,-4.8306,-4.8306,-4.8306,-4.8306,-4.8306,-4.8306,-4.8306,-4.8306,-4.8306,-4.8306,-4.8306,-4.8306,-4.8306,-4.8306,-4.8306,-4.8306,-4.8306,-4.8306,-4.8306,-4.8306,-4.8306,-4.8306,-4.8306,-4.8306,-4.8306,-4.8306,-4.8306,-4.8306,-4.8306,-4.8306,-4.8306,-4.8306,-4.8306,-4.8306,-4.8306,-4.8306,-4.8306,-4.8306,-4.8306,-4.8306,-4.8306,-6.6256,-6.7173,-6.7687,-6.7687,-6.699,-6.5962,-6.442,-6.3099,-6.1092,-5.7409,0.0,-5.6308,-5.3445,-5.4289,-5.5978,-5.7593,0.0,-6.0138,-6.245,-6.2218,-6.1741,-6.1741,-6.0895,-6.0281,-6.0172,-6.0034,-5.9568,-5.866,-5.8117,-5.7801,-5.781,-5.7927,-5.7973,-5.7997,-5.7776,-5.7005,-5.5611,-5.3995,-5.3203,-5.3203,-5.3203,-5.3203,-5.3203,-5.3203,-5.3203,-5.3203,-5.3203,-5.3203,-5.3203,-5.3203,-5.3203,-5.3203,-5.3203,-5.3203,-5.3203,-5.3203,-5.3203,-5.3078,-5.227,-5.1536,-5.0692,-4.9003,-4.8379,-4.8306,-4.8306,-4.8306,-4.8306,-4.8306,-4.8306,-4.8306,-4.8306,-4.8306,-4.8306,-4.8306,-4.8306,-4.8306,-4.8306,-4.8306,-4.8306,-4.8306,-4.8306,-4.8306,-4.8306,-4.8306,-4.8306,-4.8306,-4.8306,-4.8306,-4.8306,-4.8306,-4.8306,-4.8306,-4.8306,-4.8306,-4.8306,-4.8306,-4.8306,-4.8306,-4.8306,-4.8306,-4.8306,-4.8306,-4.8306,-4.8306,-4.8306,-4.8306,-4.8306,-4.8306,-4.8306,-4.8306,-4.8306,-4.8306,-6.7263,-6.7577,-6.7687,-6.7687,-6.6586,-6.5264,-6.431,-6.1374,0.0,0.0,0.0,-5.2674,-5.1426,-5.3078,-5.5133,-5.6748,0.0,0.0,0.0,0.0,-6.2585,0.0,0.0,0.0,0.0,-6.0846,0.0,0.0,-5.8701,-5.8481,-5.7847,-5.7834,-5.7904,-5.7997,-5.6712,-5.5868,-5.5596,-5.3995,-5.3203,-5.3203,-5.3203,-5.3203,-5.3203,-5.3203,-5.3203,-5.3203,-5.3203,-5.3203,-5.3203,-5.3203,-5.3203,-5.3203,-5.3203,-5.3203,-5.3203,-5.3203,-5.3203,-5.3078,-5.227,-5.1903,-5.1499,-4.9904,-4.8893,-4.8306,-4.8306,-4.8306,-4.8306,-4.8306,-4.8306,-4.8306,-4.8306,-4.8306,-4.8306,-4.8306,-4.8306,-4.8306,-4.8306,-4.8306,-4.8306,-4.8306,-4.8306,-4.8306,-4.8306,-4.8306,-4.8306,-4.8306,-4.8306,-4.8306,-4.8306,-4.8306,-4.8306,-4.8306,-4.8306,-4.8306,-4.8306,-4.8306,-4.8306,-4.8306,-4.8306,-4.8306,-4.8306,-4.8306,-4.8306,-4.8306,-4.8306,-4.8306,-4.8306,-4.8306,-4.8306,-4.8306,-4.8306,-4.8306,-6.763,-6.7687,-6.7577,-6.7173,-6.5852,-6.4127,-6.2034,0.0,0.0,0.0,0.0,-5.0986,-4.9738,0.0,0.0,0.0,0.0,0.0,0.0,0.0,0.0,0.0,0.0,0.0,0.0,-6.1787,-6.1262,-6.0136,-5.9835,-5.9163,-5.7847,-5.7881,-5.7927,-5.7997,-5.6859,-5.6235,-5.6235,-5.462,-5.3812,-5.3812,-5.3387,-5.3203,-5.3203,-5.3203,-5.3203,-5.3203,-5.3203,-5.3203,-5.3203,-5.3203,-5.3203,-5.3203,-5.3203,-5.3203,-5.3203,-5.3203,-5.3203,-5.313,-5.2747,-5.2344,-5.1867,-5.1116,-5.0288,-4.9591,-4.9591,-4.9297,-4.893,-4.8967,-4.8636,-4.8306,-4.8306,-4.8306,-4.8306,-4.8306,-4.8306,-4.8306,-4.8306,-4.8306,-4.8306,-4.8306,-4.8306,-4.8306,-4.8306,-4.8306,-4.8306,-4.8306,-4.8306,-4.8306,-4.8306,-4.8306,-4.8306,-4.8306,-4.8306,-4.8306,-4.8306,-4.8306,-4.8306,-4.8306,-4.8306,-4.8306,-4.8306,-4.8306,-4.8306,-4.8306,-4.8306,-4.8306,-4.8306,-4.8306,-4.8306,-4.8306,-4.8306,-4.8306,-6.7573,-6.7594,-6.7557,-6.6696,-6.5154,-6.2952,-5.9685,-5.6932,0.0,0.0,-5.0398,-4.9921,-4.8783,0.0,0.0,0.0,0.0,0.0,0.0,0.0,0.0,0.0,0.0,0.0,0.0,-6.25,0.0,-6.1444,-6.0616,-5.9454,-5.793,-5.795,-5.7997,-5.7997,-5.7226,-5.6822,-5.6822,-5.539,-5.4656,-5.4656,-5.3849,-5.3482,-5.3445,-5.3277,-5.3203,-5.3203,-5.3203,-5.3203,-5.3203,-5.3203,-5.3203,-5.3203,-5.3203,-5.3203,-5.3203,-5.3203,-5.3203,-5.3203,-5.3203,-5.2784,-5.227,-5.227,-5.161,-5.0802,-5.0802,-5.0325,-4.9774,-4.9848,-4.937,-4.882,-4.8636,-4.86,-4.8526,-4.8343,-4.8306,-4.8306,-4.8306,-4.8306,-4.8306,-4.8306,-4.8306,-4.8306,-4.8306,-4.8306,-4.8306,-4.8306,-4.8306,-4.8306,-4.8306,-4.8306,-4.8306,-4.8306,-4.8306,-4.8306,-4.8306,-4.8306,-4.8306,-4.8306,-4.8306,-4.8306,-4.8306,-4.8306,-4.8306,-4.8306,-4.8306,-4.8306,-4.8306,-4.8306,-4.8306,-4.8306,-4.8306,-4.8306,-6.7067,-6.7347,-6.7689,-6.6722,-6.4714,-6.2071,-5.8841,0.0,0.0,-5.0235,-4.9077,-4.871,-4.9353,-4.9684,0.0,0.0,0.0,0.0,0.0,0.0,0.0,0.0,0.0,0.0,0.0,-6.2603,-6.2248,-6.1444,-6.0103,-5.8927,-5.801,-5.7997,-5.7997,-5.7997,-5.7226,-5.6822,-5.6822,-5.5941,-5.5486,-5.5464,-5.4656,-5.4289,-5.4252,-5.3555,-5.3203,-5.3203,-5.3203,-5.3203,-5.3203,-5.3203,-5.3203,-5.3203,-5.3203,-5.3203,-5.3203,-5.3203,-5.3203,-5.3203,-5.3203,-5.313,-5.3115,-5.3115,-5.205,-5.0802,-5.0802,-5.0729,-5.0692,-5.0692,-5.0618,-5.0398,-4.9684,-4.95,-4.928,-4.8489,-4.8306,-4.8306,-4.8306,-4.8306,-4.8306,-4.8306,-4.8306,-4.8306,-4.8306,-4.8306,-4.8306,-4.8306,-4.8306,-4.8306,-4.8306,-4.8306,-4.8306,-4.8306,-4.8306,-4.8306,-4.8306,-4.8306,-4.8306,-4.8306,-4.8306,-4.8306,-4.8306,-4.8306,-4.8306,-4.8306,-4.8306,-4.8306,-4.8306,-4.8306,-4.8306,-4.8306,-4.8306,-4.8306,-6.6724,-6.7274,-6.7542,-6.6135,-6.4273,-6.1851,-5.8143,0.0,-5.2527,-5.0088,-4.8893,-4.8416,-4.8746,-4.882,-4.9554,0.0,-5.2491,-5.3665,-5.6418,0.0,0.0,0.0,0.0,0.0,0.0,0.0,-6.208,-6.0872,-6.0224,-5.9355,-5.807,-5.7997,-5.7997,-5.7997,-5.7703,-5.7519,-5.7519,-5.6712,-5.6308,-5.6308,-5.55,-5.4876,-5.4399,-5.4069,-5.3665,-5.3203,-5.3203,-5.3203,-5.3203,-5.3203,-5.3203,-5.3203,-5.3203,-5.3203,-5.3203,-5.3203,-5.3203,-5.3203,-5.3203,-5.3203,-5.3203,-5.3203,-5.2763,-5.2234,-5.2234,-5.1903,-5.1499,-5.1499,-5.1169,-5.0729,-5.0398,-4.9978,-4.939,-4.8526,-4.8306,-4.8306,-4.8306,-4.8306,-4.8306,-4.8306,-4.8306,-4.8306,-4.8306,-4.8306,-4.8306,-4.8306,-4.8306,-4.8306,-4.8306,-4.8306,-4.8306,-4.8306,-4.8306,-4.8306,-4.8306,-4.8306,-4.8306,-4.8306,-4.8306,-4.8306,-4.8306,-4.8306,-4.8306,-4.8306,-4.8306,-4.8306,-4.8306,-4.8306,-4.8306,-4.8306,-4.8306,-4.8306,-6.6272,-6.6824,-6.6931,-6.5698,-6.3711,-6.1117,0.0,0.0,-5.216,-4.9701,-4.871,-4.8306,-4.8306,-4.8306,-4.8783,0.0,-5.0839,-5.1903,-5.4106,0.0,0.0,0.0,0.0,-6.0213,0.0,-6.2448,-6.2045,-6.0529,-6.0419,-5.9722,-5.807,-5.7997,-5.7997,-5.7997,-5.7997,-5.7997,-5.7997,-5.7446,-5.7152,-5.7152,-5.6345,-5.5537,-5.473,-5.4509,-5.3959,-5.3203,-5.3203,-5.3203,-5.3203,-5.3203,-5.3203,-5.3203,-5.3203,-5.3203,-5.3203,-5.3203,-5.3203,-5.3203,-5.3203,-5.3203,-5.3203,-5.3203,-5.3203,-5.3203,-5.3203,-5.2821,-5.2344,-5.2344,-5.1793,-5.1169,-5.1169,-5.0545,-4.9774,-4.9187,-4.904,-4.904,-4.904,-4.904,-4.8967,-4.8746,-4.8673,-4.86,-4.8343,-4.8306,-4.8306,-4.8306,-4.8306,-4.8306,-4.8306,-4.8306,-4.8306,-4.8306,-4.8306,-4.8306,-4.8306,-4.8306,-4.8306,-4.8306,-4.8306,-4.8306,-4.8306,-4.8306,-4.8306,-4.8306,-4.8306,-4.8306,-4.8306,-4.8306,-4.8306,-4.8306,-4.8306,-4.8306,-6.5605,-6.5767,-6.5681,-6.5531,-6.2941,-5.9575,0.0,-5.376,-5.1316,-4.882,-4.8306,-4.8306,-4.8306,-4.8306,-4.86,-4.9463,-5.0969,-5.2527,-5.4179,-5.5794,0.0,0.0,0.0,-5.8657,-6.0272,-6.1887,-6.2144,-6.0529,-6.0419,0.0,-5.807,-5.7997,-5.7997,-5.7997,-5.7997,-5.7997,-5.7997,-5.7997,-5.7997,-5.796,-5.7189,-5.6381,-5.5537,-5.4766,-5.3959,-5.3203,-5.3203,-5.3203,-5.3203,-5.3203,-5.3203,-5.3203,-5.3203,-5.3203,-5.3203,-5.3203,-5.3203,-5.3203,-5.3203,-5.3203,-5.3203,-5.3203,-5.3203,-5.3203,-5.3203,-5.3167,-5.3188,-5.3188,-5.2601,-5.1977,-5.1977,-5.1389,-5.0802,-5.0765,-5.0765,-5.0765,-5.0765,-5.0765,-5.0545,-4.9757,-4.961,-4.9317,-4.8453,-4.8306,-4.8306,-4.8306,-4.8306,-4.8306,-4.8306,-4.8306,-4.8306,-4.8306,-4.8306,-4.8306,-4.8306,-4.8306,-4.8306,-4.8306,-4.8306,-4.8306,-4.8306,-4.8306,-4.8306,-4.8306,-4.8306,-4.8306,-4.8306,-4.8306,-4.8306,-4.8306,-4.8306,-4.8306,-6.1604,-6.2854,-6.3561,-6.1098,-5.9702,-5.789,-5.4017,-5.2527,-5.1279,-4.882,-4.8306,-4.8306,-4.8306,-4.8306,-4.8967,-5.0932,0.0,0.0,0.0,0.0,0.0,0.0,-5.9612,-6.1484,0.0,0.0,-6.2365,-6.13,-6.0713,-5.9942,-5.8877,-5.829,-5.7997,-5.7997,-5.7997,-5.7997,-5.7997,-5.7997,-5.7997,-5.7997,-5.7189,-5.6381,-5.5596,-5.4766,-5.3959,-5.3203,-5.3203,-5.3203,-5.3203,-5.3203,-5.3203,-5.3203,-5.3203,-5.3203,-5.3203,-5.3203,-5.3203,-5.3203,-5.3203,-5.3203,-5.3203,-5.3203,-5.3203,-5.3203,-5.3203,-5.3203,-5.3203,-5.3203,-5.3041,-5.2711,-5.2123,-5.1793,-5.1463,-5.0949,-5.0802,-5.0802,-5.0802,-5.0802,-5.0729,-5.0472,-4.9978,-4.95,-4.9243,-4.8673,-4.8306,-4.8306,-4.8306,-4.8306,-4.8306,-4.8306,-4.8306,-4.8306,-4.8306,-4.8306,-4.8306,-4.8306,-4.8306,-4.8306,-4.8306,-4.8306,-4.8306,-4.8306,-4.8306,-4.8306,-4.8306,-4.8306,-4.8306,-4.8306,-4.8306,-4.8306,-4.8306,-4.8306,0.0,-6.0396,-6.0973,-5.8807,-5.7516,-5.5919,-5.2732,-5.1557,-5.0545,-4.871,-4.8306,-4.8306,-4.8306,-4.8306,-4.882,-5.0362,-5.1132,0.0,0.0,0.0,0.0,-5.7189,0.0,0.0,0.0,-6.2413,-6.2475,-6.1667,-6.086,-6.0052,-5.9221,-5.8437,-5.7997,-5.7997,-5.7997,-5.7997,-5.7997,-5.7997,-5.7997,-5.7997,-5.7189,-5.6381,-5.5596,-5.4766,-5.3959,-5.3203,-5.3203,-5.3203,0.0,-5.3203,-5.3203,-5.3203,-5.3203,-5.3203,-5.3203,-5.3203,-5.3203,-5.3203,-5.3203,-5.3203,-5.3203,-5.3203,-5.3203,-5.3203,-5.3203,-5.3203,-5.3203,-5.3203,-5.3203,-5.3078,-5.2564,-5.2454,-5.2344,-5.183,-5.172,-5.172,-5.172,-5.172,-5.161,-5.1316,-5.0839,-5.0308,-4.9721,-4.9114,-4.8636,-4.8343,-4.8306,-4.8306,-4.8306,-4.8306,-4.8306,-4.8306,-4.8306,-4.8306,-4.8306,-4.8306,-4.8306,-4.8306,-4.8306,-4.8306,-4.8306,-4.8306,-4.8306,-4.8306,-4.8306,-4.8306,-4.8306,-4.8306,-4.8306,-4.8306,-4.8306,-4.8306,0.0,-5.8085,-5.8008,-5.7839,-5.5954,-5.3723,-5.2087,-5.0639,0.0,-4.8489,-4.8306,-4.8343,-4.8379,-4.8343,-4.8379,-4.8526,0.0,0.0,0.0,-5.4216,0.0,0.0,-5.9648,0.0,-6.0566,-6.1924,-6.2511,-6.1741,-6.0896,-6.0089,-5.9331,-5.8474,-5.7997,-5.7997,-5.7997,-5.7997,-5.7997,-5.7997,-5.796,-5.7886,-5.7116,-5.6308,-5.5486,-5.4693,-5.3922,-5.3203,-5.3203,-5.3203,-5.3203,-5.3203,-5.3203,-5.3203,-5.3203,-5.3203,-5.3203,-5.3203,-5.3203,-5.3203,-5.3203,-5.3203,-5.3203,-5.3203,-5.3203,-5.3203,-5.3203,-5.3203,-5.3203,-5.3203,-5.3203,-5.3203,-5.3203,-5.3203,-5.3203,-5.3203,-5.3203,-5.3203,-5.3203,-5.3203,-5.3004,-5.2234,-5.205,-5.1557,-5.0051,-4.9664,-4.9334,-4.86,-4.8489,-4.8489,-4.8489,-4.8489,-4.8489,-4.8489,-4.8416,-4.8379,-4.8379,-4.8343,-4.8306,-4.8306,-4.8306,-4.8306,-4.8306,-4.8306,-4.8306,-4.8306,-4.8306,-4.8306,-4.8306,-4.8306,-4.8306,-4.8306,-4.8306,-4.8306,-5.1862,0.0,-5.434,-5.2375,-5.1814,-5.127,0.0,-4.937,-4.9353,-4.8489,0.0,-4.8489,-4.915,-4.8746,-4.893,-5.0802,0.0,0.0,-5.2821,0.0,0.0,-6.1337,-6.2034,-6.2254,-6.2254,-6.256,-6.2707,-6.2548,-6.119,-6.0309,-6.0126,-5.8767,-5.7997,-5.7997,-5.7997,-5.7997,-5.7997,-5.7997,-5.7703,-5.7079,-5.6271,-5.5464,-5.4656,-5.3849,-5.3408,-5.3203,-5.3203,-5.3203,-5.3203,-5.3203,-5.3203,-5.3203,-5.3203,-5.3203,-5.3203,-5.3203,-5.3203,-5.3203,-5.3203,-5.3203,-5.3203,-5.3203,-5.3203,-5.3203,-5.3203,-5.3203,-5.3203,-5.3203,-5.3203,-5.3203,-5.3203,-5.3203,-5.3203,-5.3203,-5.3203,-5.3203,-5.3203,-5.3203,-5.313,-5.2968,-5.2417,-5.1887,-5.152,-5.0912,-5.0435,-5.0251,-5.0215,-5.0215,-5.0215,-5.0215,-5.0215,-5.0215,-4.9664,-4.926,-4.9224,-4.8636,-4.8306,-4.8306,-4.8306,-4.8306,-4.8306,-4.8306,-4.8306,-4.8306,-4.8306,-4.8306,-4.8306,-4.8306,-4.8306,-4.8306,-4.8306,-4.8306,-4.9559,-5.1306,-5.2694,-5.0897,-5.0671,-5.0537,-4.9206,0.0,0.0,0.0,0.0,0.0,0.0,0.0,0.0,0.0,-5.1499,0.0,0.0,0.0,-6.0015,-6.2511,-6.278,-6.278,0.0,-6.278,-6.278,-6.278,-6.13,-6.0419,-6.0419,-5.8877,-5.7997,-5.7997,-5.7997,-5.7997,-5.7997,-5.7997,-5.7593,-5.6785,-5.5978,-5.517,-5.4363,-5.3592,-5.3203,-5.3203,-5.3203,-5.3203,-5.3203,-5.3203,-5.3203,-5.3203,-5.3203,-5.3203,-5.3203,-5.3203,-5.3203,-5.3203,-5.3203,-5.3203,-5.3203,-5.3203,-5.3203,-5.3203,-5.3203,-5.3203,-5.3203,-5.3203,-5.3203,-5.3203,-5.3203,-5.3203,-5.3203,-5.3203,-5.3203,-5.3203,-5.3203,-5.3203,-5.3203,-5.3203,-5.2858,-5.2417,-5.205,-5.1646,-5.1242,-5.0875,-5.0802,-5.0802,-5.0802,-5.0802,-5.0802,-5.0802,-5.0398,-4.9994,-4.9574,-4.915,-4.871,-4.8343,-4.8306,-4.8306,-4.8306,-4.8306,-4.8306,-4.8306,-4.8306,-4.8306,-4.8306,-4.8306,-4.8306,-4.8306,-4.8306,-4.8306,-4.9373,-5.1009,-5.2324,-5.1044,-5.0708,-5.05,-4.9593,0.0,0.0,0.0,0.0,0.0,0.0,-4.9297,0.0,0.0,0.0,0.0,-5.7813,-5.9538,-6.1006,-6.2597,-6.278,0.0,-6.278,-6.278,-6.278,-6.278,-6.13,-6.0419,-6.0419,-5.8877,-5.7997,-5.7997,-5.7997,-5.7997,-5.7997,-5.7997,-5.7593,-5.6785,-5.6088,-5.528,-5.4363,-5.3702,-5.3314,-5.3203,-5.3203,0.0,-5.3203,-5.3203,-5.3203,-5.3203,-5.3203,-5.3203,-5.3203,-5.3203,-5.3203,-5.3203,-5.3203,-5.3203,-5.3203,-5.3203,-5.3203,-5.3203,-5.3203,-5.3203,-5.3203,-5.3203,-5.3203,-5.3203,-5.3203,-5.3203,-5.3203,-5.3203,-5.3203,-5.3203,-5.3203,-5.3203,-5.3203,-5.3203,-5.3203,-5.3004,-5.2307,-5.216,-5.194,-5.1279,-5.1169,-5.1169,-5.1169,-5.1169,-5.1169,-5.1169,-5.1059,-5.0692,-5.0014,-4.9867,-4.9407,-4.8563,-4.8379,-4.8306,-4.8306,-4.8306,-4.8306,-4.8306,-4.8306,-4.8306,-4.8306,-4.8306,-4.8306,-4.8306,-4.8306,-4.8306,-5.1454,-5.2772,-5.2827,-4.9732,-4.9417,-4.9653,-4.8692,0.0,0.0,0.0,0.0,0.0,0.0,-5.0545,-5.1059,0.0,0.0,-5.6198,0.0,0.0,-6.1006,-6.2597,0.0,-6.278,-6.278,-6.278,-6.278,-6.278,-6.13,-6.0419,-6.0419,-5.8877,-5.7997,-5.7997,-5.7997,-5.7997,-5.7997,-5.7997,-5.7593,-5.6822,-5.6675,-5.5831,-5.4399,-5.4289,-5.3849,-5.3203,-5.3203,-5.3203,-5.3203,-5.3203,-5.3203,-5.3203,-5.3203,-5.3203,-5.3203,-5.3203,-5.3203,-5.3203,-5.3203,-5.3203,-5.3203,-5.3203,-5.3203,-5.3203,-5.3203,-5.3203,-5.3203,-5.3203,-5.3203,-5.3203,-5.3203,-5.3203,-5.3203,-5.3203,-5.3203,-5.3203,-5.3203,-5.3203,-5.3203,-5.3203,-5.3203,-5.3188,-5.3041,-5.3041,-5.2968,-5.2837,-5.2858,-5.2858,-5.2858,-5.2858,-5.2858,-5.2858,-5.2234,-5.1756,-5.1646,-5.1022,-5.0251,-4.9463,-4.871,-4.8306,-4.8306,-4.8306,-4.8306,-4.8306,-4.8306,-4.8306,-4.8306,-4.8306,-4.8306,-4.8306,-4.8306,-4.8306,-5.0302,-5.1193,-5.1621,-5.0786,-5.1521,-5.2052,-5.0622,0.0,0.0,0.0,0.0,0.0,0.0,0.0,-5.3408,-5.5464,0.0,-5.8217,-6.0126,-6.0786,-6.1484,0.0,0.0,-6.278,-6.278,-6.278,-6.2622,-6.2181,-6.108,-6.0236,-5.9795,-5.8657,-5.7997,-5.7997,-5.7997,-5.7997,-5.7997,-5.7997,-5.7593,-5.6822,-5.6822,-5.5978,-5.4399,-5.4399,-5.3959,-5.3203,-5.3203,-5.3203,-5.3203,-5.3203,-5.3203,-5.3203,-5.3203,-5.3203,-5.3203,-5.3203,-5.3203,-5.3203,-5.3203,-5.3203,-5.3203,-5.3203,-5.3203,-5.3203,-5.3203,-5.3203,-5.3203,-5.3203,-5.3203,-5.3203,-5.3203,-5.3203,-5.3203,-5.3203,-5.3203,-5.3203,-5.3203,-5.3203,-5.3203,-5.3203,-5.3203,-5.3203,-5.3203,-5.3203,-5.3203,-5.3203,-5.3203,-5.3203,-5.3203,-5.3203,-5.3203,-5.3203,-5.2858,-5.2454,-5.205,-5.1646,-5.0912,-4.9684,-4.8783,-4.8306,-4.8306,-4.8306,-4.8306,-4.8306,-4.8306,-4.8306,-4.8306,-4.8306,-4.8306,-4.8306,-4.8306,-4.8306,-4.9893,-5.0376,-5.099,-5.2284,-5.3114,-5.3424,-5.2737,0.0,0.0,0.0,0.0,0.0,0.0,-5.4032,0.0,-5.8217,-5.9245,-6.0028,-6.086,-6.1484,-6.2108,-6.2732,-6.278,-6.278,-6.278,-6.278,-6.2475,-6.1667,-6.086,-6.0052,-5.9221,-5.8437,-5.7997,-5.7997,-5.7997,-5.7997,-5.7997,-5.7997,-5.7703,-5.7079,-5.7079,-5.6345,-5.495,-5.495,-5.4436,-5.3482,-5.3482,-5.335,-5.3203,-5.3203,-5.3203,-5.3203,-5.3203,-5.3203,-5.3203,-5.3203,-5.3203,-5.3203,-5.3203,-5.3203,-5.3203,-5.3203,-5.3203,-5.3203,-5.3203,-5.3203,-5.3203,-5.3203,-5.3203,-5.3203,-5.3203,-5.3203,-5.3203,-5.3203,-5.3203,-5.3203,-5.3203,-5.3203,-5.3203,-5.3203,-5.3203,-5.3203,-5.3203,-5.3203,-5.3203,-5.3203,-5.3203,-5.3203,-5.3203,-5.3203,-5.3203,-5.3203,-5.3203,-5.2968,-5.2344,-5.2087,-5.1483,-5.0235,-4.9187,-4.8526,-4.8306,-4.8306,-4.8306,-4.8306,-4.8306,-4.8306,-4.8306,-4.8489,-4.8489,-4.8306,-4.871,-4.8783,-5.2828,-5.294,-5.2605,-5.338,-5.1953,0.0,-5.3619,-5.2479,0.0,-5.2711,0.0,0.0,0.0,-5.6161,-5.829,-5.9979,-6.0896,-6.1704,-6.2511,0.0,-6.2768,-6.278,-6.278,-6.278,-6.278,-6.278,-6.2475,-6.1667,-6.086,-6.0052,-5.9221,-5.8437,-5.7997,-5.7997,-5.7997,-5.7997,-5.7997,-5.7997,-5.796,-5.7923,-5.7923,-5.7446,-5.6638,-5.6638,-5.5794,-5.4326,-5.4326,-5.3885,-5.3203,-5.3203,-5.3203,-5.3203,-5.3203,-5.3203,-5.3203,-5.3203,-5.3203,-5.3203,-5.3203,-5.3203,-5.3203,-5.3203,-5.3203,-5.3203,-5.3203,-5.3203,-5.3203,-5.3203,-5.3203,-5.3203,-5.3203,-5.3203,-5.3203,-5.3203,-5.3203,-5.3203,-5.3203,-5.3203,-5.3203,-5.3203,-5.3203,-5.3203,-5.3203,-5.3203,-5.3203,-5.3203,-5.3203,-5.3203,-5.3203,-5.3203,-5.3203,-5.3203,-5.3203,-5.3167,-5.3093,-5.2417,-5.194,-5.183,-5.0381,-4.9114,-4.8343,-4.8306,-4.8306,-4.8306,-4.8306,-4.8306,-4.8306,-4.9114,-4.9077,-4.8343,-4.9884,-5.0215,-5.0636,-5.1305,-5.2122,-5.3363,-5.2603,0.0,0.0,-5.4133,-5.4259,-5.5868,-5.5794,0.0,0.0,0.0,-5.9869,-6.097,-6.1814,-6.2475,-6.2768,-6.278,-6.278,-6.278,-6.278,-6.278,-6.278,-6.2365,-6.1704,-6.0896,-6.0126,-5.9318,-5.851,-5.818,-5.7997,-5.7997,-5.7997,-5.7997,-5.7997,-5.7997,-5.7997,-5.7997,-5.7997,-5.7593,-5.6785,-5.6271,-5.5464,-5.4363,-5.3885,-5.3482,-5.3203,-5.3203,-5.3203,-5.324,-5.3739,-5.3665,-5.3314,-5.4326,-5.4363,-5.4032,-5.4509,-5.4693,-5.462,-5.4106,-5.3959,-5.3959,-5.3959,-5.3959,-5.4069,-5.4546,-5.4693,-5.4473,-5.3482,-5.3203,-5.3335,-5.3849,-5.3555,-5.3314,-5.3849,-5.3555,-5.3203,-5.3203,-5.3203,-5.3203,-5.3203,-5.3203,-5.3203,-5.3203,-5.3203,-5.3203,-5.3203,-5.3203,-5.3203,-5.3203,-5.3203,-5.3203,-5.3203,-5.2931,-5.2527,-5.2013,-5.0949,-4.9958,-4.9114,-4.9114,-4.8857,-4.8306,-4.882,-4.9114,-4.9114,-4.9921,-5.0178,-4.9884,-5.0508,-5.0655,-4.9447,-4.993,-5.0915,0.0,0.0,0.0,-5.4912,0.0,0.0,-5.835,-5.8143,0.0,0.0,0.0,0.0,0.0,-6.2108,-6.278,-6.278,-6.278,-6.278,-6.278,-6.278,-6.278,-6.278,-6.2071,-6.1263,-6.0456,-5.9625,-5.8877,-5.8033,-5.7997,-5.7997,-5.7997,-5.7997,-5.7997,-5.7997,-5.7997,-5.7997,-5.7997,-5.7997,-5.7593,-5.6785,-5.6235,-5.539,-5.4363,-5.3812,-5.3424,-5.3203,-5.3203,-5.3371,-5.3665,-5.4473,-5.4436,-5.4106,-5.517,-5.5244,-5.484,-5.539,-5.5596,-5.55,-5.495,-5.4766,-5.4766,-5.4766,-5.4766,-5.4876,-5.5427,-5.5596,-5.5354,-5.4252,-5.3959,-5.4106,-5.4656,-5.4363,-5.4106,-5.4656,-5.4363,-5.3885,-5.3628,-5.3592,-5.3592,-5.3592,-5.335,-5.3277,-5.3555,-5.3371,-5.3203,-5.3203,-5.3203,-5.3203,-5.3203,-5.3203,-5.3203,-5.3203,-5.3203,-5.2968,-5.2417,-5.1867,-5.1096,-4.9994,-4.9978,-4.9701,-4.9114,-4.9664,-4.9978,-4.9978,-5.0802,-5.1059,-5.0802,-5.1316,-5.1426,-5.0079,-4.9522,-4.9113,0.0,0.0,0.0,0.0,0.0,0.0,0.0,0.0,-5.9221,-5.9184,0.0,0.0,-6.0419,-6.1777,-6.278,-6.278,-6.278,-6.278,-6.278,-6.278,-6.278,-6.278,-6.2071,-6.1263,-6.0456,-5.9625,-5.8841,-5.8033,-5.7997,-5.7997,-5.7997,-5.7997,-5.7997,-5.7997,-5.7997,-5.7997,-5.7997,-5.7997,-5.7556,-5.6822,-5.6785,-5.5904,-5.4399,-5.4399,-5.3959,-5.3203,-5.3203,-5.3702,-5.4473,-5.528,-5.5633,-5.5596,-5.5611,-5.5611,-5.5611,-5.5611,-5.5611,-5.5611,-5.5611,-5.5633,-5.5633,-5.5633,-5.5633,-5.5611,-5.5611,-5.5611,-5.5611,-5.5611,-5.5611,-5.5611,-5.5611,-5.5633,-5.5596,-5.5633,-5.5633,-5.5354,-5.4583,-5.4399,-5.4399,-5.4399,-5.3739,-5.3482,-5.4289,-5.3739,-5.3203,-5.3203,-5.3203,-5.3203,-5.3203,-5.3203,-5.3203,-5.3203,-5.3203,-5.3203,-5.3203,-5.3203,-5.2491,-5.0875,-5.0802,-5.0802,-5.0802,-5.0802,-5.0802,-5.0802,-5.161,-5.161,-5.0875,-5.2454,-5.2784,-4.9745,-4.993,0.0,-5.1676,0.0,0.0,0.0,0.0,0.0,0.0,0.0,-6.0713,-6.0162,0.0,0.0,-6.1227,-6.2144,-6.278,-6.278,-6.278,-6.278,-6.278,-6.278,-6.2585,-6.1998,-6.1227,-6.0419,-5.9625,-5.8804,-5.8253,-5.7997,-5.7997,-5.7997,-5.7997,-5.7997,-5.7997,-5.7997,-5.7997,-5.7997,-5.7997,-5.7446,-5.7042,-5.6785,-5.6198,-5.539,-5.4363,-5.3812,-5.3445,-5.3261,-5.3812,-5.4179,-5.4546,-5.5904,-5.6088,-5.5743,-5.6859,-5.6932,-5.6528,-5.7079,-5.7299,-5.7189,-5.6638,-5.6455,-5.6455,-5.6455,-5.6455,-5.6565,-5.7116,-5.7299,-5.7299,-5.7299,-5.7299,-5.7152,-5.6565,-5.6014,-5.578,-5.6308,-5.5978,-5.5537,-5.528,-5.5244,-5.5244,-5.5244,-5.4583,-5.4142,-5.4363,-5.3739,-5.3203,-5.3203,-5.3203,-5.3203,-5.3203,-5.3203,-5.3203,-5.3203,-5.3203,-5.3203,-5.3203,-5.3203,-5.2747,-5.1683,-5.1646,-5.1389,-5.0802,-5.1353,-5.1646,-5.1646,-5.2454,-5.2711,-5.2527,-5.2983,-5.3057,-5.0413,-5.0859,0.0,-5.3143,-5.505,-5.7265,-5.9944,0.0,0.0,0.0,0.0,-6.1447,-6.097,-6.1263,0.0,-6.1594,-6.2291,-6.278,-6.278,-6.278,-6.278,-6.278,-6.2511,-6.2144,-6.163,-6.0566,-5.9722,-5.9221,-5.8437,-5.7997,-5.7997,-5.7997,-5.7997,-5.7997,-5.7997,-5.7997,-5.7997,-5.7997,-5.785,-5.7519,-5.7042,-5.6492,-5.5831,-5.5354,-5.4693,-5.3922,-5.3408,-5.3203,-5.324,-5.4069,-5.4583,-5.4987,-5.6308,-5.6712,-5.6675,-5.7629,-5.7703,-5.7336,-5.7813,-5.7997,-5.7923,-5.7446,-5.7299,-5.7299,-5.7299,-5.7299,-5.7373,-5.785,-5.7997,-5.7997,-5.7997,-5.7997,-5.7886,-5.7409,-5.6895,-5.6675,-5.7189,-5.6895,-5.6455,-5.6124,-5.6088,-5.6088,-5.6088,-5.539,-5.4987,-5.5317,-5.4399,-5.3702,-5.3702,-5.3387,-5.3203,-5.3203,-5.3203,-5.3203,-5.3203,-5.3203,-5.3203,-5.3203,-5.3203,-5.3004,-5.2491,-5.2491,-5.2234,-5.1756,-5.2234,-5.2491,-5.2491,-5.2968,-5.3203,-5.3203,-5.3203,-5.3203,-5.1676,0.0,0.0,-5.4511,-5.6434,0.0,-6.1422,-6.2463,-6.2805,-6.2805,0.0,-6.1704,-6.1704,-6.1704,-6.1704,-6.1704,-6.2328,-6.278,-6.278,-6.278,-6.2743,-6.267,-6.2034,-6.152,-6.141,-6.0052,-5.9148,-5.9074,-5.84,-5.7997,-5.7997,-5.7997,-5.7997,-5.7997,-5.7997,-5.7997,-5.7997,-5.7997,-5.7593,-5.6822,-5.6748,-5.5904,-5.4399,-5.4399,-5.3959,-5.3203,-5.3203,-5.3203,-5.3298,-5.4142,-5.495,-5.5684,-5.6565,-5.7373,-5.7997,-5.7997,-5.7997,-5.7997,-5.7997,-5.7997,-5.7997,-5.7997,-5.7997,-5.7997,-5.7997,-5.7997,-5.7997,-5.7997,-5.7997,-5.7997,-5.7997,-5.7997,-5.7997,-5.7997,-5.7997,-5.7997,-5.7997,-5.7997,-5.7776,-5.7042,-5.6932,-5.6932,-5.6932,-5.6235,-5.5941,-5.6602,-5.5464,-5.4473,-5.4399,-5.3775,-5.3277,-5.3203,-5.3203,-5.3203,-5.3203,-5.3203,-5.3203,-5.3203,-5.3203,-5.3203,-5.3203,-5.3203,-5.3203,-5.3203,-5.3203,-5.3203,-5.3203,-5.3203,-5.3203,-5.3203,-5.3203,-5.3203,0.0,-5.1528,0.0,0.0,0.0,0.0,-6.2522,-6.2794,-6.283,-6.2929,-6.2733,-6.2548,-6.2548,-6.2548,-6.2548,-6.2548,-6.2695,-6.278,-6.278,-6.278,-6.2585,-6.1924,-6.1704,-6.108,-5.9832,-5.9404,-5.8927,-5.8327,-5.8107,-5.7997,-5.7997,-5.7997,-5.7997,-5.7997,-5.7997,-5.7997,-5.7997,-5.7997,-5.7593,-5.6785,-5.6161,-5.5354,-5.4399,-5.4399,-5.3959,-5.3203,-5.3203,-5.3203,-5.3314,-5.473,-5.5427,-5.5743,-5.7189,-5.785,-5.7997,-5.7997,-5.7997,-5.7997,-5.7997,-5.7997,-5.7997,-5.7997,-5.7997,-5.7997,-5.7997,-5.7997,-5.7997,-5.7997,-5.7997,-5.7997,-5.7997,-5.7997,-5.7997,-5.7997,-5.7997,-5.7997,-5.7997,-5.7997,-5.796,-5.7776,-5.774,-5.774,-5.774,-5.7079,-5.6381,-5.5941,-5.5537,-5.5097,-5.4473,-5.4252,-5.3922,-5.3298,-5.3203,-5.3203,-5.3203,-5.3203,-5.3203,-5.3203,-5.3203,-5.3203,-5.3203,-5.3203,-5.3203,-5.3203,-5.3203,-5.3203,-5.3203,-5.3203,-5.3203,-5.3203,-5.3203,-5.3203,0.0,0.0,0.0,0.0,0.0,0.0,0.0,0.0,-6.2805,-6.288,-6.2855,-6.278,-6.278,-6.278,-6.278,-6.278,-6.278,-6.278,-6.278,-6.278,-6.2511,-6.1704,-6.1263,-6.0529,-5.9294,-5.8877,-5.8437,-5.8033,-5.7997,-5.7997,-5.7997,-5.7997,-5.7997,-5.7997,-5.7997,-5.7997,-5.7997,-5.7997,-5.7409,-5.6235,-5.5794,-5.4987,-5.3849,-5.3849,-5.3592,-5.3203,-5.3203,-5.3445,-5.3849,-5.4693,-5.5464,-5.6271,-5.7116,-5.7666,-5.7997,-5.7997,-5.7997,-5.7997,-5.7997,-5.7997,-5.7997,-5.7997,-5.7997,-5.7997,-5.7997,-5.7997,-5.7997,-5.7997,-5.7997,-5.7997,-5.7997,-5.7997,-5.7997,-5.7997,-5.7997,-5.7997,-5.7997,-5.7997,-5.7997,-5.7997,-5.7997,-5.7997,-5.7997,-5.7666,-5.7226,-5.6822,-5.6418,-5.6014,-5.5611,-5.5207,-5.4803,-5.4399,-5.4363,-5.4179,-5.3812,-5.3775,-5.3628,-5.3203,-5.3203,-5.3203,-5.3203,-5.3203,-5.3203,-5.3203,-5.3203,-5.3203,-5.3203,-5.3203,-5.3203,-5.3203,-5.3203,-5.3203,0.0,0.0,0.0,0.0,0.0,0.0,0.0,0.0,-6.278,-6.278,-6.278,-6.278,-6.278,-6.278,-6.278,-6.278,-6.278,-6.2743,-6.2622,-6.2585,-6.2254,-6.13,-6.0603,-5.9905,-5.9074,-5.84,-5.7997,-5.7997,-5.7997,-5.7997,-5.7997,-5.7997,-5.7997,-5.7997,-5.7997,-5.7997,-5.7997,-5.7997,-5.7262,-5.5794,-5.5537,-5.462,-5.3203,-5.3203,-5.3203,-5.3203,-5.3203,-5.3665,-5.4399,-5.4546,-5.5464,-5.6822,-5.6969,-5.7409,-5.7997,-5.7997,-5.7997,-5.7997,-5.7997,-5.7997,-5.7997,-5.7997,-5.7997,-5.7997,-5.7997,-5.7997,-5.7997,-5.7997,-5.7997,-5.7997,-5.7997,-5.7997,-5.7997,-5.7997,-5.7997,-5.7997,-5.7997,-5.7997,-5.7997,-5.7997,-5.7997,-5.7997,-5.7997,-5.7997,-5.7997,-5.7997,-5.7446,-5.6969,-5.6822,-5.6235,-5.5757,-5.5611,-5.5596,-5.5317,-5.4656,-5.4473,-5.4179,-5.3665,-5.3482,-5.3408,-5.3408,-5.3555,-5.3555,-5.3408,-5.3298,-5.3203,-5.3203,-5.3203,-5.3203,-5.3203,-5.3203,-5.3203,0.0,0.0,0.0,0.0,0.0,0.0,0.0,0.0,-6.278,0.0,-6.278,-6.278,-6.278,-6.278,-6.278,-6.278,-6.278,-6.2585,-6.1851,-6.1741,-6.119,-5.9698,-5.9404,-5.9038,-5.8253,-5.807,-5.7997,-5.7997,-5.7997,-5.7997,-5.7997,-5.7997,-5.7997,-5.7997,-5.7997,-5.7997,-5.7997,-5.7997,-5.7556,-5.6638,-5.5244,-5.4069,-5.3203,-5.3203,-5.3203,-5.3203,-5.3203,-5.3665,-5.4436,-5.5133,-5.5978,-5.6859,-5.7556,-5.7923,-5.7997,-5.7997,-5.7997,-5.7997,-5.7997,-5.7997,-5.7997,-5.7997,-5.7997,-5.7997,-5.7997,-5.7997,-5.7997,-5.7997,-5.7997,-5.7997,-5.7997,-5.7997,-5.7997,-5.7997,-5.7997,-5.7997,-5.7997,-5.7997,-5.7997,-5.7997,-5.7997,-5.7997,-5.7997,-5.7997,-5.7997,-5.7997,-5.7923,-5.7593,-5.6895,-5.6712,-5.6381,-5.5647,-5.5596,-5.5537,-5.5427,-5.4803,-5.4656,-5.5244,-5.462,-5.4252,-5.4252,-5.4913,-5.495,-5.4252,-5.3555,-5.3203,-5.3203,-5.3203,-5.3203,-5.3203,-5.3203,-5.3203,0.0,0.0,0.0,0.0,0.0,0.0,0.0,0.0,-6.278,-6.278,-6.278,-6.278,-6.278,-6.278,-6.2658,-6.2218,-6.2144,-6.1851,-6.1043,-6.0933,-6.0493,-5.9331,-5.9184,-5.8854,-5.807,-5.7997,-5.7997,-5.7997,-5.7997,-5.7997,-5.7997,-5.7997,-5.7997,-5.7997,-5.7997,-5.7997,-5.7997,-5.7997,-5.7373,-5.6088,-5.4509,-5.3555,-5.3203,-5.3203,-5.3203,-5.3203,-5.3702,-5.4326,-5.5133,-5.5941,-5.6748,-5.7519,-5.785,-5.7997,-5.7997,-5.7997,-5.7997,-5.7997,-5.7997,-5.7997,-5.7997,-5.7997,-5.7997,-5.7997,-5.7997,-5.7997,-5.7997,-5.7997,-5.7997,-5.7997,-5.7997,-5.7997,-5.7997,-5.7997,-5.7997,-5.7997,-5.7997,-5.7997,-5.7997,-5.7997,-5.7997,-5.7997,-5.7997,-5.7997,-5.7997,-5.7997,-5.7997,-5.7886,-5.7519,-5.7483,-5.7336,-5.6969,-5.6932,-5.6748,-5.6308,-5.5941,-5.5684,-5.5633,-5.5244,-5.506,-5.506,-5.539,-5.5449,-5.506,-5.4289,-5.3885,-5.3885,-5.3445,-5.3203,-5.3203,-5.3203,-5.3203,0.0,0.0,0.0,0.0,0.0,0.0,0.0,0.0,-6.2548,0.0,-6.278,-6.2768,-6.2548,-6.2511,-6.2291,-6.1704,-6.141,-6.1006,-6.0236,-6.0126,-5.9795,-5.8964,-5.8914,-5.8657,-5.807,-5.7997,-5.7997,-5.7997,-5.7997,-5.7997,-5.7997,-5.7997,-5.7997,-5.7997,-5.7997,-5.7997,-5.7997,-5.7997,-5.7299,-5.5868,-5.4473,-5.3702,-5.3518,-5.3518,-5.3518,-5.3555,-5.4142,-5.495,-5.5941,-5.6565,-5.7262,-5.7997,-5.7997,-5.7997,-5.7997,-5.7997,-5.7997,-5.7997,-5.7997,-5.7997,-5.7997,-5.7997,-5.7997,-5.7997,-5.7997,-5.7997,-5.7997,-5.7997,-5.7997,-5.7997,-5.7997,-5.7997,-5.7997,-5.7997,-5.7997,-5.7997,-5.7997,-5.7997,-5.7997,-5.7997,-5.7997,-5.7997,-5.7997,-5.7997,-5.7997,-5.7997,-5.7997,-5.7997,-5.7997,-5.7997,-5.7997,-5.7997,-5.7997,-5.7776,-5.7152,-5.6932,-5.6638,-5.6235,-5.6014,-5.5904,-5.5904,-5.6088,-5.6088,-5.5904,-5.5317,-5.4913,-5.4693,-5.4106,-5.3812,-5.3812,-5.3812,-5.3702,0.0,0.0,0.0,0.0,0.0,0.0,0.0,0.0,0.0,-6.2658,-6.278,-6.2585,-6.1777,-6.1667,-6.163,-6.1594,-6.097,-6.0199,-5.9368,-5.9258,-5.8964,-5.8143,-5.807,-5.8033,-5.7997,-5.7997,-5.7997,-5.7997,-5.7997,-5.7997,-5.7997,-5.7997,-5.7997,-5.7997,-5.7997,-5.7997,-5.7997,-5.7997,-5.7593,-5.6748,-5.5868,-5.506,-5.4326,-5.4326,-5.4326,-5.4326,-5.4363,-5.528,-5.6748,-5.6785,-5.7262,-5.7997,-5.7997,-5.7997,-5.7997,-5.7997,-5.7997,-5.7997,-5.7997,-5.7997,-5.7997,-5.7997,-5.7997,-5.7997,-5.7997,-5.7997,-5.7997,-5.7997,-5.7997,-5.7997,-5.7997,-5.7997,-5.7997,-5.7997,-5.7997,-5.7997,-5.7997,-5.7997,-5.7997,-5.7997,-5.7997,-5.7997,-5.7997,-5.7997,-5.7997,-5.7997,-5.7997,-5.7997,-5.7997,-5.7997,-5.7997,-5.7997,-5.7997,-5.796,-5.7923,-5.7262,-5.7116,-5.7813,-5.7152,-5.6748,-5.6748,-5.7483,-5.7519,-5.6748,-5.6712,-5.6308,-5.5559,-5.55,-5.5464,-5.5464,-5.5464,-5.506,0.0,0.0,0.0,0.0,0.0,0.0,0.0,0.0,-6.152,-6.13,-6.1263,-6.119,-6.0896,-6.1263,-6.1263,-6.0236,-5.9808,-5.9355,-5.8547,-5.8437,-5.8327,-5.8033,-5.7997,-5.7997,-5.7997,-5.7997,-5.7997,-5.7997,-5.7997,-5.7997,-5.7997,-5.7997,-5.7997,-5.7997,-5.7997,-5.7997,-5.7997,-5.7483,-5.7079,-5.6785,-5.5464,-5.4693,-5.4399,-5.4399,-5.4693,-5.5207,-5.5721,-5.6271,-5.6859,-5.7373,-5.774,-5.7997,-5.7997,-5.7997,-5.7997,-5.7997,-5.7997,-5.7997,-5.7997,-5.7997,-5.7997,-5.7997,-5.7997,-5.7997,-5.7997,-5.7997,-5.7997,-5.7997,-5.7997,-5.7997,-5.7997,-5.7997,-5.7997,-5.7997,-5.7997,-5.7997,-5.7997,-5.7997,-5.7997,-5.7997,-5.7997,-5.7997,-5.7997,-5.7997,-5.7997,-5.7997,-5.7997,-5.7997,-5.7997,-5.7997,-5.7997,-5.7997,-5.7997,-5.7997,-5.7997,-5.774,-5.7703,-5.796,-5.774,-5.7556,-5.7556,-5.785,-5.785,-5.7593,-5.7556,-5.7152,-5.6381,-5.5831,-5.5596,-5.5596,-5.5596,-5.5427,-4.5144,0.0,0.0,0.0,0.0,0.0,0.0,0.0,-6.0639,-6.0126,-6.0419,-6.0639,-6.0126,-6.0419,-6.0456,-5.9368,-5.8964,-5.8621,-5.807,-5.7997,-5.7997,-5.7997,-5.7997,-5.7997,-5.7997,-5.7997,-5.7997,-5.7997,-5.7997,-5.7997,-5.7997,-5.7997,-5.7997,-5.7997,-5.774,-5.7593,-5.7593,-5.6785,-5.6418,-5.6381,-5.5023,-5.4546,-5.4803,-5.4803,-5.5244,-5.6051,-5.6859,-5.7189,-5.7262,-5.7776,-5.7997,-5.7997,-5.7997,-5.7997,-5.7997,-5.7997,-5.7997,-5.7997,-5.7997,-5.7997,-5.7997,-5.7997,-5.7997,-5.7997,-5.7997,-5.7997,-5.7997,-5.7997,-5.7997,-5.7997,-5.7997,-5.7997,-5.7997,-5.7997,-5.7997,-5.7997,-5.7997,-5.7997,-5.7997,-5.7997,-5.7997,-5.7997,-5.7997,-5.7997,-5.7997,-5.7997,-5.7997,-5.7997,-5.7997,-5.7997,-5.7997,-5.7997,-5.7997,-5.7997,-5.7997,-5.7997,-5.7997,-5.7997,-5.7997,-5.7997,-5.7997,-5.7997,-5.7997,-5.7997,-5.7997,-5.774,-5.7189,-5.6675,-5.6381,-5.6381,-5.6381,-5.6381,0.0,0.0,0.0,0.0,0.0,0.0,0.0,0.0,-5.9001,-5.9148,-6.0382,-6.097,-5.9478,-5.9184,-5.9184,-5.9148,-5.851,-5.7997,-5.7997,-5.7997,-5.7997,-5.7997,-5.7997,-5.7997,-5.7997,-5.7997,-5.7997,-5.7997,-5.7997,-5.7997,-5.7997,-5.7997,-5.7997,-5.7997,-5.7226,-5.6822,-5.6822,-5.6014,-5.5633,-5.5633,-5.4803,-5.484,-5.5633,-5.5633,-5.6051,-5.6859,-5.7666,-5.7997,-5.7997,-5.7997,-5.7997,-5.7997,-5.7997,-5.7997,-5.7997,-5.7997,-5.7997,-5.7997,-5.7997,-5.7997,-5.7997,-5.7997,-5.7997,-5.7997,-5.7997,-5.7997,-5.7997,-5.7997,-5.7997,-5.7997,-5.7997,-5.7997,-5.7997,-5.7997,-5.7997,-5.7997,-5.7997,-5.7997,-5.7997,-5.7997,-5.7997,-5.7997,-5.7997,-5.7997,-5.7997,-5.7997,-5.7997,-5.7997,-5.7997,-5.7997,-5.7997,-5.7997,-5.7997,-5.7997,-5.7997,-5.7997,-5.7997,-5.7997,-5.7997,-5.7997,-5.7997,-5.7997,-5.7997,-5.7997,-5.7997,-5.7997,-5.7997,-5.7997,-5.7997,-5.7997,-5.7997,-5.7997,-4.2687,0.0,0.0,0.0,0.0,0.0,0.0,0.0,0.0,-5.774,-5.774,-5.7666,-5.8964,-5.9184,-5.9001,-5.8437,-5.8143,-5.7997,-5.7997,-5.7997,-5.7997,-5.7997,-5.7997,-5.7997,-5.7997,-5.7997,-5.7997,0.0,-5.7997,-5.7997,-5.7997,-5.7997,-5.7997,-5.7997,-5.7226,-5.6822,-5.6822,-5.6602,-5.6455,-5.6455,-5.5647,-5.5684,-5.6455,-5.5868,-5.6051,-5.6859,-5.7666,-5.7997,-5.7997,-5.7997,-5.7997,-5.7997,-5.7997,-5.7997,-5.7997,-5.7997,-5.7997,-5.7997,-5.7997,-5.7997,-5.7997,-5.7997,-5.7997,-5.7997,-5.7997,-5.7997,-5.7997,-5.7997,-5.7997,-5.7997,-5.7997,-5.7997,-5.7997,-5.7997,-5.7997,-5.7997,-5.7997,-5.7997,-5.7997,-5.7997,-5.7997,-5.7997,-5.7997,-5.7997,-5.7997,-5.7997,-5.7997,-5.7997,-5.7997,-5.7997,-5.7997,-5.7997,-5.7997,-5.7997,-5.7997,-5.7997,-5.7997,-5.7997,-5.7997,-5.7997,-5.7997,-5.7997,-5.7997,-5.7997,-5.7997,-5.7997,-5.7997,-5.7997,-5.7997,-5.7997,-5.7997,-5.7997,-4.2983,0.0,0.0,0.0,0.0,0.0,-4.9926,-5.1099,0.0,0.0,-5.5794,-5.6014,-5.7446,-5.7703,-5.7776,-5.796,-5.7703,-5.7629,-5.796,-5.7997,-5.7997,-5.7997,-5.7997,-5.7997,-5.7997,-5.7997,-5.7997,-5.7997,-5.7997,-5.7997,-5.7997,-5.7997,-5.7997,-5.7997,-5.6895,-5.6308,-5.6308,-5.5978,-5.5794,-5.5794,-5.5647,-5.6014,-5.6785,-5.6308,-5.6528,-5.7336,-5.7813,-5.7997,-5.7997,-5.7997,-5.7997,-5.7997,-5.7997,-5.7997,-5.7997,-5.7997,-5.7997,-5.7997,-5.7997,-5.7997,-5.7997,-5.7997,-5.7997,-5.7997,-5.7997,-5.7997,-5.7997,-5.7997,-5.7997,-5.7997,-5.7997,-5.7997,-5.7997,-5.7997,-5.7997,-5.7997,-5.7997,-5.7997,-5.7997,-5.7997,-5.7997,-5.7997,-5.7997,-5.7997,-5.7997,-5.7997,-5.7997,-5.7997,-5.7997,-5.7997,-5.7997,-5.7997,-5.7997,-5.7997,-5.7997,-5.7997,-5.7997,-5.7997,-5.7997,-5.7997,-5.7997,-5.7997,-5.7997,-5.7997,-5.7997,-5.7997,-5.7997,-5.7997,-5.7997,-5.7997,-5.7997,-5.7997,-4.4121,0.0,0.0,0.0,0.0,0.0,-4.9664,-5.0802,-5.1793,0.0,-5.4326,-5.5427,-5.5684,-5.5647,-5.6051,-5.7483,-5.7226,-5.7116,-5.7997,-5.807,-5.7997,-5.7997,-5.7997,-5.7997,-5.7997,-5.7997,-5.7997,-5.7997,-5.7997,-5.7997,-5.7997,-5.7997,-5.796,-5.7886,-5.6381,-5.5596,-5.5596,-5.4876,-5.4583,-5.4693,-5.539,-5.6161,-5.6932,-5.6859,-5.7262,-5.7997,-5.7997,-5.7997,-5.7997,-5.7997,-5.7997,-5.7997,-5.7997,-5.7997,-5.7997,-5.7997,-5.7997,-5.7997,-5.7997,-5.7997,-5.7997,-5.7997,-5.7997,-5.7997,-5.7997,-5.7997,-5.7997,-5.7997,-5.7997,-5.7997,-5.7997,-5.7997,-5.7997,-5.7997,-5.7997,-5.8033,-5.8107,-5.807,-5.8033,-5.8107,-5.807,-5.7997,-5.7997,-5.7997,-5.7997,-5.7997,-5.7997,-5.7997,-5.7997,-5.7997,-5.7997,-5.7997,-5.7997,-5.7997,-5.7997,-5.7997,-5.7997,-5.7997,-5.7997,-5.7997,-5.7997,-5.7997,-5.7997,-5.7997,-5.7997,-5.7997,-5.7997,-5.7997,-5.7997,-5.7997,-5.7997,-5.7997,-4.5333,0.0,0.0,0.0,-4.5296,0.0,-4.592,-4.7003,-4.9021,0.0,-5.3445,-5.4252,-5.6198,-5.6051,-5.5684,-5.6014,-5.6492,-5.7336,-5.8744,-5.84,-5.7997,-5.7997,-5.7997,-5.7997,-5.7997,-5.7997,-5.7997,-5.7997,-5.7997,-5.7997,-5.7997,-5.7997,-5.7703,-5.7042,-5.6088,-5.5596,-5.5596,-5.5427,-5.5684,-5.6345,-5.6492,-5.7005,-5.774,-5.7116,-5.7262,-5.7997,-5.7997,-5.7997,-5.7997,-5.7997,-5.7997,-5.7997,-5.7997,-5.7997,-5.7997,-5.7997,-5.7997,-5.7997,-5.7997,-5.7997,-5.7997,-5.7997,-5.7997,-5.7997,-5.7997,-5.7997,-5.7997,-5.7997,-5.7997,-5.7997,-5.7997,-5.7997,-5.7997,-5.7997,-5.7997,-5.818,-5.8841,-5.8474,-5.818,-5.8841,-5.8437,-5.7997,-5.7997,-5.7997,-5.7997,-5.7997,-5.7997,-5.7997,-5.7997,-5.7997,-5.7997,-5.7997,-5.7997,-5.7997,-5.7997,-5.7997,-5.7997,-5.7997,-5.7997,-5.7997,-5.7997,-5.7997,-5.7997,-5.7997,-5.7997,-5.7997,-5.7997,-5.7997,-5.7997,-5.7997,-5.7997,-5.7997,-4.6617,0.0,0.0,-4.559,-4.559,0.0,0.0,-4.5608,-4.6929,-5.0655,-5.0435,-5.0435,-5.3298,-5.2784,-5.2344,-5.3592,-5.4473,-5.5427,-5.6638,-5.7483,-5.7997,-5.7997,-5.7299,-5.6785,-5.6785,-5.6785,-5.6969,-5.7373,-5.7042,-5.7152,-5.796,-5.7629,-5.7409,-5.7409,-5.6638,-5.6198,-5.6198,-5.6198,-5.6418,-5.6822,-5.7226,-5.7593,-5.7997,-5.7593,-5.7629,-5.7997,-5.7997,-5.7997,-5.7997,-5.7997,-5.7997,-5.7997,-5.7997,-5.7997,-5.7997,-5.7997,-5.7997,-5.7997,-5.7997,-5.7997,-5.7997,-5.7997,-5.7997,-5.7997,-5.7997,-5.7997,-5.7997,-5.7997,-5.7997,-5.7997,-5.7997,-5.829,-5.8621,-5.8621,-5.8621,-5.8841,-5.9612,-5.9171,-5.8841,-5.9648,-5.9465,-5.8951,-5.8143,-5.7997,-5.7997,-5.7997,-5.7997,-5.7997,-5.7997,-5.7997,-5.7997,-5.7997,-5.7997,-5.7997,-5.7997,-5.7997,-5.7997,-5.7997,-5.7997,-5.7997,-5.7997,-5.7997,-5.7997,-5.7997,-5.7997,-5.7997,-5.7997,-5.7997,-5.7997,-5.7997,-5.7997,-5.7997,0.0,0.0,0.0,-4.7406,-4.6838,-4.6397,0.0,0.0,0.0,-4.8362,-4.7535,0.0,0.0,0.0,0.0,0.0,0.0,0.0,0.0,-5.5868,0.0,-5.7079,-5.6198,-5.5559,-5.5354,-5.5354,-5.5684,-5.6528,-5.5831,-5.5978,-5.7446,-5.6932,-5.6859,-5.7519,-5.6895,-5.6638,-5.6822,-5.6822,-5.6895,-5.7042,-5.7703,-5.7997,-5.7997,-5.7997,-5.7997,-5.7997,-5.7997,-5.7997,-5.7997,-5.7997,-5.7997,-5.7997,-5.7997,-5.7997,-5.7997,-5.7997,-5.7997,-5.7997,-5.7997,-5.7997,-5.7997,-5.7997,-5.7997,-5.7997,-5.7997,-5.7997,-5.7997,-5.7997,-5.7997,-5.8033,-5.818,-5.8731,-5.9221,-5.9368,-5.9404,-5.9588,-6.0272,-5.9905,-5.9625,-6.0272,-6.0419,-5.9942,-5.8474,-5.8217,-5.818,-5.8033,-5.7997,-5.7997,-5.7997,-5.7997,-5.7997,-5.7997,-5.7997,-5.7997,-5.7997,-5.7997,-5.7997,-5.7997,-5.7997,-5.7997,-5.7997,-5.7997,-5.7997,-5.7997,-5.7997,-5.7997,-5.7997,-5.7997,-5.7997,-5.7997,-5.7997,-5.7997,0.0,0.0,0.0,0.0,-4.8159,-4.8252,-4.4616,0.0,-4.6709,-4.6397,0.0,0.0,0.0,0.0,0.0,0.0,0.0,0.0,-5.216,-5.3739,-5.4546,-5.3849,-5.484,-5.5317,-5.462,-5.4546,-5.4876,-5.5684,-5.4987,-5.4913,-5.5794,-5.5816,-5.5757,-5.589,-5.5757,-5.6088,-5.6785,-5.6822,-5.7152,-5.785,-5.796,-5.7997,-5.7997,-5.7997,-5.7997,-5.7997,-5.7997,-5.7997,-5.7997,-5.7997,-5.7997,-5.7997,-5.7997,-5.7997,-5.7997,-5.7997,-5.7997,-5.7997,-5.7997,-5.7997,-5.7997,-5.7997,-5.7997,-5.7997,-5.7997,-5.7997,-5.7997,-5.7997,-5.7997,-5.8143,-5.8854,-5.9111,-5.9368,-6.0089,-6.0272,-6.0309,-6.0382,-6.0346,-6.0309,-6.0382,-6.0419,-6.0126,-5.9221,-5.9038,-5.8841,-5.8107,-5.7997,-5.7997,-5.7997,-5.7997,-5.7997,-5.7997,-5.7997,-5.7997,-5.7997,-5.7997,-5.7997,-5.7997,-5.7997,-5.7997,-5.7997,-5.7997,-5.7997,-5.7997,-5.7997,-5.7997,-5.7997,-5.7997,-5.7997,-5.7997,-5.7997,-5.7997,0.0,0.0,0.0,0.0,0.0,0.0,-4.4929,-4.4635,-4.5186,0.0,0.0,0.0,0.0,0.0,0.0,0.0,-4.759,0.0,0.0,0.0,-5.161,0.0,0.0,0.0,-5.3041,-5.3004,-5.3518,-5.4803,-5.3739,-5.3775,-5.55,-5.5133,-5.5317,-5.6271,-5.6308,-5.6675,-5.7483,-5.7483,-5.7666,-5.7997,-5.7997,-5.7997,-5.7997,-5.7997,-5.7997,-5.7997,-5.7997,-5.7997,-5.7997,-5.7997,-5.7997,-5.7997,-5.7997,-5.7997,-5.7997,-5.7997,-5.7997,-5.7997,-5.7997,-5.7997,-5.7997,-5.7997,-5.7997,-5.7997,-5.7997,-5.7997,-5.7997,-5.7997,-5.8327,-5.8767,-5.9111,-5.9905,-6.0676,-6.1006,-6.108,-6.1227,-6.1704,-6.1447,-6.1227,-6.1704,-6.1814,-6.1557,-6.075,-6.0236,-5.9795,-5.9428,-5.8988,-5.8694,-5.8694,-5.829,-5.7997,-5.7997,-5.7997,-5.7997,-5.7997,-5.7997,-5.7997,-5.7997,-5.7997,-5.7997,-5.7997,-5.7997,-5.7997,-5.7997,-5.7997,-5.7997,-5.7997,-5.7997,-5.7997,-5.7997,-5.7997,-5.7997,-5.1756,0.0,0.0,0.0,0.0,0.0,0.0,0.0,-4.4672,0.0,0.0,0.0,0.0,0.0,0.0,0.0,0.0,-4.6489,0.0,0.0,0.0,0.0,0.0,0.0,0.0,-5.1242,-5.1646,-5.3298,-5.1903,-5.205,-5.4473,-5.4069,-5.4583,-5.6418,-5.6455,-5.6969,-5.7997,-5.7997,-5.7997,-5.7997,-5.7997,-5.7997,-5.7997,-5.7997,-5.7997,-5.7997,-5.7997,-5.7997,-5.7997,-5.7997,-5.7997,-5.7997,-5.7997,-5.7997,-5.7997,-5.7997,-5.7997,-5.7997,-5.7997,-5.7997,-5.7997,-5.7997,-5.7997,-5.7997,-5.7997,-5.8143,-5.8327,-5.8327,-5.8914,-5.9588,-5.9795,-6.0713,-6.1667,-6.1887,-6.1924,-6.2034,-6.2401,-6.2181,-6.2034,-6.2401,-6.2658,-6.2622,-6.2034,-6.1263,-6.0639,-6.0419,-5.9905,-5.9441,-5.9221,-5.8694,-5.8253,-5.8033,-5.7997,-5.7997,-5.7997,-5.7997,-5.7997,-5.7997,-5.7997,-5.7997,-5.7997,-5.7997,-5.7997,-5.7997,-5.7997,-5.7997,-5.7997,-5.7997,-5.7997,-5.7997,-5.7997,-5.7997,0.0,0.0,0.0,-4.9517,0.0,0.0,0.0,0.0,-4.6562,0.0,0.0,0.0,0.0,0.0,0.0,0.0,0.0,0.0,0.0,0.0,0.0,0.0,0.0,0.0,0.0,-4.937,-4.9114,0.0,-4.937,-4.9517,-5.1977,-5.2087,-5.3151,-5.5537,-5.5647,-5.6381,-5.796,-5.7997,-5.7997,-5.7997,-5.7997,-5.7997,-5.7997,-5.7997,-5.7997,-5.7997,-5.7997,-5.7997,-5.7997,-5.7997,-5.7997,-5.7997,-5.7997,-5.7997,-5.7997,-5.7997,-5.7997,-5.7997,-5.7997,-5.7997,-5.7997,-5.7997,-5.7997,-5.7997,-5.7997,-5.8547,-5.9148,-5.9148,-5.9758,-6.0529,-6.13,-6.1557,-6.1777,-6.2585,-6.2768,-6.2585,-6.1777,-6.2218,-6.2548,-6.1777,-6.2291,-6.278,-6.2743,-6.2108,-6.13,-6.0529,-6.0382,-6.0089,-5.9294,-5.9184,-5.8854,-5.807,-5.7997,-5.7997,-5.7997,-5.7997,-5.7997,-5.7997,-5.7997,-5.7997,-5.7997,-5.7997,-5.7997,-5.7997,-5.7997,-5.7997,-5.7997,-5.7997,-5.7997,-5.7997,-5.7997,-5.7997,0.0,0.0,-5.55,-5.1683,0.0,0.0,0.0,0.0,0.0,0.0,0.0,0.0,0.0,0.0,0.0,0.0,0.0,0.0,0.0,0.0,0.0,0.0,0.0,0.0,0.0,0.0,0.0,-4.9978,-4.9958,0.0,-5.1903,-5.3004,-5.4216,-5.5537,-5.6124,-5.6895,-5.7997,-5.7997,-5.7997,-5.7997,-5.7997,-5.7997,-5.7997,-5.7997,-5.7997,-5.7997,-5.7997,-5.7997,-5.7997,-5.7997,-5.7997,-5.7997,-5.7997,-5.7997,-5.7997,-5.7997,-5.7997,-5.7997,-5.7997,-5.7997,-5.7997,-5.7997,-5.7997,-5.8107,-5.8621,-5.8964,-5.9294,-5.9832,-6.0566,-6.1263,-6.152,-6.1998,-6.2475,-6.2768,-6.278,-6.2732,-6.2475,-6.2622,-6.2707,-6.2438,-6.2622,-6.278,-6.278,-6.2585,-6.2291,-6.2034,-6.1557,-6.108,-6.0823,-6.0309,-5.9685,-5.8877,-5.8804,-5.8584,-5.8033,-5.7997,-5.7997,-5.7997,-5.7997,-5.7997,-5.7997,-5.7997,-5.7997,-5.7997,-5.7997,-5.7997,-5.7997,-5.7997,-5.7997,-5.7997,-5.7997,-5.7997,-5.6088,-5.6602,0.0,-5.3922,-5.2894,0.0,-4.7976,0.0,-4.8727,0.0,0.0,0.0,0.0,0.0,0.0,0.0,0.0,0.0,0.0,-4.4782,0.0,0.0,0.0,0.0,0.0,0.0,-4.8196,-4.9077,-4.9077,0.0,0.0,-5.3115,-5.4473,-5.5596,-5.6381,-5.7189,-5.7997,-5.7997,-5.7997,-5.7997,-5.7997,-5.7997,-5.7997,-5.7997,-5.7997,-5.7997,-5.7997,-5.7997,-5.7997,-5.7997,-5.7997,-5.7997,-5.7997,-5.7997,-5.7997,-5.7997,-5.7997,-5.7997,-5.7997,-5.7997,-5.7997,-5.7997,-5.818,-5.851,-5.9038,-5.9588,-6.0162,-6.0676,-6.141,-6.2034,-6.2034,-6.2401,-6.278,-6.278,-6.278,-6.278,-6.278,-6.278,-6.278,-6.278,-6.278,-6.278,-6.278,-6.278,-6.278,-6.278,-6.2365,-6.1924,-6.163,-6.1153,-6.0529,-5.9698,-5.9648,-5.9428,-5.8914,-5.8841,-5.8841,-5.8841,-5.8841,-5.8841,-5.8841,-5.8584,-5.8437,-5.8437,-5.8143,-5.7997,-5.7997,-5.7997,-5.7997,-5.7997,-5.7997,-5.7997]},{"header":{"parameterUnit":"m.s-1","parameterCategory":1,"la1":30.6,"la2":29.2853,"lo1":-89.7004,"lo2":-87.6739,"dy":0.0162,"dx":0.0183,"nx":112,"ny":82,"refTime":"2025-03-11T06:00:00:Z","depth":0,"parameterNumber":3,"parameterNumberName":"V-component_of_WINDS"},"data":[0.0,0.0,0.0,0.0,0.0,0.0,0.0,0.0,0.0,0.0,0.0,0.0,0.0,0.0,0.0,0.0,0.0,0.0,0.0,0.0,0.0,0.0,0.0,0.0,0.0,0.0,0.0,0.0,0.0,0.0,0.0,0.0,0.0,0.0,0.0,0.0,0.0,0.0,0.0,0.0,0.0,0.0,0.0,0.0,0.0,0.0,0.0,0.0,0.0,0.0,0.0,0.0,0.0,0.0,0.0,0.0,0.0,0.0,0.0,0.0,0.0,0.0,0.0,0.0,0.0,0.0,0.0,0.0,0.0,0.0,0.0,0.0,0.0,0.0,0.0,0.0,0.0,0.0,0.0,0.0,0.0,0.0,0.0,0.0,0.0,0.0,0.0,0.0,0.0,0.0,1.4607,1.3769,1.5007,1.5982,1.6199,1.6018,1.5116,1.324,0.0,0.0,0.0,0.0,0.0,0.0,0.0,0.0,0.0,0.0,0.0,0.0,0.0,0.0,0.0,0.0,0.0,0.0,0.0,0.0,0.0,0.0,0.0,0.0,0.0,0.0,0.0,0.0,0.0,0.0,0.0,0.0,0.0,0.0,0.0,0.0,0.0,0.0,0.0,0.0,0.0,0.0,0.0,0.0,0.0,0.0,0.0,0.0,0.0,0.0,0.0,0.0,0.0,0.0,0.0,0.0,0.0,0.0,0.0,0.0,0.0,0.0,0.0,0.0,0.0,0.0,0.0,0.0,0.0,0.0,0.0,0.0,0.0,0.0,0.0,0.0,0.0,0.0,0.0,0.0,0.0,0.0,0.0,0.0,0.0,0.0,0.0,0.0,0.0,0.0,0.0,0.0,0.0,0.0,0.0,0.0,0.0,0.0,0.0,0.0,0.0,0.0,0.0,0.0,1.4461,1.5374,1.576,1.591,1.5946,1.591,1.5387,1.4171,0.0,0.0,0.0,0.0,0.0,0.0,0.0,0.0,0.0,0.0,0.0,0.0,0.0,0.0,0.0,0.0,0.0,0.0,0.0,0.0,0.0,0.0,0.0,0.0,0.0,0.0,0.0,0.0,0.0,0.0,0.0,0.0,0.0,0.0,0.0,0.0,0.0,0.0,0.0,0.0,0.0,0.0,0.0,0.0,0.0,0.0,0.0,0.0,0.0,0.0,0.0,0.0,0.0,0.0,0.0,0.0,0.0,0.0,0.0,0.0,0.0,0.0,0.0,0.0,0.0,0.0,0.0,0.0,0.0,0.0,0.0,0.0,0.0,0.0,0.0,0.0,0.0,0.0,0.0,0.0,0.0,0.0,0.0,0.0,0.0,0.0,0.0,0.0,0.0,0.0,0.0,0.0,0.0,0.0,0.0,0.0,0.0,0.0,0.0,0.0,0.0,0.0,0.0,1.428,1.4739,1.5777,1.5885,1.5885,1.5885,1.5885,1.5439,1.4364,1.4159,0.0,0.0,0.0,0.0,0.0,0.0,0.0,0.0,0.0,0.0,0.0,0.0,0.0,0.0,0.0,0.0,0.0,0.0,0.0,0.0,0.0,0.0,0.0,0.0,0.0,0.0,0.0,0.0,0.0,0.0,0.0,0.0,0.0,0.0,0.0,0.0,0.0,0.0,0.0,0.0,0.0,0.0,0.0,0.0,0.0,0.0,0.0,0.0,0.0,0.0,0.0,0.0,0.0,0.0,0.0,0.0,0.0,0.0,0.0,0.0,0.0,0.0,0.0,0.0,0.0,0.0,0.0,0.0,0.0,0.0,0.0,0.0,0.0,0.0,0.0,0.0,0.0,0.0,0.0,0.0,0.0,0.0,0.0,0.0,0.0,0.0,0.0,0.0,0.0,0.0,0.0,0.0,0.0,0.0,0.0,0.0,0.0,0.0,0.0,0.0,0.0,0.0,1.4956,1.5221,1.5825,1.5885,1.5885,1.5885,1.5777,1.5306,1.4352,1.387,0.0,0.0,0.0,0.0,0.0,0.0,0.0,0.0,0.0,0.0,0.0,0.0,0.0,0.0,0.0,0.0,0.0,0.0,0.0,0.0,0.0,0.0,0.0,0.0,0.0,0.0,0.0,0.0,0.0,0.0,0.0,0.0,0.0,0.0,0.0,0.0,0.0,0.0,0.0,0.0,0.0,0.0,0.0,0.0,0.0,0.0,0.0,0.0,0.0,0.0,0.0,0.0,0.0,0.0,0.0,0.0,0.0,0.0,0.0,0.0,0.0,0.0,0.0,0.0,0.0,0.0,0.0,0.0,0.0,0.0,0.0,0.0,0.0,0.0,0.0,0.0,0.0,0.0,0.0,0.0,0.0,0.0,0.0,0.0,0.0,0.0,0.0,0.0,0.0,0.0,0.0,0.0,0.0,0.0,0.0,0.0,0.0,0.0,0.0,0.0,0.0,0.0,1.5209,1.5825,1.5885,1.5885,1.5885,1.5885,1.5439,1.492,1.4328,1.335,0.0,0.0,0.0,0.0,0.0,0.0,0.0,0.0,0.0,0.0,0.0,0.0,0.0,0.0,0.0,0.0,0.0,0.0,0.0,0.0,0.0,0.0,0.0,0.0,0.0,0.0,0.0,0.0,0.0,0.0,0.0,0.0,0.0,0.0,0.0,0.0,0.0,0.0,0.0,0.0,0.0,0.0,0.0,0.0,0.0,0.0,0.0,0.0,0.0,0.0,0.0,0.0,0.0,0.0,0.0,0.0,0.0,0.0,0.0,0.0,0.0,0.0,0.0,0.0,0.0,0.0,0.0,0.0,0.0,0.0,0.0,0.0,0.0,0.0,0.0,0.0,0.0,0.0,0.0,0.0,0.0,0.0,0.0,0.0,0.0,0.0,0.0,0.0,0.0,0.0,0.0,0.0,0.0,0.0,0.0,0.0,0.0,0.0,0.0,0.0,0.0,0.0,1.5395,1.5992,0.0,1.6164,1.6111,1.5885,1.5559,1.498,1.4111,0.0,0.0,0.0,0.0,0.0,0.0,0.0,0.0,0.0,0.0,0.0,0.0,0.0,0.0,0.0,0.0,0.0,0.0,0.0,0.0,0.0,0.0,0.0,0.0,0.0,0.0,0.0,0.0,0.0,0.0,0.0,0.0,0.0,0.0,0.0,0.0,0.0,0.0,0.0,0.0,0.0,0.0,0.0,0.0,0.0,0.0,0.0,0.0,0.0,0.0,0.0,0.0,0.0,0.0,0.0,0.0,0.0,0.0,0.0,0.0,0.0,0.0,0.0,0.0,0.0,0.0,0.0,0.0,0.0,0.0,0.0,0.0,0.0,0.0,0.0,0.0,0.0,0.0,0.0,0.0,0.0,0.0,0.0,0.0,0.0,0.0,0.0,0.0,0.0,0.0,0.0,0.0,0.0,0.0,0.0,0.0,0.0,0.0,0.0,0.0,0.0,0.0,1.4756,1.5745,1.6366,0.0,1.6377,1.6217,1.6045,1.5551,1.4859,1.3966,0.0,0.0,0.0,0.0,0.0,0.0,0.0,0.0,0.0,0.0,0.0,0.0,0.0,0.0,0.0,0.0,0.0,0.0,0.0,0.0,0.0,0.0,0.0,0.0,0.0,0.0,0.0,0.0,0.0,0.0,0.0,0.0,0.0,0.0,0.0,0.0,0.0,0.0,0.0,0.0,0.0,0.0,0.0,0.0,0.0,0.0,0.0,0.0,0.0,0.0,0.0,0.0,0.0,0.0,0.0,0.0,0.0,0.0,0.0,0.0,0.0,0.0,0.0,0.0,0.0,0.0,0.0,0.0,0.0,0.0,0.0,0.0,0.0,0.0,0.0,0.0,0.0,0.0,0.0,0.0,0.0,0.0,0.0,0.0,0.0,0.0,0.0,0.0,0.0,0.0,0.0,0.0,0.0,0.0,0.0,0.0,0.0,0.0,0.0,0.0,0.0,0.0,1.5092,1.6343,1.7095,1.6762,1.6483,1.6324,1.6324,1.5326,1.4485,0.0,0.0,0.0,0.0,0.0,0.0,0.0,0.0,0.0,0.0,0.0,0.0,0.0,0.0,0.0,0.0,0.0,0.0,0.0,0.0,0.0,0.0,0.0,0.0,0.0,0.0,0.0,0.0,0.0,0.0,0.0,0.0,0.0,0.0,0.0,0.0,0.0,0.0,0.0,0.0,0.0,0.0,0.0,0.0,0.0,0.0,0.0,0.0,0.0,0.0,0.0,0.0,0.0,0.0,0.0,0.0,0.0,0.0,0.0,0.0,0.0,0.0,0.0,0.0,0.0,0.0,0.0,0.0,0.0,0.0,0.0,0.0,0.0,0.0,0.0,0.0,0.0,0.0,0.0,0.0,0.0,0.0,0.0,0.0,0.0,0.0,0.0,0.0,0.0,0.0,0.0,0.0,0.0,0.0,0.0,0.0,0.0,0.0,0.0,0.0,0.0,0.0,0.0,1.5339,1.6623,1.7357,1.7067,1.6961,1.6855,1.6577,1.5946,1.5083,1.3952,0.0,0.0,0.0,0.0,0.0,0.0,0.0,0.0,0.0,0.0,0.0,0.0,0.0,0.0,0.0,0.0,0.0,0.0,0.0,0.0,0.0,0.0,0.0,0.0,0.0,0.0,0.0,0.0,0.0,0.0,0.0,0.0,0.0,0.0,0.0,0.0,0.0,0.0,0.0,0.0,0.0,0.0,0.0,0.0,0.0,0.0,0.0,0.0,0.0,0.0,0.0,0.0,0.0,0.0,0.0,0.0,0.0,0.0,0.0,0.0,0.0,0.0,0.0,0.0,0.0,0.0,0.0,0.0,0.0,0.0,0.0,0.0,0.0,0.0,0.0,0.0,0.0,0.0,0.0,0.0,0.0,0.0,0.0,0.0,0.0,0.0,0.0,0.0,0.0,0.0,0.0,0.0,0.0,0.0,0.0,0.0,0.0,0.0,0.0,0.0,0.0,0.0,1.5563,1.6866,1.7676,1.7397,1.7279,1.712,1.6895,1.6279,1.5377,1.4113,0.0,0.0,0.0,0.0,0.0,0.0,0.0,0.0,0.0,0.0,0.0,0.0,0.0,0.0,0.0,0.0,0.0,0.0,0.0,0.0,0.0,0.0,0.0,0.0,0.0,0.0,0.0,0.0,0.0,0.0,0.0,0.0,0.0,0.0,0.0,0.0,0.0,0.0,0.0,0.0,0.0,0.0,0.0,0.0,0.0,0.0,0.0,0.0,0.0,0.0,0.0,0.0,0.0,0.0,0.0,0.0,0.0,0.0,0.0,0.0,0.0,0.0,0.0,0.0,0.0,0.0,0.0,0.0,0.0,0.0,0.0,0.0,0.0,0.0,0.0,0.0,0.0,0.0,0.0,0.0,0.0,0.0,0.0,0.0,0.0,0.0,0.0,0.0,0.0,0.0,0.0,0.0,0.0,0.0,0.0,0.0,0.0,0.0,0.0,0.0,0.0,0.0,1.5752,1.705,1.7903,1.7609,1.7384,1.7226,1.7226,1.6433,1.5488,1.4378,0.0,0.0,0.0,0.0,0.0,0.0,0.0,0.0,0.0,0.0,0.0,0.0,0.0,0.0,0.0,0.0,0.0,0.0,0.0,0.0,0.0,0.0,0.0,0.0,0.0,0.0,0.0,0.0,0.0,0.0,0.0,0.0,0.0,0.0,0.0,0.0,0.0,0.0,0.0,0.0,0.0,0.0,0.0,0.0,0.0,0.0,0.0,0.0,0.0,0.0,0.0,0.0,0.0,0.0,0.0,0.0,0.0,0.0,0.0,0.0,1.6459,1.6214,0.0,0.0,0.0,0.0,0.0,0.0,0.0,0.0,0.0,0.0,0.0,0.0,0.0,0.0,0.0,0.0,0.0,0.0,0.0,0.0,0.0,0.0,0.0,0.0,0.0,0.0,0.0,0.0,0.0,0.0,0.0,0.0,0.0,0.0,0.0,0.0,0.0,0.0,0.0,0.0,1.5678,1.6914,1.7662,1.7595,1.7529,1.7529,1.7529,1.6894,1.6055,1.4995,1.3913,0.0,0.0,0.0,0.0,0.0,0.0,0.0,0.0,0.0,0.0,0.0,0.0,0.0,0.0,0.0,0.0,0.0,0.0,0.0,0.0,0.0,0.0,0.0,0.0,0.0,0.0,0.0,0.0,0.0,0.0,0.0,0.0,0.0,0.0,0.0,0.0,0.0,0.0,0.0,0.0,0.0,0.0,0.0,0.0,0.0,0.0,0.0,0.0,0.0,0.0,0.0,0.0,0.0,0.0,0.0,0.0,0.0,0.0,0.0,1.6806,1.651,0.0,0.0,0.0,0.0,0.0,0.0,0.0,0.0,0.0,0.0,0.0,0.0,0.0,0.0,0.0,0.0,0.0,0.0,0.0,0.0,0.0,0.0,0.0,0.0,0.0,0.0,0.0,0.0,0.0,0.0,0.0,0.0,0.0,0.0,0.0,0.0,0.0,0.0,0.0,0.0,1.5664,1.686,1.7582,1.7582,1.7582,1.7582,1.7582,1.7048,1.6344,1.5504,1.4379,0.0,0.0,0.0,0.0,0.0,0.0,0.0,0.0,0.0,0.0,0.0,0.0,0.0,0.0,0.0,0.0,0.0,0.0,0.0,0.0,0.0,0.0,0.0,0.0,0.0,0.0,0.0,0.0,0.0,0.0,0.0,0.0,0.0,0.0,0.0,0.0,0.0,0.0,0.0,0.0,0.0,0.0,0.0,0.0,0.0,0.0,0.0,0.0,0.0,0.0,0.0,0.0,0.0,1.7407,1.7554,1.7742,1.7742,1.7876,1.8035,1.7341,1.6998,1.6911,1.6624,0.0,0.0,0.0,0.0,0.0,0.0,0.0,0.0,0.0,0.0,0.0,0.0,0.0,0.0,0.0,0.0,0.0,0.0,0.0,0.0,0.0,0.0,1.5752,1.5939,1.6166,1.5891,1.4213,0.0,0.0,0.0,0.0,0.0,0.0,0.0,0.0,0.0,0.0,0.0,1.5792,1.6887,1.7582,1.7582,1.7582,1.7582,1.7582,1.7048,1.6473,1.5939,1.4856,1.4001,0.0,0.0,0.0,0.0,0.0,0.0,0.0,0.0,0.0,0.0,0.0,0.0,0.0,0.0,0.0,0.0,0.0,0.0,0.0,0.0,0.0,0.0,0.0,0.0,0.0,0.0,0.0,0.0,0.0,0.0,0.0,0.0,1.8838,1.8918,0.0,0.0,0.0,0.0,0.0,0.0,0.0,0.0,0.0,0.0,0.0,0.0,0.0,1.7259,1.7462,1.7729,1.7822,1.7903,1.8183,1.833,1.837,1.837,1.8397,1.8424,1.8303,0.0,1.7476,1.7436,0.0,0.0,0.0,0.0,0.0,0.0,0.0,0.0,0.0,0.0,0.0,0.0,0.0,0.0,0.0,0.0,0.0,0.0,0.0,0.0,0.0,0.0,1.6911,1.6647,1.662,1.6513,1.6032,1.5571,1.5012,1.4095,1.4001,1.3816,0.0,0.0,0.0,0.0,0.0,0.0,1.6099,1.7007,1.7582,1.7582,1.7582,1.7582,1.7582,1.7048,1.6567,1.6233,1.5397,1.4696,1.4362,1.3507,0.0,0.0,0.0,0.0,0.0,0.0,0.0,0.0,0.0,0.0,0.0,0.0,0.0,0.0,0.0,0.0,0.0,0.0,0.0,0.0,0.0,0.0,0.0,0.0,0.0,0.0,0.0,0.0,0.0,1.8945,1.9292,1.8958,1.8811,1.8611,0.0,0.0,0.0,0.0,0.0,0.0,0.0,0.0,0.0,1.7662,1.7649,1.7782,1.809,1.8223,1.837,1.8531,1.8664,1.8824,1.8985,1.8985,1.8985,1.8985,1.8985,1.8744,1.829,1.7782,1.7313,1.6777,0.0,0.0,0.0,0.0,1.6091,1.5883,1.6557,1.67,1.65,1.6032,0.0,0.0,0.0,0.0,0.0,0.0,0.0,1.6112,1.6273,1.674,1.7206,1.7194,1.7194,1.7168,1.7034,1.6673,1.612,1.503,1.495,1.4683,1.3454,1.3427,0.0,0.0,0.0,1.5712,1.642,1.7141,1.7582,1.7582,1.7582,1.7582,1.7582,1.7048,1.6647,1.6526,1.5698,1.515,1.5017,1.4322,1.3654,0.0,0.0,0.0,0.0,0.0,0.0,0.0,0.0,0.0,0.0,0.0,0.0,0.0,0.0,0.0,0.0,0.0,0.0,0.0,0.0,0.0,0.0,0.0,0.0,0.0,0.0,0.0,0.0,1.9252,1.9586,1.8998,1.9052,1.8891,0.0,0.0,0.0,0.0,0.0,0.0,1.8156,1.837,1.8475,1.8542,1.8517,1.8584,1.8824,1.8758,1.8824,1.9038,1.9038,1.9158,1.943,1.943,1.943,1.943,1.943,1.9239,1.8985,1.8237,1.7702,1.7341,1.6887,1.654,1.6339,1.686,1.6914,1.6834,1.7569,1.7622,1.7301,1.6874,1.6567,1.6259,1.5651,0.0,0.0,0.0,0.0,1.6616,1.686,1.7101,1.7367,1.7528,1.7582,1.7582,1.7582,1.746,1.7005,1.5939,1.5845,1.5551,1.4266,1.4269,0.0,1.4522,0.0,1.6152,1.674,1.7261,1.7582,1.7582,1.7582,1.7555,1.7475,1.7007,1.6673,1.6607,1.5912,1.5511,1.5511,1.5017,1.4362,1.3561,0.0,0.0,0.0,0.0,0.0,0.0,0.0,0.0,0.0,0.0,0.0,0.0,0.0,0.0,0.0,0.0,0.0,0.0,0.0,0.0,0.0,0.0,0.0,0.0,0.0,0.0,0.0,0.0,0.0,1.8998,1.9412,0.0,0.0,0.0,0.0,1.8838,1.8865,1.9118,1.9653,1.9706,1.984,2.0047,1.9853,1.972,1.9733,1.9466,1.939,1.9345,1.9345,1.9359,1.943,1.943,1.943,1.943,1.943,1.9417,1.9377,1.8985,1.8462,1.7942,1.7943,1.7756,1.7528,1.7809,1.7916,1.7955,1.833,1.825,1.7942,1.7916,1.7329,1.6673,1.6633,1.6433,0.0,0.0,1.686,1.7219,1.7514,1.7555,1.7569,1.7582,1.7582,1.7582,1.7582,1.7569,1.7382,1.6767,1.6433,1.6046,1.5418,0.0,1.5431,1.5698,1.6032,1.6509,1.7099,1.7395,1.7582,1.7582,1.7582,1.7527,1.7246,1.6887,1.658,1.6362,1.5992,1.5758,1.5758,1.5511,1.507,1.4469,1.3601,0.0,0.0,0.0,0.0,0.0,0.0,0.0,0.0,0.0,0.0,0.0,0.0,0.0,0.0,0.0,0.0,0.0,0.0,0.0,0.0,0.0,0.0,0.0,0.0,0.0,0.0,0.0,0.0,1.9813,2.0281,0.0,1.9412,1.9332,1.9292,1.9212,1.9386,1.9573,1.9786,2.016,2.0414,2.0508,2.0227,2.008,2.008,1.9599,1.943,1.943,1.943,1.943,1.943,1.943,1.943,1.943,1.943,1.943,1.9417,1.9252,1.8971,1.8542,1.8397,1.8263,1.8183,1.829,1.833,1.8343,1.845,1.829,1.7996,1.7809,1.7528,1.7275,1.7275,1.7194,1.7141,1.7235,1.7341,1.7501,1.7555,1.7582,1.7582,1.7582,1.7582,1.7582,1.7582,1.7582,1.7515,1.7315,1.7085,1.6697,1.6059,1.6112,1.6206,1.6126,1.6526,1.7032,1.7434,1.7515,1.7582,1.7582,1.7582,1.7514,1.7233,1.6874,1.658,1.6335,1.5992,1.5784,1.5784,1.5551,1.5124,1.4536,1.38,1.2959,0.0,0.0,0.0,0.0,0.0,0.0,0.0,0.0,0.0,0.0,0.0,0.0,0.0,0.0,0.0,0.0,0.0,0.0,0.0,0.0,0.0,0.0,0.0,0.0,0.0,0.0,2.0708,2.0414,2.0989,2.1056,2.0174,2.0094,2.0054,1.996,2.004,2.0187,2.0388,2.0762,2.0975,2.0975,2.0588,2.0334,2.0167,1.9653,1.943,1.943,1.943,1.943,1.943,1.943,1.943,1.943,1.943,1.943,1.943,1.943,1.9252,1.9052,1.8865,1.8784,1.8784,1.8784,1.8784,1.8758,1.8557,1.8357,1.8116,1.7716,1.7582,1.7582,1.7582,1.7582,1.7582,1.7582,1.7582,1.7582,1.7582,1.7582,1.7582,1.7582,1.7582,1.7582,1.7582,1.7582,1.7582,1.7582,1.7474,1.7219,1.6831,1.6874,1.6941,1.679,1.7099,1.742,1.7555,1.7582,1.7582,1.7582,1.7582,1.7474,1.7085,1.6727,1.6433,1.6139,1.5752,1.5578,1.5671,1.5404,1.4977,1.4389,1.3694,1.2959,1.2208,0.0,0.0,0.0,0.0,0.0,0.0,0.0,0.0,0.0,0.0,0.0,0.0,0.0,0.0,0.0,0.0,0.0,0.0,0.0,0.0,0.0,0.0,0.0,1.9826,2.0588,2.1042,2.0762,2.1496,2.167,2.0815,2.0722,2.0828,2.1109,2.0855,2.0935,2.1574,2.1614,2.1614,2.1614,2.0989,2.0548,2.0193,1.9666,1.943,1.943,1.943,1.943,1.943,1.943,1.943,1.943,1.943,1.943,1.943,1.943,1.943,1.943,1.943,1.943,1.943,1.943,1.943,1.9279,1.8691,1.849,1.8384,1.7782,1.7582,1.7582,1.7582,1.7582,1.7582,1.7582,1.7582,1.7582,1.7582,1.7582,1.7582,1.7582,1.7582,1.7582,1.7582,1.7582,1.7582,1.7582,1.7582,1.7582,1.7582,1.7582,1.7582,1.7582,1.7582,0.0,1.7582,1.7582,1.7582,1.7582,1.7582,1.7341,1.6754,1.6446,1.6152,1.5784,1.5284,1.5142,1.5378,1.5156,1.4727,1.4095,1.3253,1.2797,1.2797,0.0,0.0,0.0,0.0,0.0,0.0,0.0,0.0,0.0,0.0,0.0,0.0,0.0,0.0,0.0,0.0,0.0,0.0,0.0,0.0,0.0,1.9679,2.0187,2.0401,2.1189,2.179,2.1924,2.2338,2.2445,2.1977,2.175,2.1577,2.1443,2.1162,2.1056,2.1229,2.1494,2.1614,2.1614,2.1189,2.0842,2.0561,1.9973,1.9573,1.943,1.943,1.943,1.943,1.943,1.943,1.943,1.943,1.943,1.943,1.943,1.943,1.943,1.943,1.943,1.943,1.943,1.943,1.9279,1.8691,1.849,1.8384,1.7782,1.7582,1.7582,1.7582,1.7582,1.7582,1.7582,1.7582,1.7582,1.7582,1.7582,1.7582,1.7582,1.7582,1.7582,1.7582,1.7582,1.7582,1.7582,1.7582,1.7582,1.7582,1.7582,1.7582,1.7582,1.7582,0.0,1.7582,1.7582,1.7582,1.7582,1.7582,1.7341,1.6754,1.6633,1.6286,1.5565,1.5364,1.5217,1.5129,1.4803,1.4469,1.4095,1.3427,1.308,0.0,0.0,0.0,0.0,0.0,0.0,0.0,0.0,0.0,0.0,0.0,0.0,0.0,0.0,0.0,0.0,0.0,0.0,0.0,0.0,0.0,0.0,2.0401,2.0975,2.1523,2.2031,2.2458,2.2766,2.2953,2.2939,2.2632,2.2231,2.1924,2.175,2.1349,2.1109,2.1109,2.1269,2.1363,2.1363,2.1082,2.0788,2.0494,2.0027,1.9653,1.943,1.943,1.943,1.943,1.943,1.943,1.943,1.943,1.943,1.943,1.943,1.943,1.943,0.0,0.0,0.0,0.0,1.9292,1.9118,1.8651,1.841,1.8223,1.7742,1.7582,1.7582,1.7582,1.7582,1.7582,1.7582,1.7582,1.7582,1.7582,1.7582,1.7582,1.7582,1.7582,1.7582,1.7582,1.7582,1.7582,1.7582,1.7582,0.0,1.7582,1.7582,1.7582,1.7582,1.7582,1.7582,1.7582,1.7582,1.7582,1.7582,1.7582,1.7341,1.6754,1.6593,0.0,0.0,0.0,1.4897,1.4603,1.4309,0.0,0.0,0.0,0.0,0.0,0.0,0.0,0.0,1.3534,1.348,0.0,0.0,0.0,0.0,0.0,0.0,0.0,0.0,0.0,0.0,0.0,0.0,0.0,0.0,0.0,0.0,2.1333,2.203,2.2914,2.3035,2.306,2.33,2.33,2.3166,2.2886,2.2365,2.2017,2.1991,2.147,2.1149,2.1109,2.1109,0.0,0.0,0.0,2.0575,2.018,1.9973,1.9693,1.943,1.943,1.943,1.943,1.943,1.943,1.943,1.943,1.943,1.943,1.943,1.943,1.943,1.943,1.943,1.943,1.943,1.9199,1.8931,1.8597,0.0,0.0,1.7689,1.7582,1.7582,1.7582,1.7582,1.7582,1.7582,1.7582,1.7582,1.7582,1.7582,1.7582,1.7582,1.7582,1.7582,1.7582,1.7582,1.7582,1.7582,1.7582,1.7582,1.7582,1.7582,1.7582,1.7582,1.7582,1.7582,1.7582,1.7582,1.7582,1.7582,0.0,0.0,1.6807,1.6486,1.6179,1.5798,1.5044,1.4456,1.4202,1.3935,1.3999,1.4563,1.4349,1.4496,1.5062,1.5337,1.5498,1.5471,1.4346,1.4146,0.0,0.0,0.0,0.0,0.0,0.0,0.0,0.0,0.0,0.0,0.0,0.0,0.0,0.0,0.0,2.1306,2.1871,2.2565,2.3474,2.3594,2.3527,2.3354,2.31,2.2926,2.2941,2.2539,2.2231,2.2004,2.1657,2.1363,2.1122,2.1109,2.1109,2.1109,2.1056,2.0775,2.0241,2.0174,1.988,1.943,1.943,0.0,1.943,1.943,1.943,1.943,1.943,1.943,1.943,1.943,1.943,1.943,1.943,1.943,1.943,1.943,1.939,1.9212,1.8677,1.845,1.8317,1.7756,1.7582,1.7582,1.7582,1.7582,0.0,1.7582,1.7582,1.7582,1.7582,1.7582,1.7582,1.7582,1.7582,1.7582,1.7582,1.7582,1.7582,1.7582,1.7582,1.7582,1.7582,1.7582,1.7582,1.7582,1.7582,1.7582,1.7582,1.7582,1.7582,1.7582,1.7582,1.7487,1.7139,1.6794,1.6393,1.5811,1.5231,1.4901,1.4834,1.4736,1.4763,1.4914,1.5057,1.5204,1.5311,1.5845,1.6147,1.6099,1.5618,1.5591,0.0,0.0,0.0,0.0,0.0,0.0,0.0,0.0,0.0,0.0,0.0,1.9893,2.0187,0.0,2.1349,2.215,2.2579,2.314,2.3875,2.3741,2.3554,2.3554,2.3273,2.3033,2.2873,2.2592,2.2298,2.2004,2.1775,2.143,2.1122,2.1109,2.1109,2.1109,2.1109,2.0828,2.0241,2.0167,1.9947,1.943,1.943,1.943,1.943,1.943,1.943,1.943,1.943,1.943,1.943,1.943,1.943,1.943,1.943,1.943,1.943,1.943,1.9279,1.9105,1.8811,1.8611,1.8424,1.7956,1.7809,1.7782,1.7622,1.7582,1.7582,1.7582,1.7582,1.7582,1.7582,1.7582,1.7582,1.7582,1.7582,1.7582,1.7582,1.7582,1.7582,1.7582,1.7582,1.7582,1.7582,1.7582,1.7582,1.7582,1.7582,1.7582,1.7582,1.7582,1.7582,1.7582,1.7582,1.7514,1.7233,1.679,1.6299,1.5811,1.5418,1.5156,1.5022,1.5008,1.5075,1.5223,1.5471,1.5685,1.5832,1.6482,1.6764,1.6764,1.6714,1.6714,0.0,0.0,0.0,0.0,0.0,0.0,0.0,0.0,1.9519,2.0107,2.0454,2.0815,2.1349,2.1884,2.2418,2.3021,2.33,2.3661,2.4142,2.3794,2.3567,2.3754,2.346,2.3166,2.2966,2.2632,2.2325,2.2084,2.175,2.143,2.1122,2.1109,2.1109,2.1109,2.1056,2.0775,2.0241,2.0174,1.988,1.943,1.943,1.943,1.943,1.943,1.943,1.943,1.943,1.943,1.943,1.943,1.943,1.943,1.943,1.943,1.943,1.943,1.9212,1.8998,1.8945,1.8731,1.845,1.8155,1.7995,1.7862,1.7729,1.7622,1.7582,1.7582,1.7582,1.7582,1.7582,1.7582,1.7582,1.7582,1.7582,1.7582,1.7582,1.7582,1.7582,1.7582,1.7582,1.7582,1.7582,1.7582,1.7582,1.7582,1.7582,1.7582,1.7582,1.7582,1.7582,1.7582,1.7582,1.7514,1.7233,1.6764,1.6313,1.6019,1.5778,1.5617,1.555,1.5636,1.5746,1.5844,1.6184,1.64,1.6496,1.7032,1.7286,1.7286,1.7475,1.7462,1.9733,1.9105,1.8704,1.9158,1.9292,1.9712,0.0,0.0,2.1029,2.1617,2.1977,2.2271,2.2605,2.2939,2.3287,2.3621,2.3915,2.4128,2.4195,2.4142,2.4022,2.3794,2.326,2.3006,2.3247,2.2752,2.2405,2.2378,2.1857,2.143,2.1122,2.1109,2.1109,2.1109,2.0855,2.0561,2.018,1.9973,1.9693,1.943,1.943,1.943,1.943,1.943,1.943,1.943,1.943,1.943,1.943,1.943,1.943,1.943,1.943,1.943,1.943,1.943,1.9403,1.9279,1.9011,1.8731,1.849,1.845,1.8076,1.7675,1.7862,1.7796,1.7582,1.7582,1.7582,1.7582,1.7582,1.7582,1.7582,1.7582,1.7582,1.7582,1.7582,1.7582,1.7582,1.7582,1.7582,1.7582,1.7582,1.7582,1.7582,1.7582,1.7582,1.7582,1.7582,1.7582,1.7582,1.7582,1.7582,1.7514,1.7233,1.7139,1.6978,1.662,1.658,1.6813,1.7471,1.7829,1.7858,1.7515,1.8143,1.8023,1.7099,1.7434,1.7542,1.7542,1.7569,1.7569,2.0388,2.004,0.0,0.0,2.0508,2.1096,2.1884,2.1964,2.2044,2.2645,2.2859,2.3033,2.334,2.3634,2.3875,0.0,2.4262,2.4449,2.4449,2.4168,2.3848,2.3554,2.2979,2.2726,2.3033,2.2832,2.2539,2.2191,2.1777,2.143,2.1122,2.1109,2.1109,2.1109,2.0989,2.0708,2.018,2.0107,1.9826,1.943,1.943,1.943,1.943,1.943,1.943,1.943,1.943,1.943,1.943,1.943,1.943,1.943,1.943,1.943,1.943,1.943,1.943,1.9319,1.9025,1.8838,1.8691,1.8343,1.8063,1.7836,1.7796,1.7689,1.7582,1.7582,1.7582,1.7582,1.7582,1.7582,1.7582,1.7582,1.7582,1.7582,1.7582,1.7582,1.7582,1.7582,1.7582,1.7582,1.7582,1.7582,1.7582,1.7582,1.7582,1.7582,1.7582,1.7582,1.7582,1.7582,1.7582,1.7528,1.746,1.73,1.7395,1.7865,1.7796,1.812,1.9059,1.9231,1.9246,1.9107,1.9521,1.9502,1.9063,1.939,1.9539,1.9539,1.9539,1.9539,2.0535,0.0,0.0,2.0944,2.1577,2.2311,2.2605,2.2726,2.2939,2.346,2.3567,2.3634,2.3848,2.4062,2.4209,2.4209,2.4382,2.4516,2.4516,2.4088,2.3634,2.3247,2.2739,2.2472,2.2605,2.2552,2.2365,2.2017,2.1643,2.1336,2.1122,2.1109,2.1109,2.1109,2.0949,2.0668,2.018,2.0067,1.9786,1.943,1.943,1.943,1.943,1.943,1.943,1.943,1.943,1.943,1.943,1.943,1.943,1.943,1.943,1.943,1.943,1.943,1.943,1.9319,1.9025,1.8865,1.8731,1.8249,1.8063,1.7889,1.7756,1.7649,1.7582,1.7582,1.7582,1.7582,1.7582,1.7582,1.7582,1.7582,1.7582,1.7582,1.7582,1.7582,1.7582,1.7582,1.7582,1.7582,1.7582,1.7582,1.7582,1.7582,1.7582,1.7582,1.7582,1.7582,1.7582,1.7582,1.7582,1.7582,1.7582,1.7447,1.7623,1.8431,1.8571,1.8895,1.9595,2.0033,2.0033,1.9644,2.0221,2.0244,1.9639,2.0189,2.0261,2.0004,2.0004,2.0004,0.0,0.0,2.0815,2.1454,2.2258,2.2913,2.3233,2.3527,2.3808,2.4115,2.4182,2.4182,2.4195,2.4195,2.4209,2.4209,2.4209,2.4222,2.4222,2.3955,2.3554,2.2953,2.2605,2.2311,0.0,2.1764,2.1762,2.1964,2.1443,2.1122,2.1109,2.1109,2.1109,2.1109,2.0561,2.0193,2.0167,1.9679,1.9444,1.943,1.943,1.943,1.943,1.943,1.943,1.943,1.943,1.943,1.943,1.943,1.943,1.943,1.943,1.943,1.943,1.943,1.943,1.9319,1.9025,1.8744,1.8504,1.8477,1.8076,1.7649,1.7889,1.7822,1.7582,1.7582,1.7582,1.7582,1.7582,1.7582,1.7582,1.7582,1.7582,1.7582,1.7582,1.7582,1.7582,1.7582,1.7582,1.7582,1.7582,1.7582,1.7582,1.7582,1.7582,1.7582,1.7582,1.7582,1.7582,1.7582,1.7582,1.7582,1.7582,1.7569,1.7621,1.7621,1.8589,1.9015,1.8658,2.0061,2.0178,1.8644,2.0127,1.9834,1.7674,1.876,1.8708,1.7687,1.7687,1.7687,0.0,0.0,2.1977,2.2579,2.3247,2.3834,2.4128,2.4275,2.4369,2.4476,2.4342,2.4209,2.4209,2.4048,2.3915,2.3915,2.3915,2.3915,2.3915,2.3661,2.3247,2.2645,2.2512,0.0,0.0,0.0,0.0,2.1762,2.1336,2.1109,2.1109,2.1109,2.1109,2.1109,2.0735,2.0428,2.018,1.984,1.9559,1.943,1.943,1.943,1.943,1.943,1.943,1.943,1.943,1.943,1.943,1.943,1.943,1.943,1.943,1.943,1.943,1.943,1.9239,1.9038,1.8731,1.845,1.8156,1.7956,1.7756,1.7595,1.7702,1.7662,1.7582,1.7582,1.7582,1.7582,1.7582,1.7582,1.7582,1.7582,1.7582,1.7582,1.7582,1.7582,1.7582,1.7582,1.7582,1.7582,1.7582,1.7582,1.7582,1.7582,1.7582,1.7582,1.7582,1.7582,1.7582,1.7582,1.7582,1.7582,1.7582,1.7582,1.7898,1.8617,1.902,1.9494,2.0107,2.0609,2.0676,2.0158,2.0625,2.0518,1.9797,2.0158,2.0158,1.9797,1.9797,1.9797,2.1496,2.2151,2.2886,2.3487,2.4008,2.4409,2.4596,2.4636,2.4583,2.4369,2.4182,2.3955,2.3621,2.3327,2.3207,2.3407,2.3354,2.3367,2.3581,2.326,2.2819,2.2325,2.2144,2.1915,0.0,0.0,0.0,2.1582,2.1407,2.1235,2.1109,2.1109,2.1109,2.1109,2.0828,2.0535,2.018,1.9947,1.9653,1.943,1.943,1.943,1.943,1.943,1.943,1.943,1.943,1.943,1.943,1.943,1.943,1.943,1.943,1.943,1.943,1.943,1.9185,1.8878,1.8597,1.829,1.7942,1.7689,1.7582,1.7582,1.7582,1.7582,1.7582,1.7582,1.7582,1.7582,1.7582,1.7582,1.7582,1.7582,1.7582,1.7582,1.7582,1.7582,1.7582,1.7582,1.7582,1.7582,1.7582,1.7582,1.7582,1.7582,1.7582,1.7582,1.7582,1.7582,1.7582,1.7582,1.7582,1.7582,1.7582,1.7582,1.7884,1.8565,1.8968,1.9383,1.9694,2.0107,2.0107,1.9746,2.0107,2.0107,1.9694,2.0107,2.0107,1.9694,1.9694,1.9694,2.2231,2.2913,2.3514,2.4088,2.4436,2.4636,2.4636,2.4609,2.4436,2.3861,2.3714,2.3407,0.0,0.0,2.2164,2.2767,2.2592,2.2645,2.322,2.2806,2.2338,0.0,0.0,0.0,0.0,0.0,0.0,2.165,0.0,2.1488,2.1172,2.1109,2.1109,2.1109,2.0828,2.0535,2.018,1.9933,1.9639,1.943,1.943,1.943,1.943,1.943,1.943,1.943,1.943,1.943,1.943,1.943,1.943,1.943,1.943,1.943,1.943,1.943,1.9185,1.8878,1.8597,1.829,1.7942,1.7689,1.7582,1.7582,1.7582,1.7582,1.7582,1.7582,1.7582,1.7582,1.7582,1.7582,1.7582,1.7582,1.7582,1.7582,1.7582,1.7582,1.7582,1.7582,1.7582,1.7582,1.7582,1.7582,1.7582,1.7582,1.7582,1.7582,1.7582,1.7582,1.7582,1.7582,1.7582,1.7582,1.7582,1.7582,1.7582,1.7582,1.8565,1.867,1.7635,1.8565,1.867,1.7635,1.8603,1.8603,1.7582,1.8603,1.8603,1.7582,1.7582,1.7582,2.2913,2.3527,2.4062,2.4436,2.4583,2.4636,2.4636,2.4302,2.3888,2.3514,2.2913,2.2231,0.0,0.0,0.0,2.1963,2.2365,0.0,2.2953,2.2846,0.0,2.2338,0.0,2.2744,2.2368,2.2829,0.0,0.0,2.2104,2.1866,2.1488,2.1488,2.1362,2.1109,2.0828,2.0535,2.018,1.9733,1.9497,1.943,1.943,1.943,1.943,1.943,1.943,1.943,1.943,1.943,1.943,1.943,1.943,1.943,1.943,1.943,1.943,1.943,1.9185,1.8878,1.8597,1.829,1.7942,1.7689,1.7582,1.7582,1.7582,1.7582,1.7582,1.7582,1.7582,1.7582,1.7582,1.7582,1.7582,1.7582,1.7582,1.7582,1.7582,1.7582,1.7582,1.7582,1.7582,1.7582,1.7582,1.7582,1.7582,1.7582,1.7582,1.7582,1.7582,1.7582,1.7582,1.7582,1.7582,1.7582,1.7582,1.7582,1.7582,1.7582,1.7845,1.7898,1.7635,1.7845,1.7898,1.7635,1.7898,1.7898,1.7582,1.7898,1.7898,1.7582,1.7582,1.7582,2.3554,2.4048,2.4436,2.4596,2.4543,2.4382,2.4115,2.3701,2.314,2.2325,2.1857,0.0,0.0,0.0,0.0,0.0,0.0,0.0,2.2874,2.2752,2.2605,0.0,2.2898,0.0,2.2804,2.3228,2.3342,0.0,2.2377,2.1915,2.1614,2.1488,2.1299,2.1109,2.0949,2.0668,2.018,1.9653,1.943,1.943,1.943,1.943,1.943,1.943,1.943,1.943,1.943,1.943,1.943,1.943,1.943,1.943,1.943,1.943,1.943,1.943,1.9265,1.9078,1.8784,1.849,1.817,1.7729,1.7582,1.7582,1.7582,1.7582,1.7582,1.7582,1.7582,1.7582,1.7582,1.7582,1.7582,1.7582,1.7582,1.7582,1.7582,1.7582,1.7582,1.7582,1.7582,1.7582,1.7582,1.7582,1.7582,1.7582,1.7582,1.7582,1.7582,1.7582,1.7582,1.7582,1.7582,1.7582,1.7582,1.7582,1.7582,1.7582,1.7582,1.7582,1.7582,1.7582,1.7582,1.7582,1.7582,1.7582,1.7582,1.7582,1.7582,1.7582,1.7582,1.7582,2.4115,2.4449,2.4636,2.4636,2.4382,2.4008,2.3447,2.2966,2.2311,2.0895,0.0,2.0494,1.9452,1.976,2.0374,2.0962,0.0,2.1963,2.2807,2.2645,2.2472,2.2472,2.2844,2.314,2.3098,2.3346,2.3465,2.3107,2.2455,2.1971,2.1614,2.1299,2.1172,2.1109,2.1029,2.0748,2.0241,1.9653,1.943,1.943,1.943,1.943,1.943,1.943,1.943,1.943,1.943,1.943,1.943,1.943,1.943,1.943,1.943,1.943,1.943,1.943,1.943,1.9319,1.9025,1.8758,1.845,1.7836,1.7609,1.7582,1.7582,1.7582,1.7582,1.7582,1.7582,1.7582,1.7582,1.7582,1.7582,1.7582,1.7582,1.7582,1.7582,1.7582,1.7582,1.7582,1.7582,1.7582,1.7582,1.7582,1.7582,1.7582,1.7582,1.7582,1.7582,1.7582,1.7582,1.7582,1.7582,1.7582,1.7582,1.7582,1.7582,1.7582,1.7582,1.7582,1.7582,1.7582,1.7582,1.7582,1.7582,1.7582,1.7582,1.7582,1.7582,1.7582,1.7582,1.7582,2.4316,2.4596,2.4636,2.4636,2.4235,2.3754,2.3407,2.2338,0.0,0.0,0.0,1.9172,1.8718,1.9319,2.0067,2.0655,0.0,0.0,0.0,0.0,2.2779,0.0,0.0,0.0,0.0,2.3738,0.0,0.0,2.246,2.1938,2.1628,2.1551,2.1362,2.1109,2.0641,2.0334,2.0167,1.9653,1.943,1.943,1.943,1.943,1.943,1.943,1.943,1.943,1.943,1.943,1.943,1.943,1.943,1.943,1.943,1.943,1.943,1.943,1.943,1.9319,1.9025,1.8891,1.8744,1.8102,1.7796,1.7582,1.7582,1.7582,1.7582,1.7582,1.7582,1.7582,1.7582,1.7582,1.7582,1.7582,1.7582,1.7582,1.7582,1.7582,1.7582,1.7582,1.7582,1.7582,1.7582,1.7582,1.7582,1.7582,1.7582,1.7582,1.7582,1.7582,1.7582,1.7582,1.7582,1.7582,1.7582,1.7582,1.7582,1.7582,1.7582,1.7582,1.7582,1.7582,1.7582,1.7582,1.7582,1.7582,1.7582,1.7582,1.7582,1.7582,1.7582,1.7582,2.4449,2.4636,2.4596,2.4449,2.3968,2.334,2.2579,0.0,0.0,0.0,0.0,1.8557,1.8103,0.0,0.0,0.0,0.0,0.0,0.0,0.0,0.0,0.0,0.0,0.0,0.0,2.3795,2.3746,2.3084,2.2446,2.19,2.1628,2.1425,2.1299,2.1109,2.0695,2.0468,2.0468,1.988,1.9586,1.9586,1.9497,1.943,1.943,1.943,1.943,1.943,1.943,1.943,1.943,1.943,1.943,1.943,1.943,1.943,1.943,1.943,1.943,1.9403,1.9199,1.9052,1.8878,1.8542,1.8303,1.805,1.805,1.7943,1.7809,1.7822,1.7702,1.7582,1.7582,1.7582,1.7582,1.7582,1.7582,1.7582,1.7582,1.7582,1.7582,1.7582,1.7582,1.7582,1.7582,1.7582,1.7582,1.7582,1.7582,1.7582,1.7582,1.7582,1.7582,1.7582,1.7582,1.7582,1.7582,1.7582,1.7582,1.7582,1.7582,1.7582,1.7582,1.7582,1.7582,1.7582,1.7582,1.7582,1.7582,1.7582,1.7582,1.7582,1.7582,1.7582,2.4261,2.4435,2.4422,2.4275,2.3714,2.2913,2.1724,2.0722,0.0,0.0,1.8343,1.817,1.7756,0.0,0.0,0.0,0.0,0.0,0.0,0.0,0.0,0.0,0.0,0.0,0.0,2.3679,0.0,2.3049,2.2362,2.1787,2.1515,2.1235,2.1109,2.1109,2.0828,2.0681,2.0681,2.016,1.9893,1.9893,1.9599,1.9466,1.9452,1.9457,1.943,1.943,1.943,1.943,1.943,1.943,1.943,1.943,1.943,1.943,1.943,1.943,1.943,1.943,1.943,1.9212,1.9025,1.9025,1.8784,1.849,1.849,1.8317,1.8116,1.8143,1.7969,1.7769,1.7702,1.7689,1.7662,1.7595,1.7582,1.7582,1.7582,1.7582,1.7582,1.7582,1.7582,1.7582,1.7582,1.7582,1.7582,1.7582,1.7582,1.7582,1.7582,1.7582,1.7582,1.7582,1.7582,1.7582,1.7582,1.7582,1.7582,1.7582,1.7582,1.7582,1.7582,1.7582,1.7582,1.7582,1.7582,1.7582,1.7582,1.7582,1.7582,1.7582,1.7582,1.7582,2.3585,2.3849,2.4053,2.4203,2.3554,2.2592,2.1416,0.0,0.0,1.8222,1.7862,1.7729,1.7902,1.8022,0.0,0.0,0.0,0.0,0.0,0.0,0.0,0.0,0.0,0.0,0.0,2.3406,2.3351,2.3049,2.2173,2.1521,2.1186,2.1109,2.1109,2.1109,2.0828,2.0681,2.0681,2.0361,2.0127,2.0187,1.9893,1.976,1.9746,1.9492,1.943,1.943,1.943,1.943,1.943,1.943,1.943,1.943,1.943,1.943,1.943,1.943,1.943,1.943,1.943,1.9403,1.9332,1.9332,1.8945,1.849,1.849,1.8464,1.845,1.845,1.8424,1.8343,1.8022,1.7955,1.7876,1.7649,1.7582,1.7582,1.7582,1.7582,1.7582,1.7582,1.7582,1.7582,1.7582,1.7582,1.7582,1.7582,1.7582,1.7582,1.7582,1.7582,1.7582,1.7582,1.7582,1.7582,1.7582,1.7582,1.7582,1.7582,1.7582,1.7582,1.7582,1.7582,1.7582,1.7582,1.7582,1.7582,1.7582,1.7582,1.7582,1.7582,1.7582,1.7582,2.3383,2.3823,2.4001,2.3989,2.3394,2.2512,2.1162,0.0,1.9118,1.8169,1.7796,1.7622,1.7742,1.7769,1.8036,0.0,1.9105,1.9533,2.0535,0.0,0.0,0.0,0.0,0.0,0.0,0.0,2.3133,2.2457,2.2069,2.1603,2.1136,2.1109,2.1109,2.1109,2.1002,2.0935,2.0935,2.0641,2.0494,2.0494,2.0201,1.9973,1.98,1.9679,1.9533,1.943,1.943,1.943,1.943,1.943,1.943,1.943,1.943,1.943,1.943,1.943,1.943,1.943,1.943,1.943,1.943,1.943,1.9269,1.9011,1.9011,1.8891,1.8744,1.8744,1.8624,1.8464,1.8343,1.8129,1.7916,1.7662,1.7582,1.7582,1.7582,1.7582,1.7582,1.7582,1.7582,1.7582,1.7582,1.7582,1.7582,1.7582,1.7582,1.7582,1.7582,1.7582,1.7582,1.7582,1.7582,1.7582,1.7582,1.7582,1.7582,1.7582,1.7582,1.7582,1.7582,1.7582,1.7582,1.7582,1.7582,1.7582,1.7582,1.7582,1.7582,1.7582,1.7582,1.7582,2.29,2.3336,2.3619,2.3588,2.311,2.2245,0.0,0.0,1.8985,1.809,1.7729,1.7582,1.7582,1.7582,1.7756,0.0,1.8504,1.8891,1.9693,0.0,0.0,0.0,0.0,2.2214,0.0,2.3038,2.289,2.2031,2.1991,2.1737,2.1136,2.1109,2.1109,2.1109,2.1109,2.1109,2.1109,2.0909,2.0802,2.0802,2.0508,2.0214,1.992,1.984,1.9639,1.943,1.943,1.943,1.943,1.943,1.943,1.943,1.943,1.943,1.943,1.943,1.943,1.943,1.943,1.943,1.943,1.943,1.943,1.943,1.943,1.9225,1.9052,1.9052,1.8851,1.8624,1.8624,1.8397,1.8116,1.7903,1.7849,1.7849,1.7849,1.7849,1.7822,1.7742,1.7716,1.7689,1.7595,1.7582,1.7582,1.7582,1.7582,1.7582,1.7582,1.7582,1.7582,1.7582,1.7582,1.7582,1.7582,1.7582,1.7582,1.7582,1.7582,1.7582,1.7582,1.7582,1.7582,1.7582,1.7582,1.7582,1.7582,1.7582,1.7582,1.7582,1.7582,1.7582,2.1951,2.2325,2.2696,2.3125,2.2598,2.1683,0.0,1.9501,1.8677,1.7769,1.7582,1.7582,1.7582,1.7582,1.7689,1.7942,1.8488,1.9118,1.972,2.0307,0.0,0.0,0.0,2.1349,2.1937,2.2525,2.2619,2.2031,2.1991,0.0,2.1136,2.1109,2.1109,2.1109,2.1109,2.1109,2.1109,2.1109,2.1109,2.1096,2.0815,2.0521,2.0214,1.9933,1.9639,1.943,1.943,1.943,1.943,1.943,1.943,1.943,1.943,1.943,1.943,1.943,1.943,1.943,1.943,1.943,1.943,1.943,1.943,1.943,1.943,1.9417,1.9359,1.9359,1.9145,1.8918,1.8918,1.8704,1.849,1.8477,1.8477,1.8477,1.8477,1.8477,1.8397,1.8049,1.7995,1.7889,1.7635,1.7582,1.7582,1.7582,1.7582,1.7582,1.7582,1.7582,1.7582,1.7582,1.7582,1.7582,1.7582,1.7582,1.7582,1.7582,1.7582,1.7582,1.7582,1.7582,1.7582,1.7582,1.7582,1.7582,1.7582,1.7582,1.7582,1.7582,1.7582,1.7582,2.0612,2.1183,2.1653,2.1486,2.1215,2.0713,1.9594,1.9118,1.8664,1.7769,1.7582,1.7582,1.7582,1.7582,1.7822,1.8475,0.0,0.0,0.0,0.0,0.0,0.0,2.1697,2.2378,0.0,0.0,2.2699,2.2311,2.2098,2.1817,2.143,2.1216,2.1109,2.1109,2.1109,2.1109,2.1109,2.1109,2.1109,2.1109,2.0815,2.0521,2.0167,1.9933,1.9639,1.943,1.943,1.943,1.943,1.943,1.943,1.943,1.943,1.943,1.943,1.943,1.943,1.943,1.943,1.943,1.943,1.943,1.943,1.943,1.943,1.943,1.943,1.943,1.9305,1.9185,1.8971,1.8851,1.8731,1.8544,1.849,1.849,1.849,1.849,1.8464,1.837,1.8129,1.7955,1.7862,1.7716,1.7582,1.7582,1.7582,1.7582,1.7582,1.7582,1.7582,1.7582,1.7582,1.7582,1.7582,1.7582,1.7582,1.7582,1.7582,1.7582,1.7582,1.7582,1.7582,1.7582,1.7582,1.7582,1.7582,1.7582,1.7582,1.7582,1.7582,1.7582,0.0,2.0282,2.0772,2.0464,2.0367,2.0077,1.9128,1.8701,1.8397,1.7729,1.7582,1.7582,1.7582,1.7582,1.7769,1.833,1.8611,0.0,0.0,0.0,0.0,2.0815,0.0,0.0,0.0,2.2794,2.2739,2.2445,2.2151,2.1857,2.1628,2.1269,2.1109,2.1109,2.1109,2.1109,2.1109,2.1109,2.1109,2.1109,2.0815,2.0521,2.0167,1.9933,1.9639,1.943,1.943,1.943,0.0,1.943,1.943,1.943,1.943,1.943,1.943,1.943,1.943,1.943,1.943,1.943,1.943,1.943,1.943,1.943,1.943,1.943,1.943,1.943,1.943,1.9319,1.9132,1.9092,1.9052,1.8865,1.8824,1.8824,1.8824,1.8824,1.8784,1.8677,1.8504,1.8249,1.8035,1.7876,1.7702,1.7595,1.7582,1.7582,1.7582,1.7582,1.7582,1.7582,1.7582,1.7582,1.7582,1.7582,1.7582,1.7582,1.7582,1.7582,1.7582,1.7582,1.7582,1.7582,1.7582,1.7582,1.7582,1.7582,1.7582,1.7582,1.7582,1.7582,0.0,1.9435,1.9903,1.9916,1.9746,1.9487,1.8958,1.8368,0.0,1.7649,1.7582,1.7595,1.7609,1.7595,1.7609,1.7662,0.0,0.0,0.0,1.9733,0.0,0.0,2.171,0.0,2.2044,2.2539,2.2752,2.2472,2.2164,2.1871,2.1668,2.1283,2.1109,2.1109,2.1109,2.1109,2.1109,2.1109,2.1096,2.1069,2.0788,2.0494,2.0127,1.9907,1.9626,1.943,1.943,1.943,1.943,1.943,1.943,1.943,1.943,1.943,1.943,1.943,1.943,1.943,1.943,1.943,1.943,1.943,1.943,1.943,1.943,1.943,1.943,1.943,1.943,1.943,1.943,1.943,1.943,1.943,1.943,1.943,1.943,1.943,1.9292,1.9011,1.8945,1.8701,1.8155,1.8076,1.7956,1.7689,1.7649,1.7649,1.7649,1.7649,1.7649,1.7649,1.7622,1.7609,1.7609,1.7595,1.7582,1.7582,1.7582,1.7582,1.7582,1.7582,1.7582,1.7582,1.7582,1.7582,1.7582,1.7582,1.7582,1.7582,1.7582,1.7582,1.6851,0.0,1.8314,1.7906,1.8094,1.8345,0.0,1.7969,1.7902,1.7649,0.0,1.7649,1.7889,1.7742,1.7809,1.849,0.0,0.0,1.9225,0.0,0.0,2.2325,2.2579,2.2659,2.2659,2.2847,2.2901,2.2766,2.2271,2.1951,2.1884,2.139,2.1109,2.1109,2.1109,2.1109,2.1109,2.1109,2.1002,2.0775,2.0481,2.0187,1.9893,1.9599,1.9439,1.943,1.943,1.943,1.943,1.943,1.943,1.943,1.943,1.943,1.943,1.943,1.943,1.943,1.943,1.943,1.943,1.943,1.943,1.943,1.943,1.943,1.943,1.943,1.943,1.943,1.943,1.943,1.943,1.943,1.943,1.943,1.943,1.943,1.9403,1.9279,1.9078,1.8821,1.8688,1.8531,1.8357,1.829,1.8277,1.8277,1.8277,1.8277,1.8277,1.8277,1.8076,1.7929,1.7916,1.7702,1.7582,1.7582,1.7582,1.7582,1.7582,1.7582,1.7582,1.7582,1.7582,1.7582,1.7582,1.7582,1.7582,1.7582,1.7582,1.7582,1.6103,1.6918,1.7695,1.7401,1.7695,1.7958,1.7849,0.0,0.0,0.0,0.0,0.0,0.0,0.0,0.0,0.0,1.8744,0.0,0.0,0.0,2.1844,2.2752,2.2928,2.2928,0.0,2.2928,2.2928,2.2928,2.2311,2.1991,2.1991,2.143,2.1109,2.1109,2.1109,2.1109,2.1109,2.1109,2.0962,2.0668,2.0374,2.008,1.9786,1.9506,1.943,1.943,1.943,1.943,1.943,1.943,1.943,1.943,1.943,1.943,1.943,1.943,1.943,1.943,1.943,1.943,1.943,1.943,1.943,1.943,1.943,1.943,1.943,1.943,1.943,1.943,1.943,1.943,1.943,1.943,1.943,1.943,1.943,1.943,1.943,1.943,1.9239,1.9078,1.8945,1.8798,1.8651,1.8517,1.849,1.849,1.849,1.849,1.849,1.849,1.8343,1.8196,1.7982,1.7889,1.7729,1.7595,1.7582,1.7582,1.7582,1.7582,1.7582,1.7582,1.7582,1.7582,1.7582,1.7582,1.7582,1.7582,1.7582,1.7582,1.6042,1.682,1.7571,1.7452,1.7708,1.7945,1.7928,0.0,0.0,0.0,0.0,0.0,0.0,1.7943,0.0,0.0,0.0,0.0,2.1042,2.167,2.2205,2.2861,2.2928,0.0,2.2928,2.2928,2.2928,2.2928,2.2311,2.1991,2.1991,2.143,2.1109,2.1109,2.1109,2.1109,2.1109,2.1109,2.0962,2.0668,2.0414,2.012,1.9786,1.9546,1.947,1.943,1.943,0.0,1.943,1.943,1.943,1.943,1.943,1.943,1.943,1.943,1.943,1.943,1.943,1.943,1.943,1.943,1.943,1.943,1.943,1.943,1.943,1.943,1.943,1.943,1.943,1.943,1.943,1.943,1.943,1.943,1.943,1.943,1.943,1.943,1.943,1.9292,1.9038,1.8985,1.8905,1.8664,1.8624,1.8624,1.8624,1.8624,1.8624,1.8624,1.8584,1.845,1.8142,1.8089,1.7983,1.7675,1.7609,1.7582,1.7582,1.7582,1.7582,1.7582,1.7582,1.7582,1.7582,1.7582,1.7582,1.7582,1.7582,1.7582,1.6718,1.721,1.742,1.6942,1.7257,1.7644,1.7662,0.0,0.0,0.0,0.0,0.0,0.0,1.8397,1.8584,0.0,0.0,2.0454,0.0,0.0,2.2205,2.2861,0.0,2.2928,2.2928,2.2928,2.2928,2.2928,2.2311,2.1991,2.1991,2.143,2.1109,2.1109,2.1109,2.1109,2.1109,2.1109,2.0962,2.0681,2.0628,2.0321,1.98,1.976,1.9599,1.943,1.943,1.943,1.943,1.943,1.943,1.943,1.943,1.943,1.943,1.943,1.943,1.943,1.943,1.943,1.943,1.943,1.943,1.943,1.943,1.943,1.943,1.943,1.943,1.943,1.943,1.943,1.943,1.943,1.943,1.943,1.943,1.943,1.943,1.943,1.943,1.9359,1.9305,1.9305,1.9279,1.9296,1.9239,1.9239,1.9239,1.9239,1.9239,1.9239,1.9011,1.8838,1.8798,1.8571,1.829,1.7942,1.7729,1.7582,1.7582,1.7582,1.7582,1.7582,1.7582,1.7582,1.7582,1.7582,1.7582,1.7582,1.7582,1.7582,1.6344,1.6634,1.696,1.7363,1.7866,1.8241,1.83,0.0,0.0,0.0,0.0,0.0,0.0,0.0,1.9439,2.0187,0.0,2.1189,2.1884,2.2124,2.2378,0.0,0.0,2.2928,2.2928,2.2928,2.2792,2.2632,2.2231,2.1924,2.1764,2.1349,2.1109,2.1109,2.1109,2.1109,2.1109,2.1109,2.0962,2.0681,2.0681,2.0374,1.98,1.98,1.9639,1.943,1.943,1.943,1.943,1.943,1.943,1.943,1.943,1.943,1.943,1.943,1.943,1.943,1.943,1.943,1.943,1.943,1.943,1.943,1.943,1.943,1.943,1.943,1.943,1.943,1.943,1.943,1.943,1.943,1.943,1.943,1.943,1.943,1.943,1.943,1.943,1.943,1.943,1.943,1.943,1.943,1.943,1.943,1.943,1.943,1.943,1.943,1.9239,1.9092,1.8945,1.8798,1.8531,1.8022,1.7756,1.7582,1.7582,1.7582,1.7582,1.7582,1.7582,1.7582,1.7582,1.7582,1.7582,1.7582,1.7582,1.7582,1.6211,1.6368,1.6752,1.7812,1.8159,1.846,1.8999,0.0,0.0,0.0,0.0,0.0,0.0,1.9666,0.0,2.1189,2.1563,2.1923,2.2151,2.2378,2.2605,2.2832,2.2928,2.2928,2.2928,2.2928,2.2739,2.2445,2.2151,2.1857,2.1628,2.1269,2.1109,2.1109,2.1109,2.1109,2.1109,2.1109,2.1002,2.0775,2.0775,2.0508,2.0,2.0,1.9813,1.9466,1.9466,1.9484,1.943,1.943,1.943,1.943,1.943,1.943,1.943,1.943,1.943,1.943,1.943,1.943,1.943,1.943,1.943,1.943,1.943,1.943,1.943,1.943,1.943,1.943,1.943,1.943,1.943,1.943,1.943,1.943,1.943,1.943,1.943,1.943,1.943,1.943,1.943,1.943,1.943,1.943,1.943,1.943,1.943,1.943,1.943,1.943,1.943,1.9279,1.9052,1.8958,1.8675,1.8222,1.7903,1.7662,1.7582,1.7582,1.7582,1.7582,1.7582,1.7582,1.7582,1.7649,1.7649,1.7582,1.7729,1.7756,1.7165,1.7201,1.7219,1.7861,1.7446,0.0,1.9317,1.8907,0.0,1.9185,0.0,0.0,0.0,2.0441,2.1216,2.183,2.2164,2.2458,2.2752,0.0,2.2846,2.2928,2.2928,2.2928,2.2928,2.2928,2.2739,2.2445,2.2151,2.1857,2.1628,2.1269,2.1109,2.1109,2.1109,2.1109,2.1109,2.1109,2.1096,2.1082,2.1082,2.0909,2.0615,2.0615,2.0307,1.9773,1.9773,1.9613,1.943,1.943,1.943,1.943,1.943,1.943,1.943,1.943,1.943,1.943,1.943,1.943,1.943,1.943,1.943,1.943,1.943,1.943,1.943,1.943,1.943,1.943,1.943,1.943,1.943,1.943,1.943,1.943,1.943,1.943,1.943,1.943,1.943,1.943,1.943,1.943,1.943,1.943,1.943,1.943,1.943,1.943,1.943,1.943,1.943,1.9417,1.939,1.9078,1.8905,1.8865,1.8275,1.7876,1.7595,1.7582,1.7582,1.7582,1.7582,1.7582,1.7582,1.7876,1.7862,1.7595,1.8156,1.8277,1.6453,1.667,1.7061,1.779,1.7473,0.0,0.0,1.9502,1.9615,2.0334,2.0307,0.0,0.0,0.0,2.179,2.2191,2.2498,2.2739,2.2846,2.2928,2.2928,2.2928,2.2928,2.2928,2.2928,2.2699,2.2458,2.2164,2.1884,2.159,2.1296,2.1176,2.1109,2.1109,2.1109,2.1109,2.1109,2.1109,2.1109,2.1109,2.1109,2.0962,2.0668,2.0481,2.0187,1.9786,1.9613,1.9466,1.943,1.943,1.943,1.9444,1.9559,1.9533,1.947,1.9773,1.9786,1.9666,1.984,1.9907,1.988,1.9693,1.9639,1.9639,1.9639,1.9639,1.9679,1.9853,1.9907,1.9826,1.9466,1.943,1.9412,1.9599,1.9492,1.947,1.9599,1.9492,1.943,1.943,1.943,1.943,1.943,1.943,1.943,1.943,1.943,1.943,1.943,1.943,1.943,1.943,1.943,1.943,1.943,1.9265,1.9118,1.8931,1.8544,1.8183,1.7876,1.7876,1.7782,1.7582,1.7769,1.7876,1.7876,1.817,1.8263,1.8156,1.8384,1.8437,1.6066,1.6223,1.6605,0.0,0.0,0.0,1.9176,0.0,0.0,2.1166,2.1162,0.0,0.0,0.0,0.0,0.0,2.2605,2.2928,2.2928,2.2928,2.2928,2.2928,2.2928,2.2928,2.2928,2.2592,2.2298,2.2004,2.1775,2.143,2.1122,2.1109,2.1109,2.1109,2.1109,2.1109,2.1109,2.1109,2.1109,2.1109,2.1109,2.0962,2.0668,2.0468,2.016,1.9786,1.9586,1.9511,1.943,1.943,1.9426,1.9533,1.9826,1.9813,1.9693,2.008,2.0107,1.996,2.016,2.0167,2.0201,2.0,1.9933,1.9933,1.9933,1.9933,1.9973,2.0174,2.0167,2.0147,1.9746,1.9639,1.9693,1.9893,1.9786,1.9693,1.9893,1.9786,1.9613,1.9519,1.9506,1.9506,1.9506,1.9484,1.9457,1.9492,1.9426,1.943,1.943,1.943,1.943,1.943,1.943,1.943,1.943,1.943,1.9279,1.9078,1.8878,1.8597,1.8196,1.8129,1.809,1.7876,1.8076,1.8129,1.8129,1.849,1.8584,1.849,1.8677,1.8718,1.6272,1.6091,1.5958,0.0,0.0,0.0,0.0,0.0,0.0,0.0,0.0,2.1628,2.1614,0.0,0.0,2.1991,2.2485,2.2928,2.2928,2.2928,2.2928,2.2928,2.2928,2.2928,2.2928,2.2592,2.2298,2.2004,2.1775,2.1416,2.1122,2.1109,2.1109,2.1109,2.1109,2.1109,2.1109,2.1109,2.1109,2.1109,2.1109,2.0949,2.0681,2.0668,2.0347,1.98,1.98,1.9639,1.943,1.943,1.9546,1.9826,2.012,2.018,2.0167,2.0241,2.0241,2.0241,2.0241,2.0241,2.0241,2.0241,2.018,2.018,2.018,2.018,2.0241,2.0241,2.0241,2.0241,2.0241,2.0241,2.0241,2.0241,2.018,2.0167,2.018,2.018,2.0147,1.9867,1.98,1.98,1.98,1.9559,1.9466,1.976,1.9559,1.943,1.943,1.943,1.943,1.943,1.943,1.943,1.943,1.943,1.943,1.943,1.943,1.9105,1.8517,1.849,1.849,1.849,1.849,1.849,1.849,1.8784,1.8784,1.8517,1.9092,1.9212,1.6163,1.6223,0.0,1.6791,0.0,0.0,0.0,0.0,0.0,0.0,0.0,2.2098,2.1897,0.0,0.0,2.2285,2.2619,2.2928,2.2928,2.2928,2.2928,2.2928,2.2928,2.2779,2.2565,2.2285,2.1991,2.1775,2.1403,2.1203,2.1109,2.1109,2.1109,2.1109,2.1109,2.1109,2.1109,2.1109,2.1109,2.1109,2.0909,2.0762,2.0668,2.0454,2.016,1.9786,1.9586,1.9452,1.9386,1.9586,1.972,1.9853,2.0347,2.0414,2.022,2.0695,2.0722,2.0575,2.0775,2.0855,2.0815,2.0615,2.0548,2.0548,2.0548,2.0548,2.0588,2.0788,2.0855,2.0855,2.0855,2.0855,2.0802,2.0588,2.0388,2.0233,2.0494,2.0374,2.0214,2.012,2.0107,2.0107,2.0107,1.9867,1.9706,1.9786,1.9559,1.943,1.943,1.943,1.943,1.943,1.943,1.943,1.943,1.943,1.943,1.943,1.943,1.9199,1.8811,1.8798,1.8704,1.849,1.8691,1.8798,1.8798,1.9092,1.9185,1.9118,1.935,1.9377,1.638,1.6525,0.0,1.746,1.8286,1.93,2.064,0.0,0.0,0.0,0.0,2.2365,2.2191,2.2298,0.0,2.2418,2.2672,2.2928,2.2928,2.2928,2.2928,2.2928,2.2752,2.2619,2.2432,2.2044,2.1737,2.1628,2.1269,2.1109,2.1109,2.1109,2.1109,2.1109,2.1109,2.1109,2.1109,2.1109,2.1056,2.0935,2.0762,2.0561,2.0321,2.0147,1.9907,1.9626,1.9439,1.943,1.9444,1.9679,1.9867,2.0013,2.0494,2.0641,2.0628,2.0975,2.1002,2.0869,2.1042,2.1109,2.1082,2.0909,2.0855,2.0855,2.0855,2.0855,2.0882,2.1056,2.1109,2.1109,2.1109,2.1109,2.1069,2.0895,2.0708,2.0628,2.0815,2.0708,2.0548,2.0428,2.0414,2.0414,2.0414,2.016,2.0013,2.0134,1.98,1.9546,1.9546,1.9497,1.943,1.943,1.943,1.943,1.943,1.943,1.943,1.943,1.943,1.9292,1.9105,1.9105,1.9011,1.8838,1.9011,1.9105,1.9105,1.9279,1.943,1.943,1.943,1.943,1.6791,0.0,0.0,1.8173,1.8951,0.0,2.1149,2.2196,2.2859,2.2859,0.0,2.2458,2.2458,2.2458,2.2458,2.2458,2.2686,2.2928,2.2928,2.2928,2.2914,2.2887,2.2579,2.2392,2.2352,2.1857,2.1601,2.1574,2.1256,2.1109,2.1109,2.1109,2.1109,2.1109,2.1109,2.1109,2.1109,2.1109,2.0962,2.0681,2.0655,2.0347,1.98,1.98,1.9639,1.943,1.943,1.943,1.9399,1.9706,2.0,2.0267,2.0588,2.0882,2.1109,2.1109,2.1109,2.1109,2.1109,2.1109,2.1109,2.1109,2.1109,2.1109,2.1109,2.1109,2.1109,2.1109,2.1109,2.1109,2.1109,2.1109,2.1109,2.1109,2.1109,2.1109,2.1109,2.1109,2.1029,2.0762,2.0722,2.0722,2.0722,2.0468,2.0361,2.0601,2.0187,1.9826,1.98,1.9573,1.9457,1.943,1.943,1.943,1.943,1.943,1.943,1.943,1.943,1.943,1.943,1.943,1.943,1.943,1.943,1.943,1.943,1.943,1.943,1.943,1.943,1.943,0.0,1.6742,0.0,0.0,0.0,0.0,2.191,2.2545,2.2791,2.2516,2.2601,2.2766,2.2766,2.2766,2.2766,2.2766,2.2819,2.2928,2.2928,2.2928,2.2779,2.2539,2.2458,2.2231,2.1777,2.1695,2.1521,2.1229,2.1149,2.1109,2.1109,2.1109,2.1109,2.1109,2.1109,2.1109,2.1109,2.1109,2.0962,2.0668,2.0441,2.0147,1.98,1.98,1.9639,1.943,1.943,1.943,1.947,1.992,2.0174,2.022,2.0815,2.1056,2.1109,2.1109,2.1109,2.1109,2.1109,2.1109,2.1109,2.1109,2.1109,2.1109,2.1109,2.1109,2.1109,2.1109,2.1109,2.1109,2.1109,2.1109,2.1109,2.1109,2.1109,2.1109,2.1109,2.1109,2.1096,2.1029,2.1015,2.1015,2.1015,2.0775,2.0521,2.0361,2.0214,2.0054,1.9826,1.9746,1.9626,1.9399,1.943,1.943,1.943,1.943,1.943,1.943,1.943,1.943,1.943,1.943,1.943,1.943,1.943,1.943,1.943,1.943,1.943,1.943,1.943,1.943,0.0,0.0,0.0,0.0,0.0,0.0,0.0,0.0,2.2859,2.2654,2.2722,2.2928,2.2928,2.2928,2.2928,2.2928,2.2928,2.2928,2.2928,2.2928,2.2752,2.2458,2.2298,2.2031,2.1655,2.143,2.1269,2.1122,2.1109,2.1109,2.1109,2.1109,2.1109,2.1109,2.1109,2.1109,2.1109,2.1109,2.0895,2.0468,2.0307,2.0013,1.9599,1.9599,1.9506,1.943,1.943,1.9452,1.9599,1.9907,2.0187,2.0481,2.0788,2.0989,2.1109,2.1109,2.1109,2.1109,2.1109,2.1109,2.1109,2.1109,2.1109,2.1109,2.1109,2.1109,2.1109,2.1109,2.1109,2.1109,2.1109,2.1109,2.1109,2.1109,2.1109,2.1109,2.1109,2.1109,2.1109,2.1109,2.1109,2.1109,2.1109,2.0989,2.0828,2.0681,2.0535,2.0388,2.0241,2.0094,1.9947,1.98,1.9786,1.972,1.9586,1.9573,1.9519,1.943,1.943,1.943,1.943,1.943,1.943,1.943,1.943,1.943,1.943,1.943,1.943,1.943,1.943,1.943,0.0,0.0,0.0,0.0,0.0,0.0,0.0,0.0,2.2928,2.2928,2.2928,2.2928,2.2928,2.2928,2.2928,2.2928,2.2928,2.2914,2.2792,2.2779,2.2659,2.2311,2.2058,2.1804,2.1574,2.1256,2.1109,2.1109,2.1109,2.1109,2.1109,2.1109,2.1109,2.1109,2.1109,2.1109,2.1109,2.1109,2.0842,2.0307,2.0214,1.988,1.943,1.943,1.943,1.943,1.943,1.9533,1.98,1.9853,2.0187,2.0681,2.0735,2.0895,2.1109,2.1109,2.1109,2.1109,2.1109,2.1109,2.1109,2.1109,2.1109,2.1109,2.1109,2.1109,2.1109,2.1109,2.1109,2.1109,2.1109,2.1109,2.1109,2.1109,2.1109,2.1109,2.1109,2.1109,2.1109,2.1109,2.1109,2.1109,2.1109,2.1109,2.1109,2.1109,2.0909,2.0735,2.0681,2.0468,2.0294,2.0241,2.0167,2.0134,1.9893,1.9826,1.972,1.9533,1.9466,1.9439,1.9439,1.9492,1.9492,1.9439,1.9399,1.943,1.943,1.943,1.943,1.943,1.943,1.943,0.0,0.0,0.0,0.0,0.0,0.0,0.0,0.0,2.2928,0.0,2.2928,2.2928,2.2928,2.2928,2.2928,2.2928,2.2928,2.2779,2.2512,2.2472,2.2271,2.1802,2.1695,2.1561,2.1203,2.1136,2.1109,2.1109,2.1109,2.1109,2.1109,2.1109,2.1109,2.1109,2.1109,2.1109,2.1109,2.1109,2.0949,2.0615,2.0107,1.9679,1.943,1.943,1.943,1.943,1.943,1.9533,1.9813,2.0067,2.0374,2.0695,2.0949,2.1082,2.1109,2.1109,2.1109,2.1109,2.1109,2.1109,2.1109,2.1109,2.1109,2.1109,2.1109,2.1109,2.1109,2.1109,2.1109,2.1109,2.1109,2.1109,2.1109,2.1109,2.1109,2.1109,2.1109,2.1109,2.1109,2.1109,2.1109,2.1109,2.1109,2.1109,2.1109,2.1109,2.1082,2.0962,2.0708,2.0641,2.0521,2.0254,2.0167,2.0214,2.0174,1.9947,1.9893,2.0107,1.988,1.9746,1.9746,1.9987,2.0,1.9746,1.9492,1.943,1.943,1.943,1.943,1.943,1.943,1.943,0.0,0.0,0.0,0.0,0.0,0.0,0.0,0.0,2.2928,2.2928,2.2928,2.2928,2.2928,2.2928,2.2806,2.2645,2.2619,2.2512,2.2218,2.2178,2.2017,2.1668,2.1614,2.1494,2.1136,2.1109,2.1109,2.1109,2.1109,2.1109,2.1109,2.1109,2.1109,2.1109,2.1109,2.1109,2.1109,2.1109,2.0882,2.0414,1.984,1.9492,1.943,1.943,1.943,1.943,1.9546,1.9773,2.0067,2.0361,2.0655,2.0935,2.1056,2.1109,2.1109,2.1109,2.1109,2.1109,2.1109,2.1109,2.1109,2.1109,2.1109,2.1109,2.1109,2.1109,2.1109,2.1109,2.1109,2.1109,2.1109,2.1109,2.1109,2.1109,2.1109,2.1109,2.1109,2.1109,2.1109,2.1109,2.1109,2.1109,2.1109,2.1109,2.1109,2.1109,2.1109,2.1069,2.0935,2.0922,2.0869,2.0735,2.0722,2.0655,2.0494,2.0361,2.0267,2.018,2.0107,2.004,2.004,2.016,2.0113,2.004,1.976,1.9613,1.9613,1.9452,1.943,1.943,1.943,1.943,0.0,0.0,0.0,0.0,0.0,0.0,0.0,0.0,2.2766,0.0,2.2928,2.2846,2.2766,2.2752,2.2672,2.2458,2.2352,2.2205,2.1924,2.1884,2.1764,2.1534,2.1443,2.1349,2.1136,2.1109,2.1109,2.1109,2.1109,2.1109,2.1109,2.1109,2.1109,2.1109,2.1109,2.1109,2.1109,2.1109,2.0855,2.0334,1.9826,1.9546,1.9479,1.9479,1.9479,1.9492,1.9706,2.0,2.0361,2.0588,2.0842,2.1109,2.1109,2.1109,2.1109,2.1109,2.1109,2.1109,2.1109,2.1109,2.1109,2.1109,2.1109,2.1109,2.1109,2.1109,2.1109,2.1109,2.1109,2.1109,2.1109,2.1109,2.1109,2.1109,2.1109,2.1109,2.1109,2.1109,2.1109,2.1109,2.1109,2.1109,2.1109,2.1109,2.1109,2.1109,2.1109,2.1109,2.1109,2.1109,2.1109,2.1109,2.1109,2.1029,2.0802,2.0722,2.0615,2.0468,2.0388,2.0347,2.0347,2.0414,2.0414,2.0347,2.0134,1.9987,1.9907,1.9693,1.9586,1.9586,1.9586,1.9546,0.0,0.0,0.0,0.0,0.0,0.0,0.0,0.0,0.0,2.2806,2.2928,2.2779,2.2485,2.2445,2.2432,2.2418,2.2191,2.1911,2.1681,2.1641,2.1534,2.1162,2.1136,2.1122,2.1109,2.1109,2.1109,2.1109,2.1109,2.1109,2.1109,2.1109,2.1109,2.1109,2.1109,2.1109,2.1109,2.1109,2.0962,2.0655,2.0334,2.004,1.9773,1.9773,1.9773,1.9773,1.9786,2.012,2.0655,2.0668,2.0842,2.1109,2.1109,2.1109,2.1109,2.1109,2.1109,2.1109,2.1109,2.1109,2.1109,2.1109,2.1109,2.1109,2.1109,2.1109,2.1109,2.1109,2.1109,2.1109,2.1109,2.1109,2.1109,2.1109,2.1109,2.1109,2.1109,2.1109,2.1109,2.1109,2.1109,2.1109,2.1109,2.1109,2.1109,2.1109,2.1109,2.1109,2.1109,2.1109,2.1109,2.1109,2.1109,2.1096,2.1082,2.0842,2.0788,2.1042,2.0802,2.0655,2.0655,2.0922,2.0935,2.0655,2.0641,2.0494,2.0153,2.0201,2.0187,2.0187,2.0187,2.004,0.0,0.0,0.0,0.0,0.0,0.0,0.0,0.0,2.2392,2.2311,2.2298,2.2271,2.2164,2.2298,2.2298,2.1924,2.1842,2.1603,2.1309,2.1269,2.1229,2.1122,2.1109,2.1109,2.1109,2.1109,2.1109,2.1109,2.1109,2.1109,2.1109,2.1109,2.1109,2.1109,2.1109,2.1109,2.1109,2.0922,2.0775,2.0668,2.0187,1.9907,1.98,1.98,1.9907,2.0094,2.0281,2.0481,2.0695,2.0882,2.1015,2.1109,2.1109,2.1109,2.1109,2.1109,2.1109,2.1109,2.1109,2.1109,2.1109,2.1109,2.1109,2.1109,2.1109,2.1109,2.1109,2.1109,2.1109,2.1109,2.1109,2.1109,2.1109,2.1109,2.1109,2.1109,2.1109,2.1109,2.1109,2.1109,2.1109,2.1109,2.1109,2.1109,2.1109,2.1109,2.1109,2.1109,2.1109,2.1109,2.1109,2.1109,2.1109,2.1109,2.1109,2.1015,2.1002,2.1096,2.1015,2.0949,2.0949,2.1056,2.1056,2.0962,2.0949,2.0802,2.0521,2.0321,2.0167,2.0167,2.0167,2.0174,1.5986,0.0,0.0,0.0,0.0,0.0,0.0,0.0,2.2071,2.1884,2.1991,2.2071,2.1884,2.1991,2.2004,2.1681,2.1534,2.1336,2.1136,2.1109,2.1109,2.1109,2.1109,2.1109,2.1109,2.1109,2.1109,2.1109,2.1109,2.1109,2.1109,2.1109,2.1109,2.1109,2.1015,2.0962,2.0962,2.0668,2.0535,2.0521,2.0027,1.9853,1.9947,1.9947,2.0107,2.0401,2.0695,2.0815,2.0842,2.1029,2.1109,2.1109,2.1109,2.1109,2.1109,2.1109,2.1109,2.1109,2.1109,2.1109,2.1109,2.1109,2.1109,2.1109,2.1109,2.1109,2.1109,2.1109,2.1109,2.1109,2.1109,2.1109,2.1109,2.1109,2.1109,2.1109,2.1109,2.1109,2.1109,2.1109,2.1109,2.1109,2.1109,2.1109,2.1109,2.1109,2.1109,2.1109,2.1109,2.1109,2.1109,2.1109,2.1109,2.1109,2.1109,2.1109,2.1109,2.1109,2.1109,2.1109,2.1109,2.1109,2.1109,2.1109,2.1109,2.1015,2.0815,2.0628,2.0521,2.0521,2.0521,2.0521,0.0,0.0,0.0,0.0,0.0,0.0,0.0,0.0,2.1547,2.1601,2.1977,2.2191,2.1722,2.1614,2.1614,2.1601,2.1296,2.1109,2.1109,2.1109,2.1109,2.1109,2.1109,2.1109,2.1109,2.1109,2.1109,2.1109,2.1109,2.1109,2.1109,2.1109,2.1109,2.1109,2.0828,2.0681,2.0681,2.0388,2.018,2.018,1.9947,1.996,2.018,2.018,2.0401,2.0695,2.0989,2.1109,2.1109,2.1109,2.1109,2.1109,2.1109,2.1109,2.1109,2.1109,2.1109,2.1109,2.1109,2.1109,2.1109,2.1109,2.1109,2.1109,2.1109,2.1109,2.1109,2.1109,2.1109,2.1109,2.1109,2.1109,2.1109,2.1109,2.1109,2.1109,2.1109,2.1109,2.1109,2.1109,2.1109,2.1109,2.1109,2.1109,2.1109,2.1109,2.1109,2.1109,2.1109,2.1109,2.1109,2.1109,2.1109,2.1109,2.1109,2.1109,2.1109,2.1109,2.1109,2.1109,2.1109,2.1109,2.1109,2.1109,2.1109,2.1109,2.1109,2.1109,2.1109,2.1109,2.1109,2.1109,1.5431,0.0,0.0,0.0,0.0,0.0,0.0,0.0,0.0,2.1015,2.1015,2.0989,2.1534,2.1614,2.1547,2.1269,2.1162,2.1109,2.1109,2.1109,2.1109,2.1109,2.1109,2.1109,2.1109,2.1109,2.1109,0.0,2.1109,2.1109,2.1109,2.1109,2.1109,2.1109,2.0828,2.0681,2.0681,2.0601,2.0548,2.0548,2.0254,2.0267,2.0548,2.0334,2.0401,2.0695,2.0989,2.1109,2.1109,2.1109,2.1109,2.1109,2.1109,2.1109,2.1109,2.1109,2.1109,2.1109,2.1109,2.1109,2.1109,2.1109,2.1109,2.1109,2.1109,2.1109,2.1109,2.1109,2.1109,2.1109,2.1109,2.1109,2.1109,2.1109,2.1109,2.1109,2.1109,2.1109,2.1109,2.1109,2.1109,2.1109,2.1109,2.1109,2.1109,2.1109,2.1109,2.1109,2.1109,2.1109,2.1109,2.1109,2.1109,2.1109,2.1109,2.1109,2.1109,2.1109,2.1109,2.1109,2.1109,2.1109,2.1109,2.1109,2.1109,2.1109,2.1109,2.1109,2.1109,2.1109,2.1109,2.1109,1.5645,0.0,0.0,0.0,0.0,0.0,1.7925,1.8473,0.0,0.0,2.0307,2.0388,2.0909,2.1002,2.1029,2.1096,2.1002,2.0975,2.1096,2.1109,2.1109,2.1109,2.1109,2.1109,2.1109,2.1109,2.1109,2.1109,2.1109,2.1109,2.1109,2.1109,2.1109,2.1109,2.0708,2.0494,2.0494,2.0374,2.0307,2.0307,2.0254,2.0388,2.0668,2.0494,2.0575,2.0869,2.1042,2.1109,2.1109,2.1109,2.1109,2.1109,2.1109,2.1109,2.1109,2.1109,2.1109,2.1109,2.1109,2.1109,2.1109,2.1109,2.1109,2.1109,2.1109,2.1109,2.1109,2.1109,2.1109,2.1109,2.1109,2.1109,2.1109,2.1109,2.1109,2.1109,2.1109,2.1109,2.1109,2.1109,2.1109,2.1109,2.1109,2.1109,2.1109,2.1109,2.1109,2.1109,2.1109,2.1109,2.1109,2.1109,2.1109,2.1109,2.1109,2.1109,2.1109,2.1109,2.1109,2.1109,2.1109,2.1109,2.1109,2.1109,2.1109,2.1109,2.1109,2.1109,2.1109,2.1109,2.1109,2.1109,1.6059,0.0,0.0,0.0,0.0,0.0,1.8076,1.849,1.8851,0.0,1.9773,2.0174,2.0267,2.0254,2.0401,2.0922,2.0828,2.0788,2.1109,2.1136,2.1109,2.1109,2.1109,2.1109,2.1109,2.1109,2.1109,2.1109,2.1109,2.1109,2.1109,2.1109,2.1096,2.1069,2.0521,2.0167,2.0167,1.9973,1.9867,1.9907,2.016,2.0441,2.0722,2.0695,2.0842,2.1109,2.1109,2.1109,2.1109,2.1109,2.1109,2.1109,2.1109,2.1109,2.1109,2.1109,2.1109,2.1109,2.1109,2.1109,2.1109,2.1109,2.1109,2.1109,2.1109,2.1109,2.1109,2.1109,2.1109,2.1109,2.1109,2.1109,2.1109,2.1109,2.1109,2.1122,2.1149,2.1136,2.1122,2.1149,2.1136,2.1109,2.1109,2.1109,2.1109,2.1109,2.1109,2.1109,2.1109,2.1109,2.1109,2.1109,2.1109,2.1109,2.1109,2.1109,2.1109,2.1109,2.1109,2.1109,2.1109,2.1109,2.1109,2.1109,2.1109,2.1109,2.1109,2.1109,2.1109,2.1109,2.1109,2.1109,1.65,0.0,0.0,0.0,1.6486,0.0,1.6714,1.7166,1.7903,0.0,1.9452,1.9746,2.0454,2.0401,2.0267,2.0388,2.0561,2.0869,2.1454,2.1256,2.1109,2.1109,2.1109,2.1109,2.1109,2.1109,2.1109,2.1109,2.1109,2.1109,2.1109,2.1109,2.1002,2.0762,2.0414,2.0167,2.0167,2.0174,2.0267,2.0508,2.0561,2.0748,2.1015,2.0788,2.0842,2.1109,2.1109,2.1109,2.1109,2.1109,2.1109,2.1109,2.1109,2.1109,2.1109,2.1109,2.1109,2.1109,2.1109,2.1109,2.1109,2.1109,2.1109,2.1109,2.1109,2.1109,2.1109,2.1109,2.1109,2.1109,2.1109,2.1109,2.1109,2.1109,2.1109,2.1176,2.1416,2.1283,2.1176,2.1416,2.1269,2.1109,2.1109,2.1109,2.1109,2.1109,2.1109,2.1109,2.1109,2.1109,2.1109,2.1109,2.1109,2.1109,2.1109,2.1109,2.1109,2.1109,2.1109,2.1109,2.1109,2.1109,2.1109,2.1109,2.1109,2.1109,2.1109,2.1109,2.1109,2.1109,2.1109,2.1109,1.6967,0.0,0.0,1.6593,1.6593,0.0,0.0,1.6656,1.7139,1.8437,1.8357,1.8357,1.9399,1.9212,1.9052,1.9506,1.9826,2.0174,2.0615,2.0922,2.1109,2.1109,2.0855,2.0668,2.0668,2.0668,2.0735,2.0882,2.0762,2.0802,2.1096,2.0975,2.0895,2.0895,2.0615,2.0454,2.0454,2.0454,2.0535,2.0681,2.0828,2.0962,2.1109,2.0962,2.0975,2.1109,2.1109,2.1109,2.1109,2.1109,2.1109,2.1109,2.1109,2.1109,2.1109,2.1109,2.1109,2.1109,2.1109,2.1109,2.1109,2.1109,2.1109,2.1109,2.1109,2.1109,2.1109,2.1109,2.1109,2.1109,2.1109,2.1216,2.1336,2.1336,2.1336,2.1416,2.1697,2.1537,2.1416,2.171,2.1643,2.1456,2.1162,2.1109,2.1109,2.1109,2.1109,2.1109,2.1109,2.1109,2.1109,2.1109,2.1109,2.1109,2.1109,2.1109,2.1109,2.1109,2.1109,2.1109,2.1109,2.1109,2.1109,2.1109,2.1109,2.1109,2.1109,2.1109,2.1109,2.1109,2.1109,2.1109,0.0,0.0,0.0,1.7313,1.7048,1.6887,0.0,0.0,0.0,1.7543,1.7301,0.0,0.0,0.0,0.0,0.0,0.0,0.0,0.0,2.0334,0.0,2.0775,2.0454,2.0153,2.0147,2.0147,2.0267,2.0575,2.0321,2.0374,2.0909,2.0722,2.0695,2.0935,2.0708,2.0615,2.0681,2.0681,2.0708,2.0762,2.1002,2.1109,2.1109,2.1109,2.1109,2.1109,2.1109,2.1109,2.1109,2.1109,2.1109,2.1109,2.1109,2.1109,2.1109,2.1109,2.1109,2.1109,2.1109,2.1109,2.1109,2.1109,2.1109,2.1109,2.1109,2.1109,2.1109,2.1109,2.1109,2.1122,2.1176,2.1376,2.1628,2.1681,2.1695,2.1762,2.1937,2.1804,2.1775,2.1937,2.1991,2.1817,2.1283,2.1189,2.1176,2.1122,2.1109,2.1109,2.1109,2.1109,2.1109,2.1109,2.1109,2.1109,2.1109,2.1109,2.1109,2.1109,2.1109,2.1109,2.1109,2.1109,2.1109,2.1109,2.1109,2.1109,2.1109,2.1109,2.1109,2.1109,2.1109,2.1109,0.0,0.0,0.0,0.0,1.7528,1.7503,1.6184,0.0,1.7058,1.6887,0.0,0.0,0.0,0.0,0.0,0.0,0.0,0.0,1.8985,1.9559,1.9853,1.9599,1.996,2.0134,1.988,1.9853,1.9973,2.0267,2.0013,1.9987,2.0307,2.0247,2.0294,2.0273,2.0294,2.0414,2.0668,2.0681,2.0802,2.1056,2.1096,2.1109,2.1109,2.1109,2.1109,2.1109,2.1109,2.1109,2.1109,2.1109,2.1109,2.1109,2.1109,2.1109,2.1109,2.1109,2.1109,2.1109,2.1109,2.1109,2.1109,2.1109,2.1109,2.1109,2.1109,2.1109,2.1109,2.1109,2.1109,2.1162,2.1494,2.1588,2.1681,2.1871,2.1937,2.1951,2.1977,2.1964,2.1951,2.1977,2.1991,2.1884,2.1628,2.1561,2.1416,2.1149,2.1109,2.1109,2.1109,2.1109,2.1109,2.1109,2.1109,2.1109,2.1109,2.1109,2.1109,2.1109,2.1109,2.1109,2.1109,2.1109,2.1109,2.1109,2.1109,2.1109,2.1109,2.1109,2.1109,2.1109,2.1109,2.1109,0.0,0.0,0.0,0.0,0.0,0.0,1.6353,1.6246,1.6446,0.0,0.0,0.0,0.0,0.0,0.0,0.0,1.738,0.0,0.0,0.0,1.8784,0.0,0.0,0.0,1.9305,1.9292,1.9479,1.9947,1.9559,1.9573,2.0201,2.0067,2.0134,2.0481,2.0494,2.0628,2.0922,2.0922,2.0989,2.1109,2.1109,2.1109,2.1109,2.1109,2.1109,2.1109,2.1109,2.1109,2.1109,2.1109,2.1109,2.1109,2.1109,2.1109,2.1109,2.1109,2.1109,2.1109,2.1109,2.1109,2.1109,2.1109,2.1109,2.1109,2.1109,2.1109,2.1109,2.1109,2.1229,2.139,2.1588,2.1804,2.2084,2.2205,2.2231,2.2285,2.2458,2.2365,2.2285,2.2458,2.2498,2.2405,2.2111,2.1924,2.1764,2.163,2.147,2.1363,2.1363,2.1216,2.1109,2.1109,2.1109,2.1109,2.1109,2.1109,2.1109,2.1109,2.1109,2.1109,2.1109,2.1109,2.1109,2.1109,2.1109,2.1109,2.1109,2.1109,2.1109,2.1109,2.1109,2.1109,1.8838,0.0,0.0,0.0,0.0,0.0,0.0,0.0,1.6259,0.0,0.0,0.0,0.0,0.0,0.0,0.0,0.0,1.6978,0.0,0.0,0.0,0.0,0.0,0.0,0.0,1.8651,1.8798,1.9399,1.8891,1.8945,1.9826,1.9679,1.9867,2.0535,2.0548,2.0735,2.1109,2.1109,2.1109,2.1109,2.1109,2.1109,2.1109,2.1109,2.1109,2.1109,2.1109,2.1109,2.1109,2.1109,2.1109,2.1109,2.1109,2.1109,2.1109,2.1109,2.1109,2.1109,2.1109,2.1109,2.1109,2.1109,2.1109,2.1109,2.1109,2.1162,2.1229,2.1229,2.1443,2.1762,2.1764,2.2098,2.2445,2.2525,2.2539,2.2579,2.2712,2.2632,2.2579,2.2712,2.2806,2.2792,2.2579,2.2298,2.2071,2.1991,2.1804,2.1708,2.1628,2.1363,2.1203,2.1122,2.1109,2.1109,2.1109,2.1109,2.1109,2.1109,2.1109,2.1109,2.1109,2.1109,2.1109,2.1109,2.1109,2.1109,2.1109,2.1109,2.1109,2.1109,2.1109,2.1109,0.0,0.0,0.0,1.8023,0.0,0.0,0.0,0.0,1.7005,0.0,0.0,0.0,0.0,0.0,0.0,0.0,0.0,0.0,0.0,0.0,0.0,0.0,0.0,0.0,0.0,1.7969,1.7876,0.0,1.7969,1.8023,1.8918,1.8958,1.9345,2.0214,2.0254,2.0521,2.1096,2.1109,2.1109,2.1109,2.1109,2.1109,2.1109,2.1109,2.1109,2.1109,2.1109,2.1109,2.1109,2.1109,2.1109,2.1109,2.1109,2.1109,2.1109,2.1109,2.1109,2.1109,2.1109,2.1109,2.1109,2.1109,2.1109,2.1109,2.1109,2.1309,2.1601,2.1601,2.175,2.2031,2.2311,2.2405,2.2485,2.2779,2.2846,2.2779,2.2485,2.2645,2.2766,2.2485,2.2672,2.2928,2.2914,2.2605,2.2311,2.2031,2.1977,2.1871,2.1655,2.1614,2.1494,2.1136,2.1109,2.1109,2.1109,2.1109,2.1109,2.1109,2.1109,2.1109,2.1109,2.1109,2.1109,2.1109,2.1109,2.1109,2.1109,2.1109,2.1109,2.1109,2.1109,2.1109,0.0,0.0,2.0201,1.8811,0.0,0.0,0.0,0.0,0.0,0.0,0.0,0.0,0.0,0.0,0.0,0.0,0.0,0.0,0.0,0.0,0.0,0.0,0.0,0.0,0.0,0.0,0.0,1.8129,1.8183,0.0,1.8891,1.9292,1.9733,2.0214,2.0428,2.0708,2.1109,2.1109,2.1109,2.1109,2.1109,2.1109,2.1109,2.1109,2.1109,2.1109,2.1109,2.1109,2.1109,2.1109,2.1109,2.1109,2.1109,2.1109,2.1109,2.1109,2.1109,2.1109,2.1109,2.1109,2.1109,2.1109,2.1109,2.1149,2.1336,2.1534,2.1655,2.1777,2.2044,2.2298,2.2392,2.2565,2.2739,2.2846,2.2928,2.2832,2.2739,2.2792,2.2901,2.2726,2.2792,2.2928,2.2928,2.2779,2.2672,2.2579,2.2405,2.2231,2.2138,2.1951,2.1724,2.143,2.1403,2.1323,2.1122,2.1109,2.1109,2.1109,2.1109,2.1109,2.1109,2.1109,2.1109,2.1109,2.1109,2.1109,2.1109,2.1109,2.1109,2.1109,2.1109,2.1109,2.0414,2.0601,0.0,1.9626,1.9252,0.0,1.7462,0.0,1.7795,0.0,0.0,0.0,0.0,0.0,0.0,0.0,0.0,0.0,0.0,1.6299,0.0,0.0,0.0,0.0,0.0,0.0,1.7542,1.7862,1.7862,0.0,0.0,1.9332,1.9826,2.0167,2.0521,2.0815,2.1109,2.1109,2.1109,2.1109,2.1109,2.1109,2.1109,2.1109,2.1109,2.1109,2.1109,2.1109,2.1109,2.1109,2.1109,2.1109,2.1109,2.1109,2.1109,2.1109,2.1109,2.1109,2.1109,2.1109,2.1109,2.1109,2.1176,2.1296,2.1561,2.1762,2.1897,2.2084,2.2352,2.2579,2.2579,2.2712,2.2928,2.2928,2.2928,2.2928,2.2928,2.2928,2.2928,2.2928,2.2928,2.2928,2.2928,2.2928,2.2928,2.2928,2.2699,2.2539,2.2432,2.2258,2.2031,2.1802,2.171,2.163,2.1443,2.1416,2.1416,2.1416,2.1416,2.1416,2.1416,2.1323,2.1269,2.1269,2.1162,2.1109,2.1109,2.1109,2.1109,2.1109,2.1109,2.1109]}]]